[[[{"header":{"parameterUnit":"kt","parameterCategory":2,"dx":1,"dy":1,"la1":29.285339999999998,"la2":30.599998999999997,"lo1":-89.70041500000002,"lo2":-87.6738589999976,"nx":112,"ny":82,"refTime":"2022-10-18T00:00:00:Z","depth":0,"parameterNumber":1,"parameterNumberName":"U-component_of_WINDS"},"data":[-6.7124,-6.6892,-6.5612,-6.4216,-6.1686,-5.9301,-5.837,-5.424,-5.0634,-5.0634,-4.9729,-4.7926,-4.4803,-4.3257,0.0,0.0,0.0,0.0,0.0,-3.3287,0.0,0.0,0.0,0.0,0.0,0.0,0.0,0.0,0.0,0.0,0.0,-4.2176,-4.3683,-4.1984,-4.3378,-4.2236,-3.8153,-3.716,-3.5871,-3.4177,-3.4177,-3.4177,-3.4177,-3.4177,-3.367,-3.2761,-3.2553,-3.1943,-3.106,-3.0852,-3.0682,-3.0682,-3.0682,-3.0424,-3.0039,-3.0478,-2.8743,-2.5614,-2.1463,-2.0014,-1.9693,-1.7902,-1.7271,-1.7271,-1.7271,-1.7271,-1.7271,-1.7271,-1.7271,-1.7444,-1.7831,-1.8043,-1.7847,-1.6827,-1.446,-1.1618,-0.8097,-0.5187,-0.2535,-0.0437,0.0,0.0,0.0,0.0,0.0,0.0,0.0,0.0,0.0,0.0,0.0,0.0,0.0,0.0,0.0,0.0,0.0,0.0,0.0,0.0,0.0,0.0,0.0,0.0,0.0,0.0,0.0,0.0,0.0,0.0,0.0,0.0,-6.2326,-6.2209,-6.1046,-6.0173,-5.773,-5.5251,-5.3912,-4.9587,-4.578,-4.5357,-4.4639,-4.3598,-4.1905,-4.0971,0.0,0.0,0.0,0.0,0.0,0.0,0.0,0.0,0.0,0.0,0.0,0.0,0.0,0.0,-3.8311,0.0,-4.0376,-4.3767,-4.5398,-4.4584,-4.5501,-4.4371,-4.0817,-3.904,-3.7261,-3.5478,-3.4675,-3.4177,-3.4177,-3.4084,-3.3371,-3.2463,-3.2268,-3.1644,-3.0682,-3.0682,-3.0682,-3.0682,-3.0682,-3.1125,-3.1765,-3.2047,-3.0865,-2.8664,-2.5262,-2.3054,-2.1063,-1.8217,-1.7271,-1.7271,-1.7271,-1.7271,-1.7271,-1.7271,-1.7271,-1.731,-1.7602,-1.7866,-1.8084,-1.8084,-1.6129,-1.3215,-0.9843,-0.6902,-0.3882,-0.0656,0.0,0.0,0.0,0.0,0.0,0.0,0.0,0.0,0.0,0.0,0.0,0.0,0.0,0.0,0.0,0.0,0.0,0.0,0.0,0.0,0.0,0.0,0.0,0.0,0.0,0.0,0.0,0.0,0.0,0.0,0.0,0.0,-5.8748,-5.8225,-5.6764,-5.4174,-5.2602,-5.0692,-4.6853,-4.5923,-4.5484,-4.4334,-4.407,-4.3239,-4.0902,-4.0375,0.0,0.0,0.0,0.0,0.0,0.0,0.0,0.0,0.0,0.0,0.0,-3.8383,-4.0471,0.0,-4.2555,-4.4525,-4.3831,-4.6147,-4.7894,-4.8748,-4.7114,-4.6149,-4.6053,-4.0817,-3.8153,-3.8052,-3.5478,-3.4177,-3.4151,-3.3693,-3.312,-3.245,-3.1878,-3.1307,-3.0682,-3.0682,-3.0682,-3.0682,-3.0682,-3.1138,-3.1657,-3.1657,-3.068,-2.935,-2.935,-2.6061,-2.1382,-1.8431,-1.7372,-1.7271,-1.7271,-1.7271,-1.7271,-1.7271,-1.7271,-1.7271,-1.7271,-1.7583,-1.7904,-1.7904,-1.5879,-1.3049,-0.9936,-0.7016,-0.3996,-0.0766,-0.0109,0.0,0.0,0.0,0.0,0.0,0.0,0.0,0.0,0.0,0.0,0.0,0.0,0.0,0.0,0.0,0.0,0.0,0.0,0.0,0.0,0.0,0.0,0.0,0.0,0.0,0.0,0.0,0.0,0.0,0.0,0.0,-5.4299,-5.429,-5.2903,-5.1245,-5.1274,-5.1158,-4.918,-4.6577,-4.4509,-4.4158,-4.2695,0.0,0.0,0.0,-3.856,-3.7173,0.0,-3.565,-3.3524,-3.2567,-3.3024,0.0,0.0,0.0,0.0,-3.9332,-3.9997,-4.1402,-4.311,-4.4165,-4.4544,-4.702,-4.8786,-4.964,-4.9112,-4.7931,-4.6053,-4.2774,-4.0023,-3.8052,-3.5478,-3.4177,-3.4151,-3.3693,-3.312,-3.245,-3.1878,-3.1307,-3.0682,-3.0682,-3.0682,-3.0682,-3.0682,-3.1372,-3.2242,-3.2242,-3.2462,-3.2796,-3.2796,-3.0588,-2.6822,-2.2011,-1.896,-1.7271,-1.7271,-1.7271,-1.7271,-1.7271,-1.7271,-1.7271,-1.7271,-1.7583,-1.7904,-1.7904,-1.7613,-1.6395,-1.3171,-1.0298,-0.7329,-0.4109,-0.1647,0.0,0.0,0.0,0.0,0.0,0.0,0.0,0.0,0.0,0.0,0.0,0.0,0.0,0.0,0.0,0.0,0.0,0.0,0.0,0.0,0.0,0.0,0.0,0.0,0.0,0.0,0.0,0.0,0.0,0.0,0.0,-4.9733,-4.9865,-4.9064,-4.8337,-4.8686,-4.89,-4.7654,-4.5716,-4.3849,-4.2786,0.0,0.0,0.0,0.0,0.0,0.0,-3.5335,-3.4364,-3.3794,-3.3184,-3.3825,-3.6592,0.0,0.0,-4.0528,-4.142,-4.2484,-4.3983,-4.5521,-4.6432,-4.6546,-4.7932,-4.9128,-4.9906,-4.9944,-4.9243,-4.774,-4.5148,-4.2479,-3.9824,-3.8239,-3.6351,-3.4253,-3.4502,-3.3839,-3.2437,-3.1618,-3.1073,-3.0682,-3.0682,-3.0682,-3.0682,-3.0682,-3.132,-3.2151,-3.2385,-3.3047,-3.3953,-3.4099,-3.2277,-2.9231,-2.4838,-2.0645,-1.7271,-1.7271,-1.7271,-1.7271,-1.7271,-1.7271,-1.7271,-1.7271,-1.7497,-1.7649,-1.787,-1.815,-1.7634,-1.4496,-1.2598,-1.0197,-0.5757,-0.3334,-0.165,-0.022,0.0,0.0,0.0,0.0,0.0,0.0,0.0,0.0,0.0,0.0,0.0,0.0,0.0,0.0,0.0,0.0,0.0,0.0,0.0,0.0,0.0,0.0,0.0,0.0,0.0,0.0,0.0,0.0,0.0,-4.5864,-4.5864,-4.5864,-4.5864,-4.578,-4.5399,-4.4378,0.0,-4.3587,-4.1269,0.0,-4.0627,-3.9071,0.0,0.0,-3.652,-3.4328,-3.3387,-3.5572,-3.5283,-3.5422,-3.7098,-3.8117,-3.92,-4.0757,-4.4192,-4.6375,-4.6375,-4.8558,-4.9545,-4.8859,-4.8824,-4.9222,-4.9906,-4.9944,-4.9944,-4.9944,-4.7339,-4.4857,-4.2676,-4.2283,-3.9679,-3.5038,-3.6219,-3.5264,-3.2694,-3.1603,-3.0946,-3.0682,-3.0682,-3.0682,-3.0682,-3.0682,-3.1125,-3.1696,-3.2268,-3.2839,-3.3524,-3.4084,-3.2586,-2.9968,-2.7251,-2.2639,-1.8217,-1.7902,-1.7587,-1.7271,-1.7271,-1.7271,-1.7271,-1.7271,-1.7271,-1.7438,-1.7682,-1.8083,-1.7507,-1.4912,-1.4284,-1.2521,-0.6537,-0.5084,-0.3914,-0.101,-0.0224,0.0,0.0,0.0,0.0,0.0,0.0,0.0,0.0,0.0,0.0,0.0,0.0,0.0,0.0,0.0,0.0,0.0,0.0,0.0,0.0,0.0,0.0,0.0,0.0,0.0,0.0,0.0,0.0,-4.5864,-4.5864,-4.5864,-4.5864,-4.5157,-4.4378,0.0,0.0,0.0,-4.3244,-4.4282,-4.4455,-4.1029,-4.011,-3.9268,-3.7299,-3.6515,-3.5921,-3.525,-3.8486,-4.1724,-4.404,-4.5046,-4.5673,-4.5995,-4.6755,-4.7229,-4.7229,-4.8311,-4.89,-4.8821,-4.9393,-4.9755,-4.9944,-4.9944,-4.9944,-4.9944,-4.7339,-4.5842,-4.5245,-4.3166,-4.1292,-3.9558,-3.9422,-3.7641,-3.4623,-3.3977,-3.2584,-3.0682,-3.0682,-3.0682,-3.0682,-3.0682,-3.1125,-3.1696,-3.2268,-3.2839,-3.3524,-3.4084,-3.3856,-3.2907,-3.0072,-2.6937,-2.3793,-2.1489,-1.9166,-1.7271,-1.7271,-1.7271,-1.7271,-1.7271,-1.7271,-1.7284,-1.7444,-1.7675,-1.7828,-1.7495,-1.5533,-1.2853,-0.9278,-0.6544,-0.4678,-0.4047,-0.1704,0.0,0.0,0.0,0.0,0.0,0.0,0.0,0.0,0.0,0.0,0.0,0.0,0.0,0.0,0.0,0.0,0.0,0.0,0.0,0.0,0.0,0.0,0.0,0.0,0.0,0.0,0.0,0.0,-4.5864,-4.5864,-4.5738,-4.5114,-4.4552,0.0,0.0,-4.2569,-4.2934,-4.3381,-4.3462,-4.3316,-4.2943,-4.1457,-3.9828,-3.8559,-3.7789,-3.7911,-3.973,-4.2901,-4.516,-4.5559,-4.6717,-4.7457,-4.7457,-4.7457,-4.7628,-4.8064,-4.89,-4.9374,-4.9374,-4.9698,-4.9944,-4.9944,-4.9944,-4.9944,-4.9944,-4.8635,-4.7339,-4.6053,-4.6053,-4.4271,-4.0803,-4.162,-4.017,-3.6819,-3.5107,-3.3755,-3.2493,-3.1222,-3.0682,-3.0682,-3.0682,-3.1294,-3.2086,-3.2372,-3.3021,-3.3901,-3.4073,-3.4177,-3.3754,-3.0912,-2.8086,-2.5268,-2.2427,-1.9587,-1.7271,-1.7271,-1.7271,-1.7271,-1.7271,-1.7271,-1.7271,-1.7271,-1.7589,-1.7983,-1.8169,-1.7199,-1.5407,-1.2466,-1.0667,-0.8636,-0.5376,-0.3463,-0.1933,-0.0224,0.0,0.0,0.0,0.0,0.0,0.0,0.0,0.0,0.0,0.0,0.0,0.0,0.0,0.0,0.0,0.0,0.0,0.0,0.0,0.0,0.0,0.0,0.0,0.0,0.0,0.0,-4.5864,-4.5696,-4.5314,-4.4334,-4.376,0.0,-4.1139,-4.138,-4.2259,-4.3447,-4.3172,-4.3165,-4.4519,-4.2577,-4.07,-4.0472,-3.9604,-4.049,-4.4772,-4.6774,-4.721,-4.5776,-4.7039,-4.7879,-4.7879,-4.7879,-4.8235,-4.8938,-4.9621,-4.9944,-4.9944,-4.9944,-4.9944,-4.9944,-4.9944,-4.9944,-4.9944,-4.9944,-4.8939,-4.6841,-4.8754,-4.7068,-4.2117,-4.3678,-4.244,-3.9046,-3.6811,-3.5263,-3.4285,-3.2218,-3.1393,-3.1419,-3.1076,-3.1502,-3.2333,-3.2553,-3.3216,-3.4034,-3.4138,-3.4177,-3.3856,-3.1543,-2.893,-2.6099,-2.3265,-2.0432,-1.8009,-1.7479,-1.7271,-1.7271,-1.7271,-1.7271,-1.7271,-1.7271,-1.7543,-1.7904,-1.8084,-1.838,-1.7971,-1.563,-1.4719,-1.2667,-0.7633,-0.5738,-0.3943,-0.1358,-0.0449,0.0,0.0,0.0,0.0,0.0,0.0,0.0,0.0,0.0,0.0,0.0,0.0,0.0,0.0,0.0,0.0,0.0,0.0,0.0,0.0,0.0,0.0,0.0,0.0,0.0,-4.5864,-4.5143,-4.429,-4.4158,-4.2466,0.0,-4.163,-4.4672,-4.6852,-4.5121,-4.8443,-5.0089,-4.5136,-4.4444,-4.4329,-4.3387,-4.3863,-4.4979,-4.6907,-4.7989,-4.8612,-4.8422,-4.9165,-4.9641,-4.9641,-4.9641,-4.9698,-4.9793,-4.9887,-4.9944,-4.9944,-4.9944,-4.9944,-4.9944,-4.9944,-4.9944,-4.9944,-4.9944,-4.9831,-4.9528,-4.9148,-4.8132,-4.6632,-4.6205,-4.4188,-4.1077,-4.0729,-3.8236,-3.4375,-3.4118,-3.4027,-3.3812,-3.2163,-3.1713,-3.1852,-3.2964,-3.3419,-3.3602,-3.411,-3.4177,-3.4177,-3.3856,-3.175,-2.8919,-2.6204,-2.338,-2.0539,-1.8009,-1.7271,-1.7271,-1.7271,-1.7271,-1.7271,-1.7271,-1.729,-1.7497,-1.789,-1.8189,-1.8254,-1.8195,-1.5903,-1.3729,-1.3416,-0.8598,-0.4788,-0.4423,-0.1819,0.0,0.0,0.0,0.0,0.0,0.0,0.0,0.0,0.0,0.0,0.0,0.0,0.0,0.0,0.0,0.0,0.0,0.0,0.0,0.0,0.0,0.0,0.0,0.0,0.0,-4.5057,-4.4465,-4.376,-4.2328,0.0,0.0,-4.1028,-4.276,-4.4598,-4.506,-4.6783,-4.7888,-4.6687,-4.6544,-4.6386,-4.593,-4.7058,-4.8178,-4.8769,-4.926,-4.9488,-4.9488,-4.9717,-4.9944,-4.9944,-4.9944,-4.9944,-4.9944,-4.9016,-4.8883,-4.9887,-4.9944,-4.9944,-4.9944,-4.9944,-4.9944,-4.9944,-4.9944,-4.9773,-4.9279,-4.89,-4.8027,-4.6736,-4.6394,-4.5229,-4.3359,-4.2013,-4.0258,-3.8325,-3.7009,-3.5608,-3.4266,-3.2431,-3.1839,-3.2229,-3.3133,-3.3641,-3.3966,-3.4099,-3.4177,-3.4177,-3.4177,-3.2277,-2.9761,-2.8607,-2.5154,-2.1268,-2.0113,-1.8646,-1.7271,-1.7271,-1.7271,-1.7271,-1.7271,-1.7271,-1.7451,-1.7844,-1.8003,-1.8176,-1.8361,-1.7512,-1.6175,-1.4627,-1.0565,-0.6966,-0.5149,-0.2068,0.0,0.0,0.0,0.0,0.0,0.0,0.0,0.0,0.0,0.0,0.0,0.0,0.0,0.0,0.0,0.0,0.0,0.0,0.0,0.0,0.0,0.0,0.0,0.0,0.0,-4.4422,0.0,0.0,0.0,0.0,0.0,-4.1166,-4.2618,-4.4306,-4.5345,-4.6291,-4.7142,-4.7836,-4.7918,-4.7894,-4.814,-4.9129,-4.9944,-4.9944,-4.9944,-4.9944,-4.9944,-4.9944,-4.9944,-4.9944,-4.9944,-4.9944,-4.9944,-4.8788,-4.8618,-4.9868,-4.9944,-4.9944,-4.9944,-4.9944,-4.9944,-4.9944,-4.9944,-4.9602,-4.8821,-4.8574,-4.7628,-4.6242,-4.5995,-4.5559,-4.48,-4.3101,-4.2377,-4.2186,-3.9821,-3.7565,-3.541,-3.3586,-3.2768,-3.2787,-3.3458,-3.3927,-3.4177,-3.4177,-3.4177,-3.4177,-3.4177,-3.2804,-3.1015,-3.0176,-2.6613,-2.2533,-2.1799,-1.9487,-1.7271,-1.7271,-1.7271,-1.7271,-1.7271,-1.7271,-1.7431,-1.7629,-1.7675,-1.7761,-1.8057,-1.8354,-1.7939,-1.596,-1.297,-0.9754,-0.6596,-0.3356,-0.1025,-0.0113,0.0,0.0,0.0,0.0,0.0,0.0,0.0,0.0,0.0,0.0,0.0,0.0,0.0,0.0,0.0,0.0,0.0,0.0,0.0,0.0,0.0,0.0,0.0,0.0,0.0,0.0,-4.2005,-4.1128,-4.0811,-4.2804,-4.6502,-4.8924,-4.6717,-4.9538,-5.1444,-4.808,-4.8193,-4.8976,-4.9736,-4.9906,-4.9944,-4.9944,-4.9944,-4.9944,-4.9944,-4.9944,-4.9944,-4.9944,-4.9944,-4.9944,-4.9944,-4.9887,-4.9887,-4.9944,-4.9944,-4.9944,-4.9944,-4.9944,-4.9944,-4.9944,-4.9944,-4.9602,-4.8802,-4.7894,-4.7058,-4.6223,-4.5302,-4.4923,-4.4885,-4.48,-4.48,-4.463,-4.2272,-4.0225,-3.8334,-3.6526,-3.4814,-3.3484,-3.4045,-3.4164,-3.4177,-3.4177,-3.4177,-3.4177,-3.4177,-3.4177,-3.3548,-3.0808,-2.7981,-2.5163,-2.2321,-1.9487,-1.7271,-1.7271,-1.7271,-1.7271,-1.7271,-1.7271,-1.7271,-1.7277,-1.7284,-1.7471,-1.7857,-1.8156,-1.8341,-1.8522,-1.6183,-1.3116,-0.9907,-0.675,-0.354,-0.0458,0.0,0.0,0.0,0.0,0.0,0.0,0.0,0.0,0.0,0.0,0.0,0.0,0.0,0.0,0.0,0.0,0.0,0.0,0.0,0.0,0.0,0.0,0.0,-4.5161,-4.4219,-4.3636,-4.4764,-4.3703,-4.3439,-4.7796,-4.9266,-4.9997,-5.0867,-5.1785,-5.1942,-5.0169,-4.9674,-4.9697,-4.9887,-4.9944,-4.9944,-4.9944,-4.9944,-4.9944,-4.9944,-4.9944,-4.9944,-4.9944,-4.9944,-4.9944,-4.9944,-4.8883,-4.8732,-4.9887,-4.8845,-4.875,-4.9906,-4.9944,-4.9944,-4.9944,-4.945,-4.8729,-4.7875,-4.7039,-4.6204,-4.5302,-4.5018,-4.4885,-4.4885,-4.4885,-4.4885,-4.4715,-4.2377,-4.0331,-3.8549,-3.665,-3.4939,-3.3511,-3.3969,-3.4177,-3.4177,-3.4177,-3.4177,-3.4177,-3.4177,-3.4177,-3.4074,-3.3022,-3.0808,-2.7981,-2.5154,-2.2321,-1.9693,-1.7795,-1.7271,-1.7271,-1.7271,-1.7271,-1.7271,-1.7271,-1.7271,-1.7457,-1.7844,-1.7983,-1.8097,-1.8591,-1.6053,-1.3679,-1.2865,-0.9969,-0.6812,-0.366,-0.3251,-0.2423,-0.0218,0.0,0.0,0.0,0.0,0.0,0.0,0.0,0.0,0.0,0.0,0.0,0.0,0.0,0.0,0.0,0.0,0.0,0.0,0.0,0.0,-4.5886,-4.5248,-4.4951,-4.7179,-4.644,-4.6343,-5.1021,-5.1819,-5.1841,-5.2846,-5.3275,-5.2873,-5.1043,-5.1071,-5.1017,-5.0114,-4.9944,-4.9944,-4.9944,-4.9944,-4.9944,-4.9944,-4.9944,-4.9944,-4.9944,-4.9944,-4.9944,-4.9944,-4.8902,-4.8769,-4.9887,-4.8883,-4.8788,-4.9906,-4.9944,-4.9944,-4.9944,-4.9165,-4.8159,-4.702,-4.6489,-4.5787,-4.4885,-4.4885,-4.4885,-4.4885,-4.4885,-4.4885,-4.48,-4.3273,-4.1756,-4.0185,-3.8139,-3.6399,-3.5065,-3.4441,-3.4177,-3.4177,-3.4177,-3.4177,-3.4177,-3.4177,-3.4177,-3.4177,-3.4177,-3.2174,-2.9542,-2.7773,-2.4532,-2.117,-1.9273,-1.8117,-1.7271,-1.7271,-1.7271,-1.7271,-1.7271,-1.7271,-1.7424,-1.7609,-1.7831,-1.8056,-1.844,-1.6852,-1.5244,-1.4513,-1.2601,-1.0117,-0.6913,-0.5562,-0.403,-0.1997,-0.0662,0.0,0.0,0.0,0.0,0.0,0.0,0.0,0.0,0.0,0.0,0.0,0.0,0.0,0.0,0.0,0.0,0.0,0.0,0.0,-4.6687,-4.6359,-4.6224,-4.9409,-4.932,-4.9393,-5.2761,-5.425,-5.4473,-5.3192,-5.4528,-5.4689,-5.1029,-5.2284,-5.3077,-5.0755,-5.0284,-5.0303,-5.0209,-5.0114,-5.0114,-4.9925,-4.9944,-4.9944,-4.9944,-4.9944,-4.9944,-4.9944,-4.9944,-4.9944,-4.9944,-4.9944,-4.9944,-4.9944,-4.9887,-4.9868,-4.9868,-4.909,-4.7946,-4.6242,-4.6204,-4.5768,-4.4885,-4.4885,-4.4885,-4.4885,-4.4942,-4.4942,-4.4904,-4.498,-4.4422,-4.3297,-4.0873,-3.9169,-3.7765,-3.5274,-3.4381,-3.4177,-3.4177,-3.4177,-3.4177,-3.4177,-3.4177,-3.4177,-3.4177,-3.2277,-3.0176,-2.9968,-2.6099,-2.1905,-2.1693,-1.9587,-1.7479,-1.7378,-1.7271,-1.7271,-1.7271,-1.7271,-1.7271,-1.7271,-1.7589,-1.7977,-1.8163,-1.8459,-1.7692,-1.4976,-1.4607,-1.3433,-1.0156,-0.7148,-0.5256,-0.5136,-0.2367,-0.0447,-0.0224,-0.022,-0.0218,0.0,0.0,0.0,0.0,0.0,0.0,0.0,0.0,0.0,0.0,0.0,0.0,0.0,0.0,0.0,-4.8752,-4.8589,-4.8969,-5.4479,-5.381,-5.3298,-5.8911,-5.9204,-5.8847,-6.0833,-6.0231,-5.8528,-5.5777,-5.5819,-5.6089,-5.5368,-5.5299,-5.4684,-5.3005,-5.2727,-5.2005,-5.0209,-4.9944,-4.9944,-4.9944,-4.9944,-4.9944,-4.9944,-4.9944,-4.9944,-4.9944,-4.9944,-4.9944,-4.9944,-4.9393,-4.9052,-4.9052,-4.8216,-4.7267,-4.6242,-4.5597,-4.5094,-4.4885,-4.4885,-4.4885,-4.4923,-4.5654,-4.5559,-4.4999,-4.6231,-4.5521,-4.3533,-4.342,-4.1219,-3.8052,-3.7362,-3.5871,-3.4177,-3.4177,-3.4177,-3.4177,-3.4177,-3.4177,-3.4177,-3.4177,-3.3754,-3.2701,-3.0498,-2.8919,-2.6822,-2.2639,-2.1063,-1.9907,-1.7795,-1.7271,-1.7271,-1.7271,-1.7271,-1.7271,-1.7271,-1.7323,-1.7569,-1.7963,-1.815,-1.8211,-1.768,-1.7712,-1.6775,-1.3554,-1.2441,-1.1084,-0.856,-0.761,-0.6122,-0.386,-0.3579,-0.255,-0.0111,0.0,0.0,0.0,0.0,0.0,0.0,0.0,0.0,0.0,0.0,0.0,0.0,0.0,0.0,-4.8591,-4.9345,-5.0972,-5.5883,-5.5787,-5.5885,-6.1376,-6.1351,-6.0619,-6.2372,-6.2498,-6.1513,-5.9105,-5.8666,-5.8403,-5.734,-5.7162,-5.6716,-5.5389,-5.5229,-5.4684,-5.3241,-5.3169,-5.3169,-5.3169,-5.3169,-5.2727,-5.1652,-5.2542,-5.2707,-5.1652,-5.1559,-5.1383,-5.0991,-4.9511,-4.8631,-4.8178,-4.7343,-4.6698,-4.6223,-4.5302,-4.4885,-4.4885,-4.4885,-4.4885,-4.4923,-4.5483,-4.5635,-4.5616,-4.6546,-4.6517,-4.5814,-4.5001,-4.2733,-3.9724,-3.8554,-3.6466,-3.4177,-3.4177,-3.4177,-3.4177,-3.4177,-3.4177,-3.4177,-3.4177,-3.4177,-3.3856,-3.2277,-3.0912,-2.8919,-2.4628,-2.2533,-2.0851,-1.8009,-1.7271,-1.7271,-1.7271,-1.7271,-1.7271,-1.7271,-1.7271,-1.7464,-1.7851,-1.8043,-1.8183,-1.8618,-1.8809,-1.8303,-1.6617,-1.5197,-1.3738,-1.1871,-1.0405,-0.8871,-0.703,-0.6927,-0.6059,-0.4124,-0.2875,-0.2083,-0.1851,-0.0659,0.0,0.0,-0.1228,-0.2475,-0.3894,-0.1271,-0.0702,-0.1898,-0.0594,0.0,-4.7601,-4.9267,-5.2152,-5.5543,-5.6689,-5.7932,-6.1595,-6.1913,-6.1372,-6.12,-6.2861,-6.3669,-6.1513,-6.1146,-6.0519,-5.8403,-5.8138,-5.7961,-5.7696,-5.7607,-5.7518,-5.7162,-5.7162,-5.7162,-5.7162,-5.7162,-5.6269,-5.4249,-5.602,-5.6269,-5.4249,-5.3964,-5.3532,-5.2729,-5.0173,-4.8479,-4.7732,-4.6645,-4.6071,-4.6071,-4.5245,-4.4885,-4.4904,-4.5113,-4.5226,-4.5226,-4.534,-4.5825,-4.6432,-4.666,-4.7533,-4.8545,-4.6258,-4.4276,-4.2381,-3.9624,-3.6958,-3.4675,-3.4381,-3.4177,-3.4177,-3.4177,-3.4177,-3.4177,-3.4177,-3.4177,-3.4177,-3.4177,-3.238,-2.9761,-2.6623,-2.4004,-2.1268,-1.8117,-1.7587,-1.7795,-1.7372,-1.7271,-1.7271,-1.7271,-1.7271,-1.7451,-1.7695,-1.7877,-1.8076,-1.8486,-1.8631,-1.8763,-1.9007,-1.6674,-1.5023,-1.5023,-1.2496,-1.0648,-1.0181,-1.0152,-0.9875,-0.9157,-0.6796,-0.5307,-0.4892,-0.2502,-0.1206,-0.1113,-0.3555,-0.6108,-0.8783,-0.3617,-0.2183,-0.4196,-0.1755,-0.0354,-4.8457,-4.9429,-5.1544,-5.642,-5.9594,-6.1473,-6.1327,-6.2547,-6.3733,-6.368,-6.4029,-6.4196,-6.3753,-6.3753,-6.356,-6.3223,-6.3139,-6.2413,-6.0346,-6.0064,-5.9367,-5.7429,-5.7162,-5.7162,-5.7162,-5.7162,-5.6984,-5.6537,-5.6895,-5.6984,-5.6537,-5.5717,-5.5222,-5.505,-5.1314,-4.9205,-4.9044,-4.6436,-4.5113,-4.5113,-4.4961,-4.4885,-4.4942,-4.6394,-4.7039,-4.7077,-4.778,-4.7761,-4.7362,-4.8694,-4.9109,-4.8805,-4.8945,-4.7517,-4.5051,-4.2479,-3.9724,-3.716,-3.4981,-3.4177,-3.4177,-3.4177,-3.4177,-3.4177,-3.4177,-3.4177,-3.4177,-3.4177,-3.3856,-3.2277,-2.7146,-2.5469,-2.3793,-1.8538,-1.9067,-2.0219,-1.7795,-1.7271,-1.7271,-1.7271,-1.7271,-1.7284,-1.7438,-1.7642,-1.7937,-1.8036,-1.8367,-1.8697,-1.8743,-1.8472,-1.8252,-1.8252,-1.773,-1.6398,-1.378,-1.3593,-1.2234,-0.9313,-0.8629,-0.8284,-0.7934,-0.7497,-0.7288,-0.7202,-0.7746,-0.8234,-0.8783,-0.7697,-0.6199,-0.4242,-0.3719,-0.2227,-5.0336,-5.0004,-4.9944,-5.2931,-5.5665,-5.852,-6.1937,-6.2645,-6.2913,-6.4143,-6.3459,-6.3019,-6.4168,-6.4388,-6.4388,-6.4388,-6.4388,-6.3945,-6.2753,-6.2583,-6.2134,-6.0997,-6.0888,-6.0888,-6.0888,-6.0888,-6.0346,-5.9105,-6.0173,-6.0346,-5.9017,-5.7987,-5.7224,-5.6814,-5.3111,-5.0919,-5.0517,-4.7928,-4.6816,-4.7184,-4.6132,-4.5862,-4.6212,-4.7096,-4.7457,-4.7476,-4.7894,-4.8083,-4.8178,-4.9014,-4.9374,-4.945,-4.9774,-4.8331,-4.5956,-4.4645,-4.1593,-3.7952,-3.6668,-3.5376,-3.4177,-3.4177,-3.4177,-3.4177,-3.4177,-3.4177,-3.4177,-3.4177,-3.4177,-3.3228,-2.9023,-2.7981,-2.6518,-2.0851,-2.0539,-2.117,-1.98,-1.8324,-1.7271,-1.7271,-1.7271,-1.7271,-1.7271,-1.7484,-1.7622,-1.7884,-1.8142,-1.8328,-1.8637,-1.8796,-1.8934,-1.9079,-1.9092,-1.8489,-1.6933,-1.6828,-1.6008,-1.4027,-1.2439,-1.1361,-1.0979,-1.2375,-1.3244,-1.3244,-1.1723,-1.1659,-1.3172,-1.0212,-0.8751,-0.8776,-0.5677,-0.3568,-5.1141,-4.9905,-4.853,-5.0622,-5.1736,-5.4128,-6.101,-6.1424,-6.1107,-6.385,-6.2913,-6.2254,-6.407,-6.4388,-6.4388,-6.4388,-6.4388,-6.4388,-6.4388,-6.4388,-6.4388,-6.4388,-6.4388,-6.4388,-6.4388,-6.4388,-6.356,-6.1575,-6.3199,-6.3476,-6.1575,-6.0211,-5.9265,-5.8632,-5.4985,-5.2956,-5.2485,-5.0361,-4.9439,-4.9684,-4.8108,-4.7341,-4.7476,-4.7837,-4.8008,-4.8008,-4.8008,-4.8387,-4.9014,-4.9014,-4.9412,-4.9944,-4.9944,-4.8731,-4.6841,-4.6246,-4.3084,-3.894,-3.8354,-3.6365,-3.4177,-3.4177,-3.4177,-3.4177,-3.4177,-3.4177,-3.4177,-3.4177,-3.4177,-3.3536,-3.0705,-2.9968,-2.8815,-2.4417,-2.3371,-2.3054,-2.1799,-1.98,-1.8009,-1.7372,-1.7271,-1.7271,-1.7271,-1.7271,-1.7451,-1.7668,-1.7864,-1.8096,-1.8512,-1.8637,-1.8782,-1.9059,-1.9092,-1.9092,-1.9092,-1.9092,-1.8842,-1.8275,-1.6065,-1.4489,-1.3912,-1.6068,-1.7271,-1.7271,-1.5088,-1.5093,-1.7264,-1.2807,-1.1472,-1.2931,-0.8327,-0.5531,-4.8779,-4.7995,-4.8387,-5.4139,-5.2834,-5.1272,-5.5836,-5.7593,-5.935,-6.345,-6.4217,-6.4143,-6.4255,-6.4388,-6.4388,-6.4388,-6.4388,-6.4388,-6.4388,-6.4388,-6.4388,-6.4388,-6.4388,-6.4388,-6.4388,-6.4388,-6.428,-6.4029,-6.4196,-6.428,-6.4004,-6.2035,-6.0869,-6.0771,-5.6637,-5.491,-5.5738,-5.3642,-5.2054,-5.0926,-5.0773,-4.9522,-4.7514,-4.8997,-4.9698,-4.9698,-4.9698,-4.9755,-4.9811,-4.9811,-4.9868,-4.9944,-4.9944,-4.9831,-4.9338,-4.6937,-4.4256,-4.1494,-3.894,-3.6365,-3.4177,-3.4177,-3.4177,-3.4177,-3.4177,-3.4177,-3.4177,-3.4177,-3.4177,-3.3536,-3.0705,-2.9968,-2.9761,-2.9334,-2.9127,-2.7773,-2.2639,-2.1382,-2.0432,-1.7795,-1.7271,-1.7271,-1.7271,-1.7271,-1.7277,-1.7303,-1.7629,-1.8016,-1.8235,-1.8512,-1.8782,-1.9059,-1.9092,-1.9092,-1.9092,-1.9092,-1.8842,-1.8275,-1.8003,-1.7527,-1.6961,-1.7157,-1.7271,-1.7271,-1.7049,-1.7049,-1.7271,-1.6828,-1.532,-1.3058,-1.2468,-0.9352,-4.9697,-4.8216,-4.7108,-5.1522,-5.1235,-5.0394,-5.2785,-5.4177,-5.6202,-6.0522,-6.1888,-6.1937,-6.0668,-6.2547,-6.3948,-6.2547,-6.3426,-6.4388,-6.4388,-6.4388,-6.4388,-6.4388,-6.4388,-6.4388,-6.4388,-6.4388,-6.4388,-6.4388,-6.4388,-6.4388,-6.4388,-6.2205,-6.101,-6.101,-5.8768,-5.7724,-5.8131,-5.6705,-5.5232,-5.3776,-5.2485,-5.1571,-5.114,-5.0334,-4.9944,-4.9944,-4.9944,-4.9944,-4.9944,-4.9944,-4.9944,-4.9944,-4.9944,-4.9944,-4.9831,-4.8826,-4.6745,-4.4159,-4.1494,-3.884,-3.6263,-3.4675,-3.4177,-3.4177,-3.4177,-3.4177,-3.4177,-3.4177,-3.4177,-3.3972,-3.2804,-3.2495,-3.2495,-3.2495,-3.1222,-2.9346,-2.7146,-2.4004,-2.1276,-2.012,-1.8538,-1.7271,-1.7271,-1.7271,-1.7271,-1.7271,-1.7471,-1.7642,-1.8043,-1.8229,-1.8525,-1.8815,-1.8993,-1.9092,-1.9092,-1.9092,-1.8921,-1.8532,-1.8334,-1.8051,-1.7642,-1.7622,-1.755,-1.7271,-1.7271,-1.7271,-1.7271,-1.7271,-1.672,-1.553,-1.3872,-1.1783,-4.906,-4.7979,-4.6819,-4.9665,-4.9686,-4.9799,-5.2868,-5.2759,-5.3371,-5.8081,-6.0351,-6.0936,-5.9155,-6.1302,-6.2815,-6.1254,-6.2303,-6.3548,-6.429,-6.4388,-6.4388,-6.4388,-6.4388,-6.4388,-6.4388,-6.4388,-6.4388,-6.4388,-6.4388,-6.4451,-6.4768,-6.2693,-6.1644,-6.1986,-6.0668,-6.0107,-6.0424,-5.9642,-5.8552,-5.7119,-5.4862,-5.372,-5.3629,-5.1819,-5.0661,-4.9944,-4.9944,-4.9944,-4.9944,-4.9944,-4.9944,-4.9944,-4.9944,-4.9944,-4.9944,-4.9944,-4.8331,-4.5649,-4.3068,-4.0421,-3.7664,-3.507,-3.4177,-3.4177,-3.4177,-3.4177,-3.4177,-3.4177,-3.4177,-3.4177,-3.4177,-3.4177,-3.4177,-3.4177,-3.2701,-3.1015,-3.0072,-2.6822,-2.3582,-2.1905,-1.9907,-1.8324,-1.7479,-1.7271,-1.7271,-1.7271,-1.7271,-1.7444,-1.7642,-1.7925,-1.8255,-1.8637,-1.8855,-1.9,-1.9086,-1.9092,-1.8974,-1.8697,-1.8479,-1.8275,-1.8176,-1.7997,-1.7804,-1.7504,-1.731,-1.7271,-1.7271,-1.7271,-1.7271,-1.7264,-1.5201,-1.3867,-4.5745,-4.6622,-4.8061,-5.0038,-4.8922,-4.9206,-5.6575,-5.3875,-5.1321,-5.6812,-6.0424,-6.2279,-6.118,-6.101,-6.1034,-6.101,-6.1034,-6.1815,-6.407,-6.4388,-6.4388,-6.4388,-6.4388,-6.4388,-6.4388,-6.4388,-6.4388,-6.4388,-6.4388,-6.4768,-6.5817,-6.3792,-6.3108,-6.4231,-6.2132,-6.1522,-6.2571,-6.2514,-6.1928,-6.0583,-5.8204,-5.5909,-5.3629,-5.3629,-5.2284,-4.9944,-4.9944,-4.9944,-4.9944,-4.9944,-4.9944,-4.9944,-4.9944,-4.9944,-4.9944,-4.9944,-4.8331,-4.5649,-4.3068,-4.0421,-3.7664,-3.507,-3.4177,-3.4177,-3.4177,-3.4177,-3.4177,-3.4177,-3.4177,-3.4177,-3.4177,-3.4177,-3.4177,-3.4177,-3.4177,-3.3433,-3.059,-2.9865,-2.819,-2.2639,-2.1587,-2.0645,-1.7795,-1.7271,-1.7271,-1.7271,-1.7271,-1.7271,-1.7271,-1.7622,-1.8136,-1.8618,-1.8684,-1.8789,-1.9066,-1.9092,-1.8974,-1.8697,-1.8677,-1.867,-1.867,-1.8103,-1.7904,-1.7897,-1.7517,-1.7271,-1.7271,-1.7271,-1.7271,-1.7271,-1.7264,-1.5745,-4.6895,-4.7369,-4.8448,-5.1929,-5.0015,-4.93,-5.7312,-5.3675,-5.0687,-5.7593,-5.6226,-5.4177,-5.5348,-5.8545,-6.101,-6.101,-6.2279,-6.3499,-6.429,-6.4388,-6.4388,-6.4388,-6.4388,-6.4388,-6.4388,-6.4388,-6.4388,-6.4388,-6.4987,-6.5549,-6.5866,-6.4548,-6.3914,-6.4363,-6.2864,-6.2279,-6.262,-6.3377,-6.2695,-6.0692,-5.989,-5.917,-5.8314,-5.5139,-5.3169,-5.2357,-5.0661,-4.9944,-4.9944,-4.9944,-4.9944,-4.9944,-4.9944,-4.9944,-4.9944,-4.9944,-4.9433,-4.8331,-4.5746,-4.3068,-4.0405,-3.775,-3.5668,-3.4177,-3.4177,-3.4177,-3.4177,-3.4177,-3.4177,-3.4177,-3.4177,-3.4177,-3.4177,-3.4177,-3.4177,-3.3959,-3.3022,-3.1337,-2.9449,-2.7668,-2.4206,-2.1276,-2.0432,-1.8646,-1.7271,-1.7271,-1.7271,-1.7271,-1.7271,-1.7451,-1.7649,-1.8031,-1.844,-1.8717,-1.8802,-1.898,-1.9053,-1.8967,-1.896,-1.8875,-1.8684,-1.8499,-1.8301,-1.8097,-1.7807,-1.7662,-1.7662,-1.7471,-1.7271,-1.7271,-1.7271,-1.6828,-4.6839,-4.7396,-4.8706,-5.2737,-5.0906,-5.0076,-5.7766,-5.3848,-5.0713,-5.8024,-5.5422,-5.2547,-5.4897,-5.7475,-5.9594,-6.0814,-6.2157,-6.3435,-6.4265,-6.4388,-6.4388,-6.4388,-6.4388,-6.4388,-6.4388,-6.4388,-6.4475,-6.4865,-6.5524,-6.6256,-6.7062,-6.5695,-6.5085,-6.55,-6.4036,-6.3255,-6.3255,-6.3938,-6.356,-6.2049,-6.2049,-6.1575,-6.0519,-5.7607,-5.5299,-5.3537,-5.2005,-5.0849,-4.9944,-4.9944,-4.9944,-4.9944,-4.9944,-4.9944,-4.9944,-4.9944,-4.9944,-4.9546,-4.6937,-4.4954,-4.3068,-3.934,-3.6958,-3.5464,-3.4471,-3.4177,-3.4177,-3.4177,-3.4177,-3.4177,-3.4177,-3.4177,-3.4177,-3.4177,-3.4177,-3.4177,-3.4177,-3.2804,-3.1234,-3.0176,-2.7136,-2.4101,-2.1905,-2.012,-1.8531,-1.7479,-1.7271,-1.7271,-1.7271,-1.7271,-1.7444,-1.7616,-1.8057,-1.8433,-1.8657,-1.8835,-1.898,-1.9086,-1.9092,-1.9013,-1.8842,-1.8736,-1.8591,-1.8407,-1.811,-1.8016,-1.7904,-1.7616,-1.7477,-1.7271,-1.7271,-1.7271,-4.5864,-4.681,-4.8786,-5.2748,-5.1644,-5.1318,-5.8113,-5.4357,-5.1327,-5.8097,-5.7011,-5.5628,-5.8509,-5.7396,-5.7033,-6.0253,-6.1058,-6.1937,-6.3889,-6.4109,-6.4168,-6.4241,-6.4109,-6.4143,-6.4143,-6.4363,-6.4817,-6.5817,-6.6037,-6.6989,-6.89,-6.7135,-6.6476,-6.7364,-6.5427,-6.4388,-6.4388,-6.4388,-6.4265,-6.3962,-6.4265,-6.2995,-6.054,-6.06,-5.8314,-5.4137,-5.3587,-5.2198,-5.019,-4.983,-4.9774,-4.9944,-4.9944,-4.9944,-4.9944,-4.9944,-4.9944,-4.9622,-4.7243,-4.6246,-4.5245,-4.0321,-3.8454,-3.765,-3.5172,-3.4381,-3.4177,-3.4177,-3.4177,-3.4177,-3.4177,-3.4177,-3.4177,-3.4177,-3.4177,-3.4177,-3.4177,-3.4177,-3.3433,-3.0705,-3.0072,-2.8294,-2.3054,-2.1799,-2.0645,-1.8009,-1.7479,-1.7271,-1.7271,-1.7271,-1.7271,-1.7271,-1.7609,-1.8103,-1.8565,-1.8618,-1.8743,-1.904,-1.9059,-1.9073,-1.9092,-1.8842,-1.871,-1.871,-1.842,-1.813,-1.797,-1.7924,-1.7668,-1.733,-1.731,-1.731,-4.5864,-4.681,-4.8876,-5.3268,-5.1948,-5.1712,-5.982,-5.5327,-5.1327,-5.8097,-5.481,-5.2269,-5.7276,-5.6055,-5.5197,-5.8185,-6.14,-6.3401,-6.306,-6.2303,-6.2083,-6.2913,-6.2279,-6.1791,-6.1791,-6.406,-6.5622,-6.5866,-6.7403,-6.8461,-6.8973,-6.7754,-6.7233,-6.7413,-6.5427,-6.4388,-6.4388,-6.4388,-6.306,-6.0668,-6.3133,-6.274,-5.9772,-6.0352,-6.0064,-5.8708,-5.309,-5.1493,-5.2475,-4.8706,-4.8273,-4.9944,-4.9944,-4.9944,-4.9944,-4.9944,-4.9944,-4.9831,-4.9224,-4.774,-4.5842,-4.4565,-4.1411,-3.7952,-3.7362,-3.5769,-3.4177,-3.4177,-3.4177,-3.4177,-3.4177,-3.4177,-3.4177,-3.4177,-3.4177,-3.4177,-3.4177,-3.4177,-3.3972,-3.333,-3.144,-2.9553,-2.819,-2.4417,-2.1382,-2.0645,-1.8746,-1.7271,-1.7271,-1.7271,-1.7271,-1.7271,-1.7431,-1.7616,-1.8083,-1.8109,-1.8222,-1.8743,-1.8776,-1.8868,-1.9079,-1.9026,-1.8993,-1.8993,-1.8717,-1.8545,-1.8473,-1.8123,-1.799,-1.8031,-1.78,-1.782,-4.6795,-4.7711,-4.9765,-5.3964,-5.2803,-5.2221,-5.8689,-5.5583,-5.3054,-5.9031,-5.6676,-5.4569,-5.7855,-5.9177,-5.9102,-5.7315,-6.0766,-6.3382,-6.2748,-6.2385,-6.1992,-6.1569,-6.2099,-6.2132,-6.1107,-6.3987,-6.611,-6.6598,-6.8071,-6.9217,-6.9795,-6.8331,-6.7413,-6.7413,-6.5427,-6.4388,-6.4388,-6.4388,-6.2693,-5.9545,-6.2767,-6.262,-5.9541,-6.151,-6.1684,-6.0341,-5.5313,-5.3378,-5.3343,-4.9506,-4.8786,-4.9944,-4.9944,-4.9944,-4.9944,-4.9944,-4.9944,-4.9944,-4.9944,-4.9034,-4.7644,-4.6438,-4.4078,-4.1312,-3.884,-3.7059,-3.5769,-3.4573,-3.507,-3.5769,-3.4471,-3.4177,-3.4177,-3.4177,-3.4177,-3.4177,-3.4177,-3.4177,-3.4177,-3.4177,-3.3022,-3.1543,-3.0176,-2.7459,-2.4522,-2.2011,-2.0227,-1.8746,-1.7479,-1.7271,-1.7271,-1.7271,-1.7271,-1.7438,-1.7589,-1.7831,-1.8036,-1.8255,-1.84,-1.8657,-1.9073,-1.9092,-1.9092,-1.9092,-1.8941,-1.8809,-1.8677,-1.8354,-1.8209,-1.8235,-1.8182,-1.8196,-4.8118,-4.9193,-5.1274,-5.4968,-5.3921,-5.298,-5.6706,-5.5513,-5.5018,-5.9683,-5.9429,-5.8452,-5.8827,-6.2597,-6.3647,-5.7324,-5.9711,-6.2551,-6.3057,-6.3385,-6.2791,-6.0732,-6.2422,-6.3068,-6.1376,-6.4231,-6.6598,-6.7559,-6.8656,-6.9722,-7.0716,-6.8648,-6.7413,-6.7413,-6.5427,-6.4388,-6.4388,-6.4388,-6.2693,-5.9545,-6.2767,-6.262,-5.9619,-6.284,-6.3199,-6.1013,-5.8284,-5.5972,-5.3954,-5.1108,-4.994,-4.9944,-4.9944,-4.9944,-4.9944,-4.9944,-4.9944,-4.9944,-4.9944,-4.9944,-4.9622,-4.7339,-4.6438,-4.5262,-4.0718,-3.904,-3.8253,-3.606,-3.6756,-3.7563,-3.5376,-3.4471,-3.4177,-3.4177,-3.4177,-3.4177,-3.4177,-3.4177,-3.4177,-3.4177,-3.4177,-3.3433,-3.1015,-3.0176,-2.8294,-2.3582,-2.2109,-2.0744,-1.8217,-1.7587,-1.7271,-1.7271,-1.7271,-1.7271,-1.7271,-1.7589,-1.7837,-1.7837,-1.8005,-1.8407,-1.8934,-1.9,-1.9046,-1.9092,-1.9092,-1.8974,-1.8743,-1.8697,-1.8572,-1.8367,-1.8321,-1.8328,-4.9455,-5.1216,-5.3737,-5.6561,-5.528,-5.4086,-5.691,-5.5513,-5.4494,-5.7469,-5.7891,-5.773,-5.7784,-5.9085,-5.9614,-5.8062,-5.9429,-6.1584,-6.4219,-6.39,-6.2987,-6.1872,-6.1274,-6.1255,-6.2294,-6.5329,-6.7608,-6.8681,-6.9844,-7.0594,-7.0765,-6.8648,-6.7413,-6.7413,-6.5427,-6.4388,-6.4388,-6.4388,-6.2693,-5.9545,-6.2767,-6.262,-5.9619,-6.284,-6.4112,-6.3499,-5.8938,-5.6808,-5.6276,-5.169,-4.988,-4.9944,-4.9944,-4.9944,-4.9944,-4.9944,-4.9944,-4.9944,-4.9944,-4.9944,-4.9944,-4.9528,-4.7835,-4.5956,-4.5051,-4.328,-4.1494,-4.1099,-3.9624,-3.7952,-3.7664,-3.5871,-3.4177,-3.4177,-3.4177,-3.4177,-3.4177,-3.4177,-3.4177,-3.4177,-3.4177,-3.4074,-3.3651,-3.1543,-2.9657,-2.8815,-2.4628,-2.1374,-2.0957,-1.8853,-1.7271,-1.7271,-1.7271,-1.7271,-1.7271,-1.7303,-1.7438,-1.7438,-1.7701,-1.8123,-1.8354,-1.8611,-1.8848,-1.9086,-1.9092,-1.9073,-1.9026,-1.8789,-1.8776,-1.8954,-1.8723,-1.8736,-5.0809,-5.2223,-5.3941,-5.5134,-5.4552,-5.397,-5.5163,-5.4523,-5.4377,-5.7026,-5.755,-5.755,-5.755,-6.0109,-6.1686,-6.0055,-6.2734,-6.5497,-6.692,-6.6974,-6.5823,-6.3047,-6.4089,-6.4336,-6.2734,-6.6024,-6.8461,-6.8973,-7.0088,-7.0765,-7.0765,-6.8648,-6.7413,-6.7413,-6.5427,-6.4388,-6.4388,-6.4388,-6.2693,-5.9545,-6.2767,-6.1693,-5.7032,-6.2035,-6.3352,-6.1637,-5.9725,-5.8975,-5.8642,-5.3821,-5.1876,-5.1819,-5.0472,-4.9944,-4.9944,-4.9944,-4.9944,-4.9944,-4.9944,-4.9944,-4.9944,-4.9944,-4.9129,-4.7931,-4.6535,-4.6246,-4.6035,-4.4662,-4.3378,-4.1708,-3.884,-3.716,-3.5972,-3.4573,-3.4177,-3.4177,-3.4177,-3.4177,-3.4177,-3.4177,-3.4177,-3.4177,-3.4177,-3.3125,-3.175,-3.0176,-2.7762,-2.5049,-2.2011,-2.0432,-1.9067,-1.7479,-1.7271,-1.7271,-1.7271,-1.7271,-1.7271,-1.7271,-1.7642,-1.8036,-1.8222,-1.8525,-1.8809,-1.9086,-1.9092,-1.9092,-1.9092,-1.896,-1.8967,-1.9086,-1.896,-1.8967,-5.2329,0.0,-5.4187,-5.4187,-5.3988,-5.3892,0.0,-5.376,-5.4203,-5.6211,-5.7114,-5.7376,-5.6764,-6.0755,-6.3373,-6.0758,-6.5234,-6.8811,-6.8171,-6.8971,-6.8274,-6.4833,-6.7281,-6.8141,-6.5235,-6.7868,-6.9674,-6.9453,-7.0731,-7.1167,-7.0399,-6.8526,-6.7291,-6.7135,-6.528,-6.4388,-6.4388,-6.4388,-6.306,-6.0668,-6.3133,-6.1302,-5.5982,-6.1693,-6.2547,-5.9536,-6.0954,-6.1232,-6.0323,-5.6806,-5.4957,-5.4249,-5.2357,-5.1278,-5.0829,-5.0829,-5.0472,-4.9944,-4.9944,-4.9944,-4.9944,-4.9944,-4.9944,-4.9546,-4.7548,-4.8349,-4.9546,-4.7548,-4.6535,-4.5148,-4.1016,-3.904,-3.7563,-3.5566,-3.4675,-3.4177,-3.4177,-3.4177,-3.4177,-3.4177,-3.4177,-3.4177,-3.4177,-3.4177,-3.3433,-3.1222,-3.0383,-2.8398,-2.411,-2.2957,-2.1481,-1.8646,-1.8324,-1.8009,-1.7372,-1.7902,-1.8009,-1.7372,-1.7576,-1.7827,-1.8117,-1.8413,-1.871,-1.8987,-1.9053,-1.9092,-1.9092,-1.9092,-1.9092,-1.9092,-1.9092,-1.9092,0.0,-5.4972,-5.5622,-5.5622,-5.5081,-5.4532,-5.4532,-5.4073,0.0,-5.3883,-5.5862,-5.6823,-5.4377,-5.8079,-6.067,-5.8196,-6.41,-6.8171,-6.5728,-6.7495,-6.8668,-6.7659,-6.9017,-7.0548,-7.1723,-7.2056,-7.1848,-7.0753,-7.2588,-7.2453,-6.9258,-6.8023,-6.7037,-6.6037,-6.489,-6.4388,-6.4388,-6.4388,-6.4265,-6.3962,-6.4265,-6.2498,-5.9277,-6.2718,-6.2547,-5.9692,-6.2725,-6.2753,-6.0606,-6.0237,-5.882,-5.6895,-5.6716,-5.5299,-5.3353,-5.3353,-5.1912,-4.9944,-4.9944,-4.9944,-4.9944,-4.9944,-4.9944,-4.9925,-4.9736,-4.9831,-4.9925,-4.9736,-4.7931,-4.5939,-4.5649,-4.1806,-3.8052,-3.7851,-3.5972,-3.4177,-3.4177,-3.4177,-3.4177,-3.4177,-3.4177,-3.4177,-3.4177,-3.4177,-3.4177,-3.3972,-3.1647,-2.9761,-2.9346,-2.7146,-2.4426,-2.1587,-2.1276,-2.0219,-1.7479,-1.9693,-2.0113,-1.7479,-1.7284,-1.753,-1.7924,-1.811,-1.8407,-1.8703,-1.896,-1.9092,-1.9092,-1.9092,-1.9092,-1.9092,-1.9092,-1.9092,-5.358,-5.4175,-5.4677,-5.4677,-5.589,-5.6647,-5.4977,-5.5359,-5.5629,-5.397,-5.4436,-5.5076,-5.488,-5.7091,-5.9388,-6.0813,-6.4158,-6.7357,-6.9538,-7.0702,-7.1804,-7.3106,-7.2738,-7.2401,-7.246,-7.0981,-7.0234,-7.0686,-7.0642,-7.0062,-6.9038,-6.7974,-6.6696,-6.4963,-6.4583,-6.4388,-6.4388,-6.4388,-6.4388,-6.4388,-6.4388,-6.262,-5.9619,-6.284,-6.2547,-5.9692,-6.2913,-6.2639,0.0,-6.0439,-5.8965,-5.6432,-5.6992,-5.6627,-5.566,-5.4158,-5.3097,-5.2005,-5.0472,-4.9944,-4.9944,-4.9944,-4.9944,-4.9944,-4.9944,-4.9944,-4.9944,-4.9944,-4.9224,-4.814,-4.6535,-4.4565,-4.22,-3.894,-3.7362,-3.6162,-3.4573,-3.4177,-3.4177,-3.4177,-3.4177,-3.4177,-3.4177,-3.4177,-3.4177,-3.4177,-3.333,-3.1968,-3.0176,-2.9023,-2.7355,-2.4522,-2.4215,-2.3793,-2.2745,-2.2011,-2.1063,-2.0014,-1.8324,-1.7497,-1.789,-1.8077,-1.8374,-1.867,-1.8947,-1.9092,-1.9092,-1.9092,-1.9092,-1.9092,-1.9092,-1.9092,-5.4019,-5.4777,-5.5293,-5.5293,-5.7046,-5.8147,-5.5587,-5.6284,-5.6823,-5.4174,-5.365,-5.4057,-5.5346,-5.6654,-5.8748,-6.2587,-6.4274,-6.6601,-7.0934,-7.1545,-7.265,-7.5646,-7.5165,-7.4568,-7.4549,-7.3208,-7.2519,-7.2909,-7.1886,-7.0794,-6.9715,-6.8219,-6.6525,-6.4353,-6.4388,-6.4388,-6.4388,-6.4388,-6.4388,-6.4388,-6.4388,-6.262,-5.9619,-6.284,-6.2547,-5.9692,-6.2913,-6.2474,-5.9585,-6.1191,-5.9959,-5.7229,-5.8834,-5.893,-5.805,-5.6448,-5.4957,-5.3465,-5.1745,-5.0661,-4.9944,-4.9944,-4.9944,-4.9944,-4.9944,-4.9944,-4.9944,-4.9944,-4.9944,-4.9528,-4.774,-4.6649,-4.5165,-4.151,-4.0023,-3.864,-3.6074,-3.5478,-3.5172,-3.4381,-3.4177,-3.4177,-3.4177,-3.4177,-3.4177,-3.4177,-3.4177,-3.3548,-3.1543,-3.1337,-3.0176,-2.7459,-2.7146,-2.7146,-2.7146,-2.5364,-2.3899,-2.2957,-2.0219,-1.8738,-1.9052,-1.8486,-1.8235,-1.8532,-1.8815,-1.9007,-1.9092,-1.9092,-1.9092,-1.9092,-1.9092,-1.9092,-5.616,-5.7313,-5.791,-5.791,-5.8712,-5.8848,-5.6352,-5.6706,-5.6771,-5.4203,-5.365,-5.4086,-5.5375,-5.6654,-5.8777,-6.2587,-6.4274,-6.6019,-6.8666,-6.9073,-7.044,-7.4192,-7.5849,-7.7196,-7.8678,-8.0055,-7.9889,-7.7673,-7.7504,-7.5645,-7.118,-6.8795,-6.6587,-6.4437,-6.4363,-6.4363,-6.4363,-6.4388,-6.4388,-6.4388,-6.4388,-6.262,-5.9667,-6.284,-6.2571,-5.9741,-6.2913,-6.2449,-5.9716,-6.2962,-6.2376,-5.9789,-6.3035,-6.2861,-6.0692,-6.0692,-5.7696,-5.3721,-5.3629,-5.2005,-5.0039,-4.9944,-4.9944,-4.9944,-4.9944,-4.9944,-4.9944,-4.9944,-4.9944,-4.9944,-4.9944,-4.8045,-4.6149,-4.6053,-4.4062,-4.1494,-3.874,-3.8153,-3.7362,-3.4777,-3.4279,-3.4177,-3.4177,-3.4177,-3.4177,-3.4177,-3.4177,-3.4177,-3.4177,-3.4177,-3.3125,-3.0279,-2.9968,-2.9968,-2.9968,-2.9968,-2.8815,-2.6099,-2.3168,-2.1595,-2.1587,-1.9248,-1.8043,-1.8222,-1.8525,-1.8815,-1.9086,-1.9092,-1.9092,-1.9092,-1.9092,-1.9092,-5.4941,-5.6212,-5.791,-5.791,-5.9695,-6.0403,-5.6656,-5.7044,-5.7355,-5.4273,-5.4407,-5.5404,-5.6683,-5.7934,-6.0028,-6.3925,-6.4856,-6.663,-7.0992,-7.1632,-7.2708,-7.5675,-7.7972,-7.7815,-7.3963,-7.5593,-7.594,-7.3638,-7.4997,-7.4494,-7.1135,-7.1693,-7.1035,-6.8627,-6.8549,-6.8549,-6.8549,-6.722,-6.6544,-6.6544,-6.5087,-6.3792,-6.2913,-6.3865,-6.3792,-6.2937,-6.3889,-6.1156,-5.6495,-6.201,-6.1058,-5.6617,-6.2132,-6.3921,-6.303,-6.1318,-5.9803,-5.8116,-5.4775,-5.3189,-5.2284,-5.0472,-4.9944,-4.9944,-4.9944,-4.9944,-4.9944,-4.9944,-4.9944,-4.9944,-4.9944,-4.9433,-4.8331,-4.6535,-4.5456,-4.4176,-4.1494,-3.944,-3.7851,-3.7059,-3.5478,-3.4177,-3.4177,-3.4177,-3.4177,-3.4177,-3.4177,-3.4177,-3.4177,-3.4177,-3.3856,-3.301,-3.2919,-3.2919,-3.2919,-3.113,-2.9553,-2.8815,-2.6099,-2.3688,-2.1693,-2.1068,-1.9888,-1.803,-1.842,-1.8723,-1.8802,-1.8993,-1.9092,-1.9092,-1.9092,-1.9092,-5.6118,-5.6929,-5.8008,-5.8447,-6.0403,-6.1438,-5.8706,-5.8975,-5.9292,-5.7099,-5.6509,-5.7062,-5.9359,-6.0348,-6.2122,-6.6019,-6.5787,-6.6543,-7.0673,-7.1225,-7.2185,-7.4773,-7.6867,-7.7369,-7.5209,-7.5961,-7.6601,-7.6617,-7.7147,-7.6304,-7.3663,-7.4683,-7.3807,-7.0443,-7.0363,-7.0363,-7.0363,-6.9177,-6.8206,-6.7461,-6.6162,-6.5145,-6.4388,-6.4388,-6.4388,-6.4388,-6.4388,-6.1351,-5.6983,-6.2157,-6.1254,-5.7081,-6.2279,-6.4388,-6.4196,-6.2668,-6.1489,-6.0237,-5.7429,-5.5208,-5.3353,-5.1912,-5.1465,-5.1204,-5.0284,-4.9944,-4.9944,-4.9944,-4.9944,-4.9944,-4.9944,-4.9944,-4.9528,-4.8045,-4.7644,-4.6937,-4.4256,-4.2397,-4.0917,-3.9923,-3.7549,-3.5769,-3.5769,-3.4879,-3.4177,-3.4177,-3.4177,-3.4177,-3.4177,-3.4177,-3.4177,-3.4177,-3.4177,-3.4177,-3.4177,-3.2598,-3.1647,-3.1647,-2.9034,-2.6727,-2.4943,-2.4011,-2.282,-2.1257,-2.1572,-2.1805,-2.2185,-2.1131,-2.0717,-2.084,-1.9676,-1.9092,-5.8423,-5.8642,-5.8301,-5.9277,-6.0827,-6.1884,-6.1227,-6.1417,-6.1597,-6.103,-5.9185,-5.8719,-6.2209,-6.2936,-6.4332,-6.8375,-6.7008,-6.6368,-6.8986,-6.9364,-7.0178,-7.2447,-7.3843,-7.6024,-7.9645,-7.8961,-7.9863,-8.3364,-8.1771,-7.984,-7.8112,-7.7802,-7.5567,-7.1082,-7.0925,-7.0925,-7.0925,-7.0772,-6.9644,-6.7675,-6.7541,-6.6381,-6.4388,-6.4388,-6.4388,-6.4388,-6.4388,-6.2474,-5.9765,-6.2986,-6.2401,-5.9838,-6.3035,-6.4388,-6.4388,-6.4388,-6.2946,-6.0951,-6.0692,-5.7873,-5.4249,-5.3812,-5.3629,-5.3169,-5.1017,-5.0114,-4.9944,-4.9944,-4.9944,-4.9944,-4.9944,-4.9944,-4.9944,-4.9944,-4.9944,-4.9338,-4.6937,-4.6246,-4.5359,-4.297,-4.0122,-3.8052,-3.8052,-3.5972,-3.4177,-3.4177,-3.4177,-3.4177,-3.4177,-3.4177,-3.4177,-3.4177,-3.4177,-3.4177,-3.4177,-3.4177,-3.4177,-3.4177,-3.175,-3.0176,-2.9968,-2.7564,-2.6182,-2.6159,-2.6208,-2.6627,-2.7529,-2.4766,-2.3625,-2.409,-2.1185,-1.9787,-5.7303,-5.7957,-5.9228,-5.9448,-6.0394,-6.0828,-5.893,-5.9188,-5.9574,-5.853,-5.8632,-5.9156,-5.997,-6.0932,-6.3256,-6.823,-6.8549,-6.9073,-7.1574,-7.1923,-7.2127,-7.265,-7.3843,-7.4948,-7.5791,-7.6576,-7.7798,-7.963,-7.9278,-8.0095,-8.2624,-8.0863,-7.8391,-7.5372,-7.5286,-7.5286,-7.5286,-7.3606,-7.1813,-6.9695,-6.8206,-6.6381,-6.4388,-6.4388,-6.4388,-6.4388,-6.4388,-6.2474,-5.9765,-6.2986,-6.2401,-5.9838,-6.3035,-6.4388,-6.4388,-6.4388,-6.4029,-6.3308,-6.1318,-5.9977,-5.8579,-5.4866,-5.3629,-5.3537,-5.3005,-5.1465,-4.9944,-4.9944,-4.9944,-4.9944,-4.9944,-4.9944,-4.9944,-4.9944,-4.9944,-4.9831,-4.9224,-4.7548,-4.5956,-4.5359,-4.1411,-3.8052,-3.8052,-3.5972,-3.4177,-3.4177,-3.4177,-3.4177,-3.4177,-3.4177,-3.4177,-3.4177,-3.4177,-3.4177,-3.4177,-3.4177,-3.4177,-3.4177,-3.3651,-3.2277,-3.0072,-2.9334,-2.8035,-2.5922,-2.6159,-2.648,-2.7108,-2.6757,-2.6911,-2.7337,-2.6651,-2.5023,-5.6739,-5.7447,-5.8862,-5.9399,-6.0253,-6.124,-6.209,-6.2571,-6.2863,-6.2986,-6.2529,-6.2093,-6.2093,-6.2646,-6.442,-6.8375,-6.9015,-6.9015,-6.9073,-7.1167,-7.2272,-7.108,-7.2592,-7.4686,-7.7158,-7.6925,-7.7843,-8.1026,-8.1259,-8.2056,-8.4061,-8.1811,-7.9281,-7.6693,-7.6564,-7.6564,-7.6564,-7.5558,-7.3899,-7.1785,-6.9799,-6.7809,-6.5778,-6.4755,-6.4388,-6.4388,-6.4388,-6.3352,-6.1937,-6.3596,-6.3304,-6.1986,-6.3645,-6.4388,-6.4388,-6.4388,-6.4388,-6.4196,-6.2837,-6.1684,-6.0237,-5.7784,-5.6984,-5.6806,-5.566,-5.3629,-5.1745,-5.1745,-5.0829,-4.9944,-4.9944,-4.9944,-4.9944,-4.9944,-4.9944,-4.9944,-4.9944,-4.8939,-4.7931,-4.7931,-4.4662,-4.151,-4.0321,-3.7851,-3.5668,-3.4381,-3.4177,-3.4177,-3.4177,-3.4177,-3.4177,-3.4177,-3.4177,-3.4177,-3.4177,-3.4177,-3.4177,-3.4177,-3.4177,-3.3536,-3.2071,-3.1968,-3.1337,-2.9876,-3.0022,-3.0301,-3.0809,-2.9858,-2.9651,-3.0125,-2.898,-2.7453,-5.6666,-5.7203,-5.813,-5.9008,-6.0218,-6.2156,-6.5781,-6.6714,-6.7281,-6.8718,-6.7299,-6.5641,-6.5205,-6.5118,-6.5961,-6.8579,-6.9015,-6.8404,-6.6659,-7.0062,-7.1952,-6.9887,-7.1458,-7.4657,-7.963,-7.8409,-7.9107,-8.348,-8.3422,-8.3073,-8.2841,-8.0706,-7.867,-7.7013,-7.6681,-7.6564,-7.6564,-7.6564,-7.5558,-7.3459,-7.171,-6.9877,-6.7914,-6.5835,-6.4543,-6.4026,-6.4285,-6.407,-6.3499,-6.4143,-6.4388,-6.4388,-6.4388,-6.4388,-6.4388,-6.4388,-6.4388,-6.4388,-6.4388,-6.303,-6.1318,-6.1318,-6.0951,-6.0237,-5.8314,-5.6089,-5.4249,-5.4249,-5.245,-5.0566,-5.0566,-5.0303,-4.9944,-4.9944,-4.9944,-4.9944,-4.9944,-4.9944,-4.9944,-4.9944,-4.7835,-4.5359,-4.3264,-4.0619,-3.7952,-3.5274,-3.4879,-3.4675,-3.4279,-3.4177,-3.4177,-3.4177,-3.4177,-3.4177,-3.4177,-3.4177,-3.4177,-3.4177,-3.4177,-3.4177,-3.4177,-3.4177,-3.4177,-3.4177,-3.4177,-3.4475,-3.498,-3.2912,-3.217,-3.2681,-3.0693,-2.9534,-5.7203,-5.7788,-5.7959,-5.8081,-6.0078,-6.2399,-6.359,-6.5887,-6.7907,-6.8831,-6.8753,-6.7793,-6.5525,-6.5118,-6.5961,-6.8579,-6.9015,-6.9655,-7.1458,-7.2272,-7.2592,-7.2272,-7.2505,-7.4337,-7.8409,-7.9485,-8.0751,-8.2527,-8.0532,-7.8816,-7.761,-7.6227,-7.6286,-7.8234,-7.7187,-7.6564,-7.6564,-7.6564,-7.5558,-7.3459,-7.3238,-7.1963,-6.9927,-6.7968,-6.5476,-6.2898,-6.3932,-6.2718,-6.0375,-6.3133,-6.4388,-6.4388,-6.4388,-6.4388,-6.4388,-6.4388,-6.4388,-6.4388,-6.4388,-6.4112,-6.3837,-6.3837,-6.2389,-6.0606,-6.0237,-5.8579,-5.6716,-5.6716,-5.4957,-5.3189,-5.3189,-5.1559,-4.9944,-4.9944,-4.9944,-4.9944,-4.9944,-4.9944,-4.9944,-4.9944,-4.7835,-4.5956,-4.5649,-4.3378,-4.0703,-3.7952,-3.7563,-3.677,-3.4471,-3.4177,-3.4177,-3.4177,-3.4177,-3.4177,-3.4177,-3.4177,-3.4177,-3.4177,-3.4177,-3.4177,-3.4177,-3.4177,-3.4177,-3.4177,-3.4177,-3.4475,-3.498,-3.461,-3.4836,-3.5506,-3.5616,-3.4164,-5.7077,-5.899,-6.0995,-6.0995,-6.2374,-6.4296,-6.6586,-6.8555,-7.0143,-7.0919,-7.0004,-6.823,-6.5583,-6.3954,-6.4303,-6.8375,-6.7793,-6.82,-7.2156,-7.1516,-7.1167,-7.2563,-7.2708,-7.425,-7.8147,-7.9688,-8.0066,-7.9194,-8.0735,-8.1172,-7.9921,-7.8612,-7.8089,-7.8496,-7.7304,-7.6564,-7.6564,-7.6564,-7.6084,-7.5243,-7.4,-7.2988,-7.2038,-7.0031,-6.8282,-6.6988,-6.7452,-6.6877,-6.5613,-6.5911,-6.6081,-6.5999,-6.4838,-6.4388,-6.4388,-6.4388,-6.4388,-6.4388,-6.4388,-6.4388,-6.4388,-6.4388,-6.356,-6.2753,-6.2753,-6.106,-5.9105,-5.9105,-5.6448,-5.3629,-5.3629,-5.1839,-4.9944,-4.9944,-4.9944,-4.9944,-4.9944,-4.9944,-4.9944,-4.9944,-4.9034,-4.774,-4.6342,-4.5148,-4.3476,-4.0802,-3.914,-3.7664,-3.6567,-3.6365,-3.5871,-3.4381,-3.4177,-3.4177,-3.4177,-3.4177,-3.4177,-3.4177,-3.4177,-3.4177,-3.4177,-3.4177,-3.4177,-3.4177,-3.4177,-3.4306,-3.4579,-3.4579,-3.4878,-3.5449,-3.5371,-3.506,-5.7298,-5.9747,-6.2563,-6.3222,-6.4522,-6.6485,-6.9293,-7.1185,-7.258,-7.3475,-7.2243,-7.0149,-6.7532,-6.5496,-6.5407,-6.9335,-6.8346,-6.8608,-7.3086,-7.2127,-7.14,-7.2592,-7.2708,-7.361,-7.5878,-7.8147,-7.8525,-7.6286,-7.9557,-8.1375,-8.0489,-7.9165,-7.8351,-7.806,-7.7129,-7.6564,-7.6564,-7.6564,-7.6564,-7.6564,-7.4999,-7.432,-7.4219,-7.2113,-7.074,-6.9925,-7.0216,-6.9956,-6.9128,-6.8444,-6.8206,-6.7994,-6.5917,-6.5145,-6.5062,-6.453,-6.4388,-6.4388,-6.4388,-6.4388,-6.4388,-6.4388,-6.4388,-6.4388,-6.4388,-6.303,-6.1575,-6.1575,-5.8666,-5.5389,-5.5389,-5.3608,-5.1633,-5.1017,-5.0923,-5.0755,-5.0114,-4.9944,-4.9944,-4.9944,-4.9944,-4.9338,-4.7435,-4.7033,-4.6149,-4.3574,-4.1411,-4.0138,-4.0138,-3.954,-3.8339,-3.6452,-3.6263,-3.6263,-3.6263,-3.5566,-3.5172,-3.5172,-3.4573,-3.4177,-3.4177,-3.4177,-3.4112,-3.3969,-3.4112,-3.4034,-3.3748,-3.3891,-3.4112,-3.4307,-3.4099,-3.4657,-5.8113,-5.9473,-6.0259,-6.275,-6.5655,-6.823,-6.9641,-7.2286,-7.481,-7.61,-7.6344,-7.5442,-7.2825,-7.2214,-7.2214,-7.2476,-7.2418,-7.329,-7.6024,-7.6245,-7.5355,-7.2999,-7.2708,-7.1865,-6.9713,-7.393,-7.6227,-7.4831,-7.4977,-7.5093,-7.5035,-7.3814,-7.4221,-7.6564,-7.6664,-7.6564,-7.6564,-7.6564,-7.6564,-7.6564,-7.6465,-7.6395,-7.6324,-7.432,-7.1601,-6.8808,-6.9883,-6.866,-6.6174,-6.902,-7.0209,-7.0005,-6.8047,-6.73,-6.7084,-6.5062,-6.4388,-6.4388,-6.4388,-6.4388,-6.4388,-6.4388,-6.4388,-6.4388,-6.4388,-6.428,-6.4112,-6.4112,-6.2304,-6.0323,-6.0323,-5.8579,-5.6179,-5.3975,-5.3445,-5.282,-5.0472,-4.9944,-4.9944,-4.9944,-4.9944,-4.9925,-4.9736,-4.9736,-4.8826,-4.6246,-4.5763,-4.5649,-4.5649,-4.3476,-4.1889,-4.179,-4.179,-4.179,-4.179,-3.9425,-3.7865,-3.7865,-3.5566,-3.4177,-3.4177,-3.4177,-3.4031,-3.3498,-3.4005,-3.3644,-3.2553,-3.3211,-3.3211,-3.2618,-3.3237,-3.3524,-5.8234,-6.0575,-6.3352,-6.4228,-6.658,-6.9012,-7.0342,-7.1469,-7.2592,-7.3872,-7.2854,-7.169,-7.1574,-7.0207,-6.9858,-7.233,-7.1371,-7.1807,-7.6024,-7.3746,-7.2621,-7.4948,-7.233,-7.1283,-7.3668,-7.4773,-7.4802,-7.3494,-7.646,-7.838,-7.838,-7.7158,-7.6518,-7.6564,-7.6564,-7.6564,-7.6564,-7.6564,-7.6564,-7.6564,-7.6564,-7.6564,-7.6564,-7.5771,-7.4882,-7.3814,-7.4157,-7.3772,-7.2666,-7.246,-7.2365,-7.2188,-7.0108,-6.9333,-6.9099,-6.7059,-6.63,-6.63,-6.63,-6.545,-6.4388,-6.4388,-6.4388,-6.4388,-6.4388,-6.4388,-6.4388,-6.4388,-6.2583,-6.0692,-6.0692,-5.893,-5.6895,-5.611,-5.4775,-5.3465,-5.2562,-5.1111,-4.9944,-4.9944,-4.9944,-4.9944,-4.9944,-4.9944,-4.9641,-4.8731,-4.7194,-4.5981,-4.5271,-4.3918,-4.283,-4.2284,-4.2184,-4.2184,-4.2184,-4.1297,-4.0703,-4.0703,-3.9809,-3.8349,-3.6296,-3.6182,-3.511,-3.2885,-3.2982,-3.2878,-3.2476,-3.232,-3.232,-3.2463,-3.193,-3.2281,-5.901,-6.061,-6.2849,-6.4158,-6.6106,-6.8026,-6.9306,-7.0359,-7.1138,-7.1952,-7.1138,-7.0527,-7.1371,-7.012,-6.9887,-7.2883,-7.1981,-7.2243,-7.6082,-7.3726,-7.2505,-7.4937,-7.233,-7.0934,-7.2592,-7.3494,-7.3988,-7.4017,-7.7216,-7.9165,-7.9165,-7.8351,-7.7507,-7.6564,-7.6564,-7.6564,-7.6564,-7.6564,-7.6564,-7.6564,-7.6564,-7.6564,-7.6564,-7.6564,-7.6564,-7.6564,-7.6564,-7.6564,-7.6465,-7.5071,-7.4538,-7.4292,-7.2263,-7.1408,-7.1153,-6.9177,-6.8916,-6.9308,-6.7914,-6.6544,-6.5235,-6.4089,-6.3718,-6.367,-6.3304,-6.3206,-6.3206,-6.3206,-6.2035,-6.0796,-6.0796,-5.959,-5.8286,-5.7488,-5.6117,-5.455,-5.2981,-5.139,-4.998,-4.9258,-4.9073,-4.9073,-4.9073,-4.9073,-4.9073,-4.9073,-4.7723,-4.621,-4.4963,-4.4313,-4.3734,-4.3233,-4.3369,-4.3625,-4.3958,-4.3114,-4.275,-4.2981,-4.1993,-4.0303,-3.8244,-3.8133,-3.6969,-3.4615,-3.4811,-3.4358,-3.3117,-3.2928,-3.2563,-3.1878,-3.1125,-3.1385,-6.0467,-5.9475,-5.8574,-6.2267,-6.4246,-6.5556,-6.6778,-6.9049,-7.0854,-7.0825,-7.169,-7.2563,-7.2592,-7.2592,-7.3028,-7.4366,-7.457,-7.5035,-7.6373,-7.6535,-7.5675,-7.3145,-7.2767,-7.076,-6.5787,-6.9829,-7.3814,-7.6245,-7.6547,-7.6535,-7.6693,-7.6564,-7.6564,-7.6564,-7.6564,-7.6564,-7.6564,-7.6564,-7.6564,-7.6564,-7.6564,-7.6564,-7.6564,-7.6564,-7.6564,-7.6564,-7.6564,-7.6564,-7.6564,-7.6564,-7.6564,-7.6395,-7.4393,-7.3533,-7.3312,-7.1223,-7.1676,-7.2803,-6.8916,-6.7438,-6.6778,-6.3678,-6.2571,-6.2376,-6.1327,-6.101,-6.101,-6.101,-6.101,-6.101,-6.101,-6.101,-6.0428,-5.8155,-5.7582,-5.6299,-5.1829,-5.0808,-5.0021,-4.7828,-4.7381,-4.7381,-4.7381,-4.7381,-4.7381,-4.7381,-4.7343,-4.6628,-4.4999,-4.4828,-4.4885,-4.5112,-4.573,-4.6527,-4.7324,-4.5072,-4.3927,-4.4679,-4.1653,-3.9874,-3.9781,-3.9781,-3.9446,-3.8727,-3.9305,-3.7895,-3.4556,-3.5,-3.3784,-3.0946,-3.0854,-3.0867,-5.8603,-6.0057,-6.1889,-6.2936,-6.5649,-6.7863,-6.7226,-6.8391,-6.911,-6.7136,-6.7735,-6.8898,-6.9858,-7.0033,-7.0731,-7.2912,-7.3261,-7.3697,-7.4977,-7.5995,-7.6274,-7.5577,-7.3872,-7.1836,-6.9538,-7.2214,-7.4017,-7.3814,-7.4657,-7.5995,-7.7914,-7.7129,-7.6564,-7.6564,-7.6564,-7.6564,-7.6564,-7.6564,-7.6564,-7.6564,-7.6564,-7.6564,-7.6564,-7.6564,-7.6564,-7.6564,-7.6564,-7.6564,-7.6564,-7.6564,-7.6564,-7.6535,-7.5942,-7.57,-7.547,-7.2987,-7.1508,-7.0661,-6.9557,-6.7223,-6.4609,-6.3709,-6.2564,-6.14,-6.1107,-6.101,-6.101,-6.101,-6.101,-6.101,-6.101,-6.101,-6.0851,-6.0245,-5.8748,-5.6942,-5.4987,-5.2013,-4.9346,-4.7937,-4.6685,-4.5692,-4.5692,-4.5673,-4.5673,-4.5692,-4.4667,-4.3509,-4.2346,-4.3275,-4.4344,-4.5036,-4.5321,-4.5445,-4.5567,-4.5067,-4.4967,-4.5765,-4.4957,-4.365,-4.1923,-4.1923,-4.0737,-3.8187,-3.8274,-3.7925,-3.6936,-3.7108,-3.6749,-3.5847,-3.418,-3.3391,-5.8518,-5.9344,-6.0778,-6.1345,-6.3683,-6.5623,-6.4736,-6.6521,-6.7751,-6.5571,-6.6113,-6.7301,-6.8037,-6.8196,-6.884,-7.0847,-7.2039,-7.3174,-7.4453,-7.5791,-7.6564,-7.6564,-7.4308,-7.2447,-7.1749,-7.297,-7.3319,-7.2069,-7.361,-7.5064,-7.6053,-7.6431,-7.6564,-7.6564,-7.6564,-7.6564,-7.6564,-7.6564,-7.6564,-7.6564,-7.6564,-7.6564,-7.6564,-7.6564,-7.6564,-7.6564,-7.6564,-7.6564,-7.6564,-7.6564,-7.6286,-7.5791,-7.5791,-7.5471,-7.4802,-7.329,-7.201,-7.0892,-7.0103,-6.7725,-6.4822,-6.3556,-6.1907,-6.0302,-5.9863,-5.9716,-5.9716,-5.9716,-5.9716,-5.9716,-5.9716,-5.9716,-5.9716,-5.9716,-5.8293,-5.6575,-5.5085,-5.2405,-4.9818,-4.8308,-4.6474,-4.5208,-4.5208,-4.4506,-4.3717,-4.3096,-4.2164,-4.1288,-4.0794,-4.1572,-4.237,-4.2944,-4.3001,-4.3205,-4.3907,-4.3983,-4.4344,-4.516,-4.4894,-4.4093,-4.2779,-4.2694,-4.19,-4.035,-4.035,-4.0055,-3.9382,-3.9382,-3.8854,-3.7898,-3.6489,-3.64,-5.9159,-5.7765,-5.7415,-5.8892,-6.0473,-6.1609,0.0,-6.4203,-6.6592,-6.5004,-6.5699,-6.6561,-6.6561,-6.6735,-6.7201,-6.8362,-7.0487,-7.2529,-7.3852,-7.5151,-7.6035,-7.6352,-7.4355,-7.2886,-7.277,-7.2571,-7.2069,-7.1022,-7.3086,-7.3988,-7.297,-7.5268,-7.6431,-7.5925,-7.6582,-7.6652,-7.6214,-7.6831,-7.7134,-7.7134,-7.6926,-7.6885,-7.6856,-7.6676,-7.6564,-7.6564,-7.6564,-7.6564,-7.6535,-7.639,-7.5617,-7.4424,-7.4424,-7.3552,-7.2301,-7.2301,-7.2301,-7.2036,-7.033,-6.8439,-6.6309,-6.3338,-6.1055,-5.9437,-5.8279,-5.7739,-5.7544,-5.7544,-5.7373,-5.7251,-5.7495,-5.7544,-5.7569,-5.7691,-5.6959,-5.5616,-5.3507,-5.2168,-5.0764,-4.8653,-4.6491,-4.5029,-4.5029,-4.3508,-4.1743,-4.0282,-4.0053,-4.0053,-4.0053,-4.0053,-4.0053,-4.0053,-4.0053,-4.0662,-4.2123,-4.2256,-4.2616,-4.3433,-4.2806,-4.2446,-4.254,-4.254,-4.2882,-4.3604,-4.3623,-4.2927,-4.1575,-4.1575,-4.0487,-3.8563,-3.8299,-3.944,0.0,0.0,0.0,0.0,0.0,0.0,0.0,-6.4051,-6.4806,-6.234,-6.2782,-6.361,-6.361,-6.4675,-6.5525,-6.5706,-6.7054,-6.8635,-6.9933,-7.1225,-7.2836,-7.5077,-7.4881,-7.4128,-7.3085,-7.1943,-7.1167,-7.0934,-7.2272,-7.3435,-7.4221,-7.5762,-7.521,-7.2127,-7.6346,-7.7133,-7.3959,-7.8368,-8.0626,-8.0626,-7.9294,-7.8593,-7.8593,-7.7243,-7.6564,-7.6564,-7.6564,-7.6564,-7.6547,-7.5471,-7.425,-7.3086,-7.3086,-7.172,-6.9742,-6.9742,-6.9742,-6.9678,-6.9264,-6.7884,-6.5885,-6.3786,-6.1899,-6.0067,-5.8436,-5.669,-5.5275,-5.5275,-5.403,-5.3172,-5.4835,-5.5275,-5.5494,-5.6275,-5.6324,-5.5618,-5.3488,-5.1688,-5.0036,-4.8758,-4.5674,-4.3273,-4.3273,-4.1761,-4.0453,-4.011,-4.0053,-4.0053,-4.0053,-4.0053,-4.0053,-4.0053,-4.0053,-4.0186,-4.0529,-4.0548,-4.0832,-4.1626,-4.1532,-4.1838,-4.2522,-4.254,-4.2616,-4.2787,-4.2787,-4.2682,-4.2326,-4.2326,-4.2415,-4.2508,-4.0683,-4.1022,0.0,0.0,0.0,0.0,0.0,0.0,0.0,0.0,0.0,0.0,0.0,-6.2873,-6.2873,0.0,-6.5104,-6.5058,-6.727,-6.9271,-6.9853,-7.1715,-7.3043,-7.316,-7.3835,-7.4005,-7.3331,-7.2649,-7.1894,-7.1123,-7.2906,-7.4318,-7.4887,-7.484,-7.4201,-7.3006,-7.5652,-7.6114,-7.416,-7.9156,-8.1637,-8.1637,-8.0818,-8.037,-8.0339,-7.9491,-7.8623,-7.7871,-7.7871,-7.697,-7.5559,-7.489,-7.3523,-7.1814,-7.1894,-7.0703,-6.8869,-6.7561,-6.7881,-6.884,-6.7532,-6.6635,-6.5917,-6.502,-6.2897,-6.0465,-5.9521,-5.7868,-5.6275,-5.6275,-5.5494,-5.4787,-5.5299,-5.5421,-5.5421,-5.5421,-5.5031,-5.4347,-5.3343,-5.1855,-5.0685,-5.0185,-4.7656,-4.5352,-4.4418,-4.3496,-4.2858,-4.2858,-4.2858,-4.2858,-4.2858,-4.2858,-4.3279,-4.4425,-4.2593,-4.2174,-4.4288,-4.2552,-4.1887,-4.3375,-4.2523,-4.2191,-4.2643,-4.1775,-4.1458,-4.1895,-4.1914,-4.2123,-4.254,-4.254,-4.2749,-4.3148,-4.1521,-4.1639,0.0,0.0,0.0,0.0,0.0,0.0,0.0,0.0,0.0,0.0,0.0,0.0,0.0,0.0,0.0,-6.4697,-6.7589,-6.9921,-7.0178,-7.2822,-7.4045,-7.2012,-7.3043,-7.3879,-7.3879,-7.3656,-7.298,-7.1676,-7.4229,-7.5824,-7.5683,-7.4975,-7.4791,-7.5158,-7.6256,-7.6462,-7.5651,-8.0307,-8.2622,-8.2622,-8.2255,0.0,-8.2132,-8.1823,-8.045,-7.8341,-7.8594,-7.6923,-7.3925,-7.4226,-7.3179,-7.1374,-7.1202,-7.0482,-6.9133,-6.6752,-6.7212,-6.8724,-6.6601,-6.6194,-6.6567,-6.6209,-6.4139,-6.1631,-6.1301,-5.9848,0.0,-5.8384,-5.7644,-5.6784,-5.6219,-5.5733,-5.5128,-5.4469,-5.3664,-5.305,-5.283,-5.1779,-5.1021,-5.1412,-4.9622,-4.757,-4.6444,-4.5897,-4.5313,-4.4524,-4.4459,-4.4459,-4.4459,-4.4784,-4.5774,-4.7562,-4.4985,-4.4615,-4.8022,-4.4811,-4.3479,-4.5528,-4.3792,-4.2741,-4.2741,-4.1328,-4.0606,-4.0825,-4.0845,-4.1424,-4.2531,-4.2161,-4.2254,-4.2854,-4.1485,-4.1331,0.0,0.0,0.0,0.0,0.0,0.0,0.0,0.0,0.0,0.0,0.0,0.0,0.0,0.0,0.0,0.0,-6.4682,-6.6247,-6.7475,-7.1244,-7.3737,-7.3443,-7.4554,-7.5367,-7.5367,-7.4179,-7.3376,-7.3207,-7.5767,-7.7317,-7.7294,-7.9431,0.0,0.0,0.0,-8.1448,-7.8002,-8.3418,-8.6164,-8.6076,-8.4587,-8.3855,-8.3855,-8.2317,-7.9371,-7.5582,-7.6865,-7.5048,-7.1318,-7.2701,-7.3125,-7.2735,-7.1566,-7.1055,-7.0695,-6.917,-6.8753,-6.8986,-6.8666,0.0,0.0,-6.6632,-6.5784,-6.5155,-6.359,-6.1662,-6.0005,-6.0005,-5.6761,-5.3696,-5.5413,-5.397,-5.2268,-5.3005,-5.3127,-5.2854,-5.1877,-5.0028,-4.9174,-5.1119,-4.8346,-4.6257,-4.8006,-4.6609,-4.4129,-4.0533,-3.9977,-3.9977,-3.9977,-4.1721,-4.2999,-4.3284,-4.4502,0.0,-4.6013,-4.389,-4.3479,-4.5528,-4.3705,-4.2575,-4.2575,-4.2371,-4.1423,-3.9527,-3.9485,-4.0503,-4.2555,-4.0847,-4.1372,-4.3866,-4.0878,-4.0047,0.0,0.0,0.0,0.0,0.0,0.0,0.0,0.0,0.0,0.0,0.0,0.0,0.0,0.0,0.0,0.0,-6.4783,-6.6461,-6.7084,-7.0189,-7.2729,-7.3584,-7.5631,-7.6996,-7.6996,-7.6455,-7.5695,-7.4779,-7.7444,-7.9057,-7.9071,-7.9307,-7.916,-7.8323,-8.0582,-8.1032,-7.9365,-8.422,-8.6724,-8.6724,-8.5965,-8.5653,-8.5597,-8.4907,-8.2592,-7.9139,-7.9745,-7.7539,-7.3545,-7.4183,-7.3997,-7.3347,0.0,0.0,0.0,0.0,-6.9711,-6.8811,-6.727,-6.7764,-6.8743,-6.7181,-6.5911,-6.4772,-6.324,-6.1368,-5.9801,-5.9801,-5.8304,-5.6472,-5.5783,-5.4669,-5.3478,-5.2465,-5.217,-5.2048,-5.1608,-5.0801,-5.0435,-5.1339,-5.0067,0.0,-5.015,-4.9553,-4.8317,-4.6613,-4.6408,-4.6408,-4.6408,-4.7177,-4.8247,-4.9437,-4.8132,-4.8202,-5.0627,-4.7806,0.0,0.0,0.0,-4.7243,-4.6136,-4.6068,0.0,0.0,0.0,-4.1656,-4.2588,-4.0479,0.0,0.0,-4.0965,-3.953,0.0,0.0,0.0,0.0,0.0,0.0,0.0,0.0,0.0,0.0,0.0,0.0,0.0,0.0,0.0,0.0,-6.455,-6.5898,-6.5898,-6.9156,-7.1952,-7.2959,-7.5999,-7.794,-7.794,-7.794,-7.7512,-7.6371,-7.8619,-8.0112,-8.0054,-7.9468,-7.9798,-8.1244,-8.1277,-8.1475,-8.1902,-8.5058,-8.6724,-8.6724,-8.6724,-8.6724,-8.6691,-8.6209,-8.4191,-8.0924,-8.089,-7.8415,-7.4341,-7.5149,-7.4923,-7.4211,-7.5208,-7.4994,-7.3792,-7.1852,-7.0452,-6.9173,-6.6171,-6.6368,-6.7677,-6.599,-6.4792,-6.3804,-6.2442,-6.1321,-6.0419,-6.0091,-5.991,-5.9281,-5.6925,-5.5993,-5.5164,-5.3302,-5.2865,-5.2734,-5.2233,-5.1721,-5.1343,-5.1521,-5.151,-5.1622,-5.1867,-5.1574,-5.1077,-5.0482,-5.0383,-5.0191,-4.9791,-5.0239,-5.115,-5.2712,-5.0614,-5.0394,-5.3493,-5.037,-4.9149,-5.1364,-5.0948,-5.0254,-4.943,-4.8777,-4.784,-4.6405,-4.4316,-4.3512,0.0,0.0,0.0,0.0,0.0,0.0,0.0,0.0,0.0,0.0,0.0,0.0,0.0,0.0,0.0,0.0,0.0,0.0,0.0,0.0,0.0,0.0,0.0,0.0,-6.2905,-6.7905,-7.1557,-7.159,-7.5374,-7.794,-7.794,-7.794,-7.794,-7.7891,-7.9272,-8.0076,-8.0109,-8.1376,-8.2757,-8.4151,-8.4216,-8.4993,-8.6494,-8.6625,-8.6724,-8.6724,-8.6724,-8.6724,-8.6658,-8.5124,-8.2113,-7.8055,-7.8063,-7.5535,-7.1702,-7.447,-7.5558,-7.5578,-7.5578,-7.5578,-7.5176,-7.2229,-7.1114,-7.0515,-6.6472,-6.5176,-6.4798,-6.2239,-6.2182,-6.2966,-6.1689,-6.2096,-6.2821,-6.1517,-6.0882,-6.0349,-5.9114,-5.7587,-5.628,-5.6253,-5.6191,-5.5758,-5.4107,-5.2222,-5.0895,-5.1401,-5.151,-5.1863,-5.2822,-5.1799,-5.0032,-4.7883,-4.7548,0.0,-4.5323,-4.6965,-4.833,-4.8379,-5.0174,-5.1437,-5.1583,-4.9515,-4.9149,-5.1364,-4.9491,-4.9271,-5.1346,-4.9378,-4.8218,-4.8155,-4.5932,-4.5859,-4.8034,0.0,0.0,0.0,0.0,0.0,0.0,0.0,0.0,0.0,0.0,0.0,0.0,0.0,0.0,0.0,0.0,0.0,0.0,0.0,0.0,0.0,0.0,0.0,0.0,-6.6129,-6.932,-7.1294,-7.2807,-7.4091,-7.4997,-7.5096,-7.5096,-7.5096,-7.822,-8.0094,-8.0094,-8.1442,-8.2428,-8.2921,-8.2954,-8.3184,-8.371,-8.3763,-8.4204,-8.5157,-8.5157,-8.5157,-8.5157,-8.4578,-8.2508,-7.9353,-7.9374,-7.7995,-7.5811,-7.6756,-7.718,-7.7082,-7.6137,-7.5115,-7.3951,-7.2026,-7.0698,-6.9384,-6.62,-6.5126,-6.4568,-6.1061,-6.0261,-6.0377,-5.9156,-5.9097,-5.933,-5.8894,-5.8659,-5.8398,-5.7751,-5.6532,-5.5426,-5.5154,-5.4399,-5.3846,-5.4187,-5.2762,-5.213,-5.4279,-5.3344,-5.226,-5.2624,-5.3647,-5.3646,-5.1147,-5.2269,-5.3156,-5.2555,-5.3138,-5.3607,-5.3607,-5.4311,-5.4717,-5.4717,-5.4077,-5.3972,-5.4665,-5.4051,-5.3972,-5.4691,-5.4025,-5.3074,-5.1925,-5.0525,-4.8562,-4.597,0.0,0.0,0.0,0.0,0.0,0.0,0.0,0.0,0.0,0.0,0.0,0.0,0.0,0.0,0.0,0.0,0.0,0.0,0.0,0.0,0.0,0.0,0.0,0.0,0.0,0.0,-7.0394,-7.2071,0.0,-7.2893,-7.3386,-7.3255,-7.2124,-7.4622,-7.6674,-7.7759,-7.868,-7.9864,-8.1409,-8.1475,-8.1672,-8.2198,-8.2198,-8.2428,-8.2836,-8.2836,-8.2836,-8.2856,-8.2278,-8.1376,-8.0061,-7.9535,-7.8779,-7.7874,-7.6854,-7.6459,-7.6214,-7.4241,-7.2825,-7.1687,-6.9195,-6.8072,-6.7288,-6.4053,-6.2952,-6.2579,-5.9625,-5.8021,-5.7049,-5.5732,-5.5406,-5.5418,-5.535,-5.6079,-5.6678,-5.5982,-5.5854,-5.5835,-5.5586,-5.4889,-5.4471,-5.5186,-5.373,-5.3466,-5.736,-5.5093,-5.2894,-5.4085,-5.5146,-5.5015,-5.24,-5.4223,-5.5653,-5.5087,-5.5778,-5.6376,-5.6376,-5.6376,-5.6376,-5.6376,-5.6376,-5.6376,-5.6376,-5.6376,-5.6376,-5.6376,-5.6376,-5.5607,-5.4118,-5.2521,-4.9875,0.0,0.0,0.0,0.0,0.0,0.0,0.0,0.0,0.0,0.0,0.0,0.0,0.0,0.0,0.0,0.0,0.0,0.0,0.0,0.0,0.0,0.0,0.0,0.0,0.0,0.0,0.0,-6.8904,-7.2729,0.0,0.0,0.0,0.0,-6.92,-6.9134,-7.0416,-7.3321,-7.3452,-7.5326,-7.9403,-7.9633,-8.0324,-8.1672,-8.1738,-8.1146,-7.9864,-7.9864,-7.9864,-7.9831,-7.8433,-7.8581,-7.9699,-7.8335,-7.7742,-7.7512,-7.4683,-7.3498,-7.3202,-7.0351,-6.91,-6.8423,-6.4276,-6.3686,-6.4284,-6.0209,-5.8995,-5.9075,-5.7935,-5.5803,-5.3453,-5.2056,-5.1714,0.0,0.0,-5.3279,-5.5076,-5.3941,-5.5454,-5.7288,-5.7434,-5.7463,-5.7359,-5.7077,-5.492,-5.4656,-6.0015,-5.6456,-5.3501,-5.6618,0.0,-5.4081,-5.1461,-5.3384,-5.4588,-5.2978,-5.4992,-5.6622,-5.6622,-5.6622,-5.6622,-5.6622,-5.6622,-5.6622,-5.6622,-5.6622,-5.6595,-5.6541,-5.6541,-5.5799,-5.433,-5.1769,0.0,0.0,0.0,0.0,0.0,0.0,0.0,0.0,0.0,0.0,0.0,0.0,0.0,0.0,0.0,0.0,0.0,0.0,0.0,0.0,0.0,0.0,0.0,0.0,0.0,0.0,-6.4018,-6.6021,-6.7435,-6.7665,-6.7402,0.0,0.0,0.0,0.0,0.0,0.0,-7.0284,-7.0317,-7.0843,-7.1927,-7.309,-7.3926,-7.4288,-7.5326,-7.6214,-7.6904,-7.6904,-7.6904,-7.6904,-7.6543,-7.5984,-7.5293,-7.4932,-7.4767,-7.4584,-7.2396,-7.1343,-7.1092,-7.0075,-6.7866,-6.5061,-6.2891,-6.1958,-6.1381,-5.8326,-5.8057,-5.8801,-5.7636,-5.6062,-5.4761,-5.5449,0.0,0.0,0.0,0.0,-5.2588,-5.3407,-5.3417,-5.3708,-5.5607,-5.6073,-5.6318,-5.7194,-5.5116,-5.4149,-5.7784,-5.5734,-5.3044,-5.1916,-5.3016,0.0,-5.0534,-5.4007,-5.675,-5.6317,-5.8431,-5.9999,-5.9999,-5.9999,-5.9999,-5.9999,-5.9999,-5.9999,-5.9999,-5.9999,-5.9571,-5.8573,-5.8545,-5.6483,-5.2022,0.0,0.0,0.0,0.0,0.0,0.0,0.0,0.0,0.0,0.0,0.0,0.0,0.0,0.0,0.0,0.0,0.0,0.0,0.0,0.0,0.0,0.0,0.0,0.0,0.0,0.0,0.0,-6.2139,-6.358,-6.5014,-6.5048,-6.4412,0.0,0.0,0.0,0.0,0.0,0.0,0.0,0.0,0.0,-6.8312,-6.9221,-6.9483,-6.9183,-7.1229,-7.2134,-7.1973,-7.3288,-7.3959,-7.3959,-7.3959,-7.3847,-7.3617,-7.2256,-7.1253,-7.0414,-6.9209,-6.8873,-6.8814,0.0,0.0,0.0,0.0,-5.7935,-5.7529,-5.5542,-5.5761,-5.6854,-5.566,0.0,0.0,0.0,0.0,0.0,0.0,0.0,-5.234,-5.3266,-5.3845,-5.4619,-5.6073,-5.5549,-5.5375,-5.7789,-5.5526,-5.36,-5.574,-5.4055,-5.1848,-5.0355,-5.134,0.0,0.0,0.0,-5.6481,-5.6481,-5.925,-6.1252,-6.1252,-6.1252,-6.1502,-6.2108,-6.1614,-6.1502,-6.2108,-6.1058,-5.9726,-5.8249,-5.8876,-5.6574,0.0,0.0,0.0,0.0,0.0,0.0,0.0,0.0,0.0,0.0,0.0,0.0,0.0,0.0,0.0,0.0,0.0,0.0,0.0,0.0,0.0,0.0,0.0,0.0,0.0,0.0,0.0,0.0,0.0,-6.099,-6.2337,0.0,0.0,0.0,0.0,0.0,0.0,0.0,0.0,0.0,0.0,0.0,0.0,0.0,-6.6187,-6.569,-6.8133,-6.8405,-6.6558,-6.9127,-7.0393,-7.0393,-7.0393,-7.1033,-7.2021,-6.992,0.0,-6.6413,-6.6083,0.0,0.0,0.0,0.0,0.0,0.0,0.0,0.0,0.0,0.0,0.0,0.0,0.0,0.0,0.0,0.0,0.0,0.0,0.0,0.0,0.0,0.0,-5.6555,-5.6884,-5.5201,-5.4566,-5.8151,-5.5572,-5.2822,-5.3755,-5.1949,-5.0148,0.0,0.0,0.0,0.0,0.0,0.0,-5.5205,-5.8892,-6.1415,-6.124,-6.1523,-6.2183,-6.326,-6.2371,-6.2238,-6.326,-6.0768,-5.8368,-5.6525,-5.7588,0.0,0.0,0.0,0.0,0.0,0.0,0.0,0.0,0.0,0.0,0.0,0.0,0.0,0.0,0.0,0.0,0.0,0.0,0.0,0.0,0.0,0.0,0.0,0.0,0.0,0.0,0.0,0.0,0.0,0.0,0.0,0.0,0.0,0.0,0.0,0.0,0.0,0.0,0.0,0.0,0.0,0.0,0.0,0.0,0.0,0.0,0.0,0.0,0.0,0.0,-6.4079,-6.4316,-6.4316,-6.4316,-6.4129,-6.4048,-6.6871,-6.7342,-6.6094,-6.5262,0.0,0.0,0.0,0.0,0.0,0.0,0.0,0.0,0.0,0.0,0.0,0.0,0.0,0.0,0.0,0.0,0.0,0.0,0.0,0.0,0.0,0.0,-5.1259,-5.3213,-5.3491,-5.4019,-5.649,0.0,0.0,0.0,0.0,0.0,0.0,0.0,0.0,0.0,0.0,0.0,-5.5205,-5.9757,-6.2497,-6.1226,-6.3213,-6.4192,-6.3263,-6.4058,-6.4192,-6.3263,-6.046,-5.7637,0.0,0.0,0.0,0.0,0.0,0.0,0.0,0.0,0.0,0.0,0.0,0.0,0.0,0.0,0.0,0.0,0.0,0.0,0.0,0.0,0.0,0.0,0.0,0.0,0.0,0.0,0.0,0.0,0.0,0.0,0.0,0.0,0.0,0.0,0.0,0.0,0.0,0.0,0.0,0.0,0.0,0.0,0.0,0.0,0.0,0.0,0.0,0.0,0.0,0.0,0.0,0.0,0.0,0.0,0.0,0.0,0.0,0.0,-6.4449,-6.3357,0.0,0.0,0.0,0.0,0.0,0.0,0.0,0.0,0.0,0.0,0.0,0.0,0.0,0.0,0.0,0.0,0.0,0.0,0.0,0.0,0.0,0.0,0.0,0.0,0.0,0.0,0.0,0.0,0.0,0.0,0.0,0.0,0.0,0.0,0.0,0.0,0.0,0.0,0.0,0.0,-5.6805,-6.0726,-6.3062,-6.2228,-6.3406,-6.3886,-6.3107,-6.3764,-6.3262,-6.1016,-5.8917,0.0,0.0,0.0,0.0,0.0,0.0,0.0,0.0,0.0,0.0,0.0,0.0,0.0,0.0,0.0,0.0,0.0,0.0,0.0,0.0,0.0,0.0,0.0,0.0,0.0,0.0,0.0,0.0,0.0,0.0,0.0,0.0,0.0,0.0,0.0,0.0,0.0,0.0,0.0,0.0,0.0,0.0,0.0,0.0,0.0,0.0,0.0,0.0,0.0,0.0,0.0,0.0,0.0,0.0,0.0,0.0,0.0,0.0,0.0,-6.3389,-6.0603,0.0,0.0,0.0,0.0,0.0,0.0,0.0,0.0,0.0,0.0,0.0,0.0,0.0,0.0,0.0,0.0,0.0,0.0,0.0,0.0,0.0,0.0,0.0,0.0,0.0,0.0,0.0,0.0,0.0,0.0,0.0,0.0,0.0,0.0,0.0,0.0,0.0,0.0,0.0,0.0,-5.7877,-6.1173,-6.313,-6.2715,-6.3219,-6.3525,-6.3382,-6.3473,-6.2278,-5.9328,-5.7356,0.0,0.0,0.0,0.0,0.0,0.0,0.0,0.0,0.0,0.0,0.0,0.0,0.0,0.0,0.0,0.0,0.0,0.0,0.0,0.0,0.0,0.0,0.0,0.0,0.0,0.0,0.0,0.0,0.0,0.0,0.0,0.0,0.0,0.0,0.0,0.0,0.0,0.0,0.0,0.0,0.0,0.0,0.0,0.0,0.0,0.0,0.0,0.0,0.0,0.0,0.0,0.0,0.0,0.0,0.0,0.0,0.0,0.0,0.0,0.0,0.0,0.0,0.0,0.0,0.0,0.0,0.0,0.0,0.0,0.0,0.0,0.0,0.0,0.0,0.0,0.0,0.0,0.0,0.0,0.0,0.0,0.0,0.0,0.0,0.0,0.0,0.0,0.0,0.0,0.0,0.0,0.0,0.0,0.0,0.0,0.0,0.0,0.0,0.0,0.0,0.0,-5.6358,-6.0359,-6.251,-6.1166,-6.3295,-6.4746,-6.4772,-6.4746,-6.3535,-6.064,0.0,0.0,0.0,0.0,0.0,0.0,0.0,0.0,0.0,0.0,0.0,0.0,0.0,0.0,0.0,0.0,0.0,0.0,0.0,0.0,0.0,0.0,0.0,0.0,0.0,0.0,0.0,0.0,0.0,0.0,0.0,0.0,0.0,0.0,0.0,0.0,0.0,0.0,0.0,0.0,0.0,0.0,0.0,0.0,0.0,0.0,0.0,0.0,0.0,0.0,0.0,0.0,0.0,0.0,0.0,0.0,0.0,0.0,0.0,0.0,0.0,0.0,0.0,0.0,0.0,0.0,0.0,0.0,0.0,0.0,0.0,0.0,0.0,0.0,0.0,0.0,0.0,0.0,0.0,0.0,0.0,0.0,0.0,0.0,0.0,0.0,0.0,0.0,0.0,0.0,0.0,0.0,0.0,0.0,0.0,0.0,0.0,0.0,0.0,0.0,0.0,0.0,-5.7244,-6.0769,-6.2697,-6.2108,-6.2986,-6.3621,-6.3621,-6.3621,-6.1648,-5.698,0.0,0.0,0.0,0.0,0.0,0.0,0.0,0.0,0.0,0.0,0.0,0.0,0.0,0.0,0.0,0.0,0.0,0.0,0.0,0.0,0.0,0.0,0.0,0.0,0.0,0.0,0.0,0.0,0.0,0.0,0.0,0.0,0.0,0.0,0.0,0.0,0.0,0.0,0.0,0.0,0.0,0.0,0.0,0.0,0.0,0.0,0.0,0.0,0.0,0.0,0.0,0.0,0.0,0.0,0.0,0.0,0.0,0.0,0.0,0.0,0.0,0.0,0.0,0.0,0.0,0.0,0.0,0.0,0.0,0.0,0.0,0.0,0.0,0.0,0.0,0.0,0.0,0.0,0.0,0.0,0.0,0.0,0.0,0.0,0.0,0.0,0.0,0.0,0.0,0.0,0.0,0.0,0.0,0.0,0.0,0.0,0.0,0.0,0.0,0.0,0.0,0.0,-5.802,-6.1092,-6.2916,-6.2825,-6.3168,-6.3391,-6.3391,-6.3036,-6.0546,-5.5282,0.0,0.0,0.0,0.0,0.0,0.0,0.0,0.0,0.0,0.0,0.0,0.0,0.0,0.0,0.0,0.0,0.0,0.0,0.0,0.0,0.0,0.0,0.0,0.0,0.0,0.0,0.0,0.0,0.0,0.0,0.0,0.0,0.0,0.0,0.0,0.0,0.0,0.0,0.0,0.0,0.0,0.0,0.0,0.0,0.0,0.0,0.0,0.0,0.0,0.0,0.0,0.0,0.0,0.0,0.0,0.0,0.0,0.0,0.0,0.0,0.0,0.0,0.0,0.0,0.0,0.0,0.0,0.0,0.0,0.0,0.0,0.0,0.0,0.0,0.0,0.0,0.0,0.0,0.0,0.0,0.0,0.0,0.0,0.0,0.0,0.0,0.0,0.0,0.0,0.0,0.0,0.0,0.0,0.0,0.0,0.0,0.0,0.0,0.0,0.0,0.0,0.0,-5.8094,-6.1024,-6.2806,-6.2773,-6.4049,-6.4904,-6.4904,-6.3588,-6.1168,0.0,0.0,0.0,0.0,0.0,0.0,0.0,0.0,0.0,0.0,0.0,0.0,0.0,0.0,0.0,0.0,0.0,0.0,0.0,0.0,0.0,0.0,0.0,0.0,0.0,0.0,0.0,0.0,0.0,0.0,0.0,0.0,0.0,0.0,0.0,0.0,0.0,0.0,0.0,0.0,0.0,0.0,0.0,0.0,0.0,0.0,0.0,0.0,0.0,0.0,0.0,0.0,0.0,0.0,0.0,0.0,0.0,0.0,0.0,0.0,0.0,0.0,0.0,0.0,0.0,0.0,0.0,0.0,0.0,0.0,0.0,0.0,0.0,0.0,0.0,0.0,0.0,0.0,0.0,0.0,0.0,0.0,0.0,0.0,0.0,0.0,0.0,0.0,0.0,0.0,0.0,0.0,0.0,0.0,0.0,0.0,0.0,0.0,0.0,0.0,0.0,0.0,0.0,-5.6782,-5.9582,-6.1358,-6.1358,-6.1714,-6.201,-6.201,-6.1094,-5.8725,-5.4506,0.0,0.0,0.0,0.0,0.0,0.0,0.0,0.0,0.0,0.0,0.0,0.0,0.0,0.0,0.0,0.0,0.0,0.0,0.0,0.0,0.0,0.0,0.0,0.0,0.0,0.0,0.0,0.0,0.0,0.0,0.0,0.0,0.0,0.0,0.0,0.0,0.0,0.0,0.0,0.0,0.0,0.0,0.0,0.0,0.0,0.0,0.0,0.0,0.0,0.0,0.0,0.0,0.0,0.0,0.0,0.0,0.0,0.0,0.0,0.0,0.0,0.0,0.0,0.0,0.0,0.0,0.0,0.0,0.0,0.0,0.0,0.0,0.0,0.0,0.0,0.0,0.0,0.0,0.0,0.0,0.0,0.0,0.0,0.0,0.0,0.0,0.0,0.0,0.0,0.0,0.0,0.0,0.0,0.0,0.0,0.0,0.0,0.0,0.0,0.0,0.0,0.0,0.0,-5.9183,-6.0859,-6.1353,-6.2226,-6.2318,-6.1186,-6.0915,-5.8751,-5.3902,0.0,0.0,0.0,0.0,0.0,0.0,0.0,0.0,0.0,0.0,0.0,0.0,0.0,0.0,0.0,0.0,0.0,0.0,0.0,0.0,0.0,0.0,0.0,0.0,0.0,0.0,0.0,0.0,0.0,0.0,0.0,0.0,0.0,0.0,0.0,0.0,0.0,0.0,0.0,0.0,0.0,0.0,0.0,0.0,0.0,0.0,0.0,0.0,0.0,0.0,0.0,0.0,0.0,0.0,0.0,0.0,0.0,0.0,0.0,0.0,0.0,0.0,0.0,0.0,0.0,0.0,0.0,0.0,0.0,0.0,0.0,0.0,0.0,0.0,0.0,0.0,0.0,0.0,0.0,0.0,0.0,0.0,0.0,0.0,0.0,0.0,0.0,0.0,0.0,0.0,0.0,0.0,0.0,0.0,0.0,0.0,0.0,0.0,0.0,0.0,0.0,0.0,0.0,-5.9709,-6.1161,-6.251,-6.4656,-6.4745,-6.1753,-6.2245,-6.0345,-5.4862,-5.3246,0.0,0.0,0.0,0.0,0.0,0.0,0.0,0.0,0.0,0.0,0.0,0.0,0.0,0.0,0.0,0.0,0.0,0.0,0.0,0.0,0.0,0.0,0.0,0.0,0.0,0.0,0.0,0.0,0.0,0.0,0.0,0.0,0.0,0.0,0.0,0.0,0.0,0.0,0.0,0.0,0.0,0.0,0.0,0.0,0.0,0.0,0.0,0.0,0.0,0.0,0.0,0.0,0.0,0.0,0.0,0.0,0.0,0.0,0.0,0.0,0.0,0.0,0.0,0.0,0.0,0.0,0.0,0.0,0.0,0.0,0.0,0.0,0.0,0.0,0.0,0.0,0.0,0.0,0.0,0.0,0.0,0.0,0.0,0.0,0.0,0.0,0.0,0.0,0.0,0.0,0.0,0.0,0.0,0.0,0.0,0.0,0.0,0.0,0.0,0.0,0.0,0.0,-5.9084,-6.0761,-6.109,-6.2155,-6.1658,-5.863,-5.9209,-5.7389,-5.1897,-5.1234,0.0,0.0,0.0,0.0,0.0,0.0,0.0,0.0,0.0,0.0,0.0,0.0,0.0,0.0,0.0,0.0,0.0,0.0,0.0,0.0,0.0,0.0,0.0,0.0,0.0,0.0,0.0,0.0,0.0,0.0,0.0,0.0,0.0,0.0,0.0,0.0,0.0,0.0,0.0,0.0,0.0,0.0,0.0,0.0,0.0,0.0,0.0,0.0,0.0,0.0,0.0,0.0,0.0,0.0,0.0,0.0,0.0,0.0,0.0,0.0,0.0,0.0,0.0,0.0,0.0,0.0,0.0,0.0,0.0,0.0,0.0,0.0,0.0,0.0,0.0,0.0,0.0,0.0,0.0,0.0,0.0,0.0,0.0,0.0,0.0,0.0,0.0,0.0,0.0,0.0,0.0,0.0,0.0,0.0,0.0,0.0,0.0,0.0,0.0,0.0,0.0,0.0,-5.7588,-5.9673,-6.1039,-6.1291,-6.0445,-5.8168,-5.8397,-5.6369,-5.0907,-5.0522,0.0,0.0,0.0,0.0,0.0,0.0,0.0,0.0,0.0,0.0,0.0,0.0,0.0,0.0,0.0,0.0,0.0,0.0,0.0,0.0,0.0,0.0,0.0,0.0,0.0,0.0,0.0,0.0,0.0,0.0,0.0,0.0,0.0,0.0,0.0,0.0,0.0,0.0,0.0,0.0,0.0,0.0,0.0,0.0,0.0,0.0,0.0,0.0,0.0,0.0,0.0,0.0,0.0,0.0,0.0,0.0,0.0,0.0,0.0,0.0,0.0,0.0,0.0,0.0,0.0,0.0,0.0,0.0,0.0,0.0,0.0,0.0,0.0,0.0,0.0,0.0,0.0,0.0,0.0,0.0,0.0,0.0,0.0,0.0,0.0,0.0,0.0,0.0,0.0,0.0,0.0,0.0,0.0,0.0,0.0,0.0,0.0,0.0,0.0,0.0,0.0,0.0,0.0,-5.8026,-6.112,-6.1118,-6.0318,-5.8987,-5.8654,-5.6297,-5.1057,0.0,0.0,0.0,0.0,0.0,0.0,0.0,0.0,0.0,0.0,0.0,0.0,0.0,0.0,0.0,0.0,0.0,0.0,0.0,0.0,0.0,0.0,0.0,0.0,0.0,0.0,0.0,0.0,0.0,0.0,0.0,0.0,0.0,0.0,0.0,0.0,0.0,0.0,0.0,0.0,0.0,0.0,0.0,0.0,0.0,0.0,0.0,0.0,0.0,0.0,0.0,0.0,0.0,0.0,0.0,0.0,0.0,0.0,0.0,0.0,0.0,0.0,0.0,0.0,0.0,0.0,0.0,0.0,0.0,0.0,0.0,0.0,0.0,0.0,0.0,0.0,0.0,0.0,0.0,0.0,0.0,0.0,0.0,0.0,0.0,0.0,0.0,0.0,0.0,0.0,0.0,0.0,0.0,0.0,0.0,0.0,0.0,0.0,0.0,0.0,0.0,0.0,0.0,0.0,-5.5883,-5.9469,-6.0438,-6.0535,-5.9747,-5.8462,-5.594,-5.1777,0.0,0.0,0.0,0.0,0.0,0.0,0.0,0.0,0.0,0.0,0.0,0.0,0.0,0.0]}],[{"header":{"parameterUnit":"kt","parameterCategory":2,"dx":1,"dy":1,"la1":29.285339999999998,"la2":30.599998999999997,"lo1":-89.70041500000002,"lo2":-87.6738589999976,"nx":112,"ny":82,"refTime":"2022-10-18T00:00:00:Z","depth":0,"parameterNumber":2,"parameterNumberName":"V-component_of_WINDS"},"data":[5.6324,5.6129,5.5055,5.3884,5.1761,4.9759,4.8978,4.5513,4.2487,4.2487,4.2849,4.3342,4.3836,4.4308,0.0,0.0,0.0,0.0,0.0,4.765,0.0,0.0,0.0,0.0,0.0,0.0,0.0,0.0,0.0,0.0,0.0,7.3235,7.8403,8.1082,8.5828,8.9554,9.2109,9.2555,9.3143,9.3899,9.3899,9.3899,9.3899,9.3899,9.2508,9.0011,8.944,8.7763,8.5337,8.4766,8.4586,8.4586,8.4586,8.5324,8.6626,8.8202,9.0816,9.3953,9.6816,9.7823,9.7888,9.8386,9.8576,9.8576,9.8576,9.8576,9.8576,9.8576,9.8576,9.8931,10.0482,10.1678,10.2522,10.2617,10.3706,10.3986,10.1463,10.1083,10.1033,10.0076,9.9926,9.9926,9.9926,10.0419,10.0799,10.0799,10.1748,10.2887,10.4064,10.6152,10.7746,10.8316,10.9379,11.0024,11.0024,11.0024,11.0024,11.0024,11.0024,11.0024,11.0024,11.0024,11.0024,11.0024,11.0024,11.0024,11.0024,11.0024,11.0024,11.0024,11.0024,11.0024,5.2297,5.22,5.1224,5.0492,4.8442,4.6258,4.5137,4.1609,3.8585,3.9082,3.9842,4.0924,4.255,4.3554,0.0,0.0,0.0,0.0,0.0,0.0,0.0,0.0,0.0,0.0,0.0,0.0,0.0,0.0,6.6524,0.0,6.9934,7.5999,8.0445,8.2758,8.6484,8.9237,9.0876,9.1695,9.2514,9.3334,9.3676,9.3899,9.3899,9.3327,9.1687,8.919,8.8655,8.6942,8.4586,8.4586,8.4586,8.4586,8.4586,8.5515,8.6979,8.8048,9.0277,9.3028,9.5109,9.6488,9.7525,9.829,9.8576,9.8576,9.8576,9.8576,9.8576,9.8576,9.8576,9.88,9.9828,10.1324,10.2558,10.2558,10.4036,10.479,10.2224,10.1894,10.1636,10.0189,9.9926,9.9926,9.9926,9.9926,9.9926,9.9926,10.0875,10.1786,10.2355,10.4899,10.6835,10.7443,10.8999,11.0024,11.0024,11.0024,11.0024,11.0024,11.0024,11.0024,11.0024,11.0024,11.0024,11.0024,11.0024,11.0024,11.0024,11.0024,11.0024,11.0024,11.0024,11.0024,4.9296,4.8856,4.7526,4.5356,4.404,4.2536,3.9315,3.8534,3.8933,4.0182,4.0471,4.1302,4.3671,4.4158,0.0,0.0,0.0,0.0,0.0,0.0,0.0,0.0,0.0,0.0,0.0,6.6482,7.0274,0.0,7.3893,7.7315,7.5918,7.9929,8.2954,8.4434,8.7,8.8416,8.8467,9.0876,9.2109,9.215,9.3334,9.3899,9.3828,9.2257,9.0688,8.9154,8.7585,8.6015,8.4586,8.4586,8.4586,8.4586,8.4586,8.5551,8.6978,8.6978,8.9418,9.2734,9.2734,9.4775,9.7456,9.825,9.852,9.8576,9.8576,9.8576,9.8576,9.8576,9.8576,9.8576,9.8576,9.9716,10.0893,10.0893,10.2423,10.3472,10.2024,10.1924,10.1707,10.0264,9.9963,9.9926,9.9926,9.9926,9.9926,9.9926,9.9926,10.0495,10.2165,10.3836,10.5544,10.7253,10.8923,10.9948,11.0024,11.0024,11.0024,11.0024,11.0024,11.0024,11.0024,11.0024,11.0024,11.0024,11.0024,11.0024,11.0024,11.0024,11.0024,11.0024,11.0024,11.0024,4.5562,4.5454,4.4391,4.3,4.3024,4.2926,4.1267,4.0399,3.9988,4.0375,4.1865,0.0,0.0,0.0,4.5751,4.6837,0.0,4.7959,4.9469,5.0149,5.3366,0.0,0.0,0.0,0.0,6.8126,6.9276,7.171,7.4669,7.669,7.7348,8.1442,8.45,8.5979,8.6806,8.7593,8.8467,8.993,9.1229,9.215,9.3334,9.3899,9.3828,9.2257,9.0688,8.9154,8.7585,8.6015,8.4586,8.4586,8.4586,8.4586,8.4586,8.6193,8.8584,8.8584,9.0724,9.3586,9.3586,9.4491,9.5904,9.7276,9.811,9.8576,9.8576,9.8576,9.8576,9.8576,9.8576,9.8576,9.8576,9.9716,10.0893,10.0893,10.3179,10.4993,10.3533,10.34,10.3196,10.1741,10.0633,9.9926,9.9926,9.9926,9.9926,9.9926,9.9926,10.0077,10.0571,10.209,10.3798,10.5469,10.7177,10.8696,10.991,11.0024,11.0024,11.0024,11.0024,11.0024,11.0024,11.0024,11.0024,11.0024,11.0024,11.0024,11.0024,11.0024,11.0024,11.0024,11.0024,11.0024,4.1731,4.1749,4.1169,4.0559,4.0852,4.1305,4.1243,4.0803,4.0711,4.1772,0.0,0.0,0.0,0.0,0.0,0.0,4.8191,4.9768,5.2791,5.3624,5.6434,6.322,0.0,0.0,7.0197,7.1742,7.3584,7.6181,7.8844,8.0423,8.062,8.302,8.5091,8.6658,8.6724,8.7037,8.7698,8.8847,9.0069,9.1316,9.2032,9.2875,9.3791,9.1065,8.9611,8.9119,8.6871,8.5373,8.4586,8.4586,8.4586,8.4586,8.4586,8.6051,8.8334,8.8976,9.0795,9.297,9.3685,9.4408,9.5237,9.6476,9.7653,9.8576,9.8576,9.8576,9.8576,9.8576,9.8576,9.8576,9.8576,9.923,10.009,10.0706,10.2931,10.4677,10.3969,10.4484,10.4707,10.3372,10.1845,10.0861,10.095,10.0989,10.0723,10.0039,9.9926,9.9926,9.9926,10.1406,10.2811,10.3798,10.6038,10.7898,10.8885,10.9607,11.0024,11.0024,11.0024,11.0024,11.0024,11.0024,11.0024,11.0024,11.0024,11.0024,11.0024,11.0024,11.0024,11.0024,11.0024,11.0024,3.8485,3.8485,3.8485,3.8485,3.8585,3.9032,4.0134,0.0,4.2092,4.4159,0.0,4.572,4.6562,0.0,0.0,4.8684,5.0299,5.2915,5.6788,5.9012,6.1353,6.4418,6.6021,6.7896,7.0416,7.6543,8.0324,8.0324,8.4105,8.5815,8.4413,8.4565,8.5256,8.6658,8.6724,8.6724,8.6724,8.7872,8.8994,8.9976,9.0162,9.1255,9.3095,8.9086,8.7834,8.862,8.5664,8.4449,8.4586,8.4586,8.4586,8.4586,8.4586,8.5515,8.7085,8.8655,9.0225,9.1794,9.3327,9.4302,9.5047,9.5822,9.7093,9.829,9.8386,9.8481,9.8576,9.8576,9.8576,9.8576,9.8576,9.8576,9.8893,10.0277,10.1902,10.3235,10.3642,10.4957,10.5793,10.4999,10.3483,10.247,10.292,10.2659,10.1938,10.0419,10.0039,9.9926,9.9926,10.1216,10.2241,10.2431,10.5317,10.7291,10.7481,10.9037,11.0024,11.0024,11.0024,11.0024,11.0024,11.0024,11.0024,11.0024,11.0024,11.0024,11.0024,11.0024,11.0024,11.0024,11.0024,11.0024,3.8485,3.8485,3.8485,3.8485,3.9255,4.0134,0.0,0.0,0.0,4.74,5.0494,5.3097,5.2161,5.2155,5.3311,5.6353,5.718,5.8047,5.9694,6.6159,7.2268,7.628,7.8022,7.9107,7.9666,8.0981,8.1803,8.1803,8.3678,8.4697,8.4348,8.5552,8.6395,8.6724,8.6724,8.6724,8.6724,8.7872,8.8533,8.8798,8.9742,8.9826,8.911,8.7007,8.6055,8.5964,8.4095,8.379,8.4586,8.4586,8.4586,8.4586,8.4586,8.5515,8.7085,8.8655,9.0225,9.1794,9.3327,9.3975,9.4231,9.5014,9.5911,9.6778,9.7432,9.8031,9.8576,9.8576,9.8576,9.8576,9.8576,9.8576,9.8651,9.8931,10.0239,10.1755,10.316,10.3935,10.4682,10.6051,10.5113,10.4529,10.5961,10.4126,10.2317,10.1976,10.0799,9.9926,9.9926,10.0191,10.0913,10.2279,10.4254,10.6,10.7367,10.9037,11.0024,11.0024,11.0024,11.0024,11.0024,11.0024,11.0024,11.0024,11.0024,11.0024,11.0024,11.0024,11.0024,11.0024,11.0024,11.0024,3.8485,3.8485,3.8635,3.9304,3.994,0.0,0.0,4.476,4.7578,4.9467,5.249,5.5193,5.6345,5.7587,5.9047,6.0964,6.1667,6.3722,6.8641,7.4307,7.822,7.891,8.0916,8.2198,8.2198,8.2198,8.2494,8.325,8.4697,8.5519,8.5519,8.6296,8.6724,8.6724,8.6724,8.6724,8.6724,8.7291,8.7872,8.8467,8.8467,8.8311,8.8003,8.5809,8.4694,8.4425,8.3465,8.3284,8.3825,8.4347,8.4586,8.4586,8.4586,8.5979,8.8155,8.894,9.0724,9.2828,9.3614,9.3899,9.4012,9.4785,9.5581,9.6403,9.7142,9.791,9.8576,9.8576,9.8576,9.8576,9.8576,9.8576,9.8576,9.8576,9.9753,10.1342,10.3044,10.4172,10.545,10.7329,10.7103,10.6752,10.7042,10.5791,10.4236,10.2659,10.171,10.0875,10.0039,9.9926,10.0229,10.1064,10.2697,10.4368,10.6076,10.7784,10.9113,10.9948,11.0024,11.0024,11.0024,11.0024,11.0024,11.0024,11.0024,11.0024,11.0024,11.0024,11.0024,11.0024,11.0024,11.0024,3.8485,3.8685,3.9131,4.0182,4.0807,0.0,4.402,4.5656,4.7976,5.2355,5.5257,5.7937,6.0995,6.3421,6.5134,6.5722,6.6735,7.0131,7.7742,8.1014,8.1771,7.9486,8.1475,8.3138,8.3138,8.3138,8.3546,8.4763,8.5946,8.6724,8.6724,8.6724,8.6724,8.6724,8.6724,8.6724,8.6724,8.6724,8.7164,8.8095,8.6833,8.6464,8.6833,8.4353,8.3068,8.2789,8.2437,8.2574,8.3026,8.3931,8.4244,8.4315,8.4806,8.655,8.8833,8.944,9.1259,9.3507,9.3792,9.3899,9.3975,9.4616,9.5368,9.6142,9.6906,9.7698,9.8366,9.8501,9.8576,9.8576,9.8576,9.8576,9.8576,9.8576,9.9492,10.0893,10.2558,10.424,10.5968,10.7796,10.8154,10.8031,10.7476,10.7251,10.6269,10.3713,10.2848,10.1938,10.0571,10.0115,9.9926,9.9926,10.1444,10.3001,10.4368,10.6342,10.8088,10.9455,10.9835,11.0024,11.0024,11.0024,11.0024,11.0024,11.0024,11.0024,11.0024,11.0024,11.0024,11.0024,11.0024,11.0024,3.8485,3.9329,4.023,4.0375,4.2097,0.0,4.5531,5.1163,5.6584,5.8406,6.3418,6.7691,6.8193,6.9595,7.1461,7.4025,7.5592,7.771,8.1244,8.3119,8.3986,8.3658,8.5157,8.6198,8.6198,8.6198,8.6296,8.6461,8.6625,8.6724,8.6724,8.6724,8.6724,8.6724,8.6724,8.6724,8.6724,8.6724,8.6746,8.6875,8.5342,8.4,8.2843,8.1253,8.0336,7.997,7.9935,8.1073,8.2989,8.3136,8.3173,8.3425,8.5739,8.6837,8.7513,9.026,9.1508,9.2008,9.3398,9.3899,9.3899,9.3975,9.4547,9.5332,9.6114,9.6918,9.7676,9.8366,9.8576,9.8576,9.8576,9.8576,9.8576,9.8576,9.8688,9.923,10.0818,10.25,10.4185,10.5891,10.6413,10.6983,10.8285,10.7746,10.6994,10.663,10.4238,10.2393,10.2203,10.0837,9.9926,9.9926,10.1444,10.2507,10.2697,10.5658,10.7557,10.7784,10.9189,11.0024,11.0024,11.0024,11.0024,11.0024,11.0024,11.0024,11.0024,11.0024,11.0024,11.0024,11.0024,11.0024,3.9427,4.0037,4.0807,4.2236,0.0,0.0,4.6784,5.1987,5.7082,5.9123,6.5588,7.1332,7.2757,7.5582,7.8162,7.9353,8.1508,8.3447,8.4684,8.5322,8.5716,8.5716,8.6329,8.6724,8.6724,8.6724,8.6724,8.6724,8.5112,8.4882,8.6625,8.6724,8.6724,8.6724,8.6724,8.6724,8.6724,8.6724,8.6209,8.5354,8.4697,8.3184,8.0949,8.0357,7.9537,7.8626,7.9224,8.0088,8.1031,8.1682,8.2385,8.3239,8.5882,8.7478,8.8548,9.0724,9.2115,9.3006,9.3685,9.3899,9.3899,9.3899,9.4408,9.5112,9.5426,9.6394,9.7442,9.7764,9.8209,9.8576,9.8576,9.8576,9.8576,9.8576,9.8576,9.8968,10.0557,10.1454,10.2426,10.4128,10.5352,10.6641,10.8358,10.8486,10.8092,10.7205,10.5296,10.3532,10.2583,10.0951,9.9926,9.9926,10.0571,10.1368,10.2355,10.376,10.5393,10.7367,10.8164,10.8999,10.9986,11.0024,11.0024,11.0024,11.0024,11.0024,11.0024,11.0024,11.0024,11.0024,11.0024,11.0024,4.0085,0.0,0.0,0.0,0.0,0.0,4.852,5.2983,5.774,6.1141,6.7829,7.3998,7.6926,8.0343,8.2954,8.3382,8.5309,8.6724,8.6724,8.6724,8.6724,8.6724,8.6724,8.6724,8.6724,8.6724,8.6724,8.6724,8.4717,8.4421,8.6592,8.6724,8.6724,8.6724,8.6724,8.6724,8.6724,8.6724,8.5913,8.4348,8.3921,8.2494,8.0094,7.9666,7.891,7.7989,7.8767,7.9073,7.9132,8.0306,8.172,8.342,8.6089,8.8228,9.0082,9.1615,9.2899,9.3899,9.3899,9.3899,9.3899,9.3899,9.4267,9.4751,9.4982,9.5962,9.7118,9.7324,9.7968,9.8576,9.8576,9.8576,9.8576,9.8576,9.8576,9.8856,9.9978,10.0239,10.0726,10.2408,10.4091,10.5781,10.7594,10.8569,10.8753,10.7849,10.6061,10.4438,10.3304,10.1254,9.9926,9.9926,9.9926,10.0419,10.1634,10.2165,10.3494,10.5924,10.6987,10.805,10.9265,10.9759,11.0024,11.0024,11.0024,11.0024,11.0024,11.0024,11.0024,11.0024,11.0024,11.0024,0.0,0.0,0.0,4.5341,4.6898,4.8422,5.1012,5.5542,6.0822,6.6564,7.1909,7.681,8.1218,8.3263,8.4828,8.6362,8.6658,8.6724,8.6724,8.6724,8.6724,8.6724,8.6724,8.6724,8.6724,8.6724,8.6724,8.6724,8.6625,8.6625,8.6724,8.6724,8.6724,8.6724,8.6724,8.6724,8.6724,8.6724,8.5913,8.4315,8.2954,8.1508,8.0061,7.8664,7.8006,7.794,7.7989,7.7989,7.8086,7.9086,8.1122,8.3874,8.6575,8.9237,9.1687,9.322,9.3864,9.3899,9.3899,9.3899,9.3899,9.3899,9.3899,9.4085,9.4818,9.5611,9.6431,9.7167,9.7968,9.8576,9.8576,9.8576,9.8576,9.8576,9.8576,9.8576,9.8613,9.8651,9.908,10.0631,10.2314,10.4016,10.5719,10.7484,10.8781,10.912,10.6546,10.4649,10.486,10.1976,9.9926,9.9926,9.9926,9.9926,10.0001,10.1482,10.2469,10.2583,10.5658,10.7519,10.7557,10.9151,11.0024,11.0024,11.0024,11.0024,11.0024,11.0024,11.0024,11.0024,11.0024,11.0024,4.3138,4.3835,4.4892,5.0931,5.1396,5.1768,5.6835,6.0839,6.4426,6.7964,7.4648,7.9984,8.0482,8.3495,8.6078,8.6625,8.6724,8.6724,8.6724,8.6724,8.6724,8.6724,8.6724,8.6724,8.6724,8.6724,8.6724,8.6724,8.4882,8.4619,8.6625,8.4816,8.4651,8.6658,8.6724,8.6724,8.6724,8.565,8.4401,8.2921,8.1475,8.0028,7.8664,7.817,7.794,7.794,7.794,7.794,7.8038,7.9073,8.1113,8.3859,8.6605,8.9269,9.1758,9.3328,9.3899,9.3899,9.3899,9.3899,9.3899,9.3899,9.3899,9.3937,9.4231,9.4818,9.5611,9.6394,9.7167,9.7888,9.8406,9.8576,9.8576,9.8576,9.8576,9.8576,9.8576,9.8576,9.9006,10.0557,10.1342,10.2632,10.5437,10.6621,10.7525,10.8696,10.7208,10.5705,10.4797,10.2722,10.0959,10.0001,9.9926,9.9926,9.9926,10.0457,10.1216,10.2355,10.3494,10.4633,10.5772,10.7443,10.8354,10.8354,10.9455,11.0024,11.0024,11.0024,11.0024,11.0024,11.0024,11.0024,4.5388,4.6449,4.7889,5.5118,5.5346,5.5229,6.067,6.3706,6.6503,7.0608,7.6618,8.1417,8.2084,8.4162,8.5965,8.6582,8.6724,8.6724,8.6724,8.6724,8.6724,8.6724,8.6724,8.6724,8.6724,8.6724,8.6724,8.6724,8.4915,8.4684,8.6625,8.4882,8.4717,8.6658,8.6724,8.6724,8.6724,8.5157,8.3415,8.1442,8.0521,7.9305,7.794,7.794,7.794,7.794,7.794,7.794,7.7989,7.8673,8.0858,8.4014,8.6167,8.8971,9.1947,9.3357,9.3899,9.3899,9.3899,9.3899,9.3899,9.3899,9.3899,9.3899,9.3899,9.4444,9.5141,9.5672,9.6593,9.7502,9.8011,9.8347,9.8576,9.8576,9.8576,9.8576,9.8576,9.8576,9.8819,9.9866,10.0482,10.1753,10.4577,10.5652,10.6778,10.8412,10.7466,10.6279,10.547,10.3953,10.258,10.169,10.11,10.0837,10.0837,10.0267,10.0381,10.1482,10.2128,10.2925,10.4026,10.5696,10.6873,10.7481,10.8582,10.9113,10.9113,10.9721,11.0024,11.0024,11.0024,11.0024,4.6789,4.9066,5.1563,5.8106,5.8777,5.8865,6.2878,6.4652,6.7419,7.44,7.7873,8.1079,8.556,8.5111,8.4529,8.6164,8.644,8.6473,8.6527,8.6582,8.6582,8.6691,8.6724,8.6724,8.6724,8.6724,8.6724,8.6724,8.6724,8.6724,8.6724,8.6724,8.6724,8.6724,8.6625,8.6592,8.6592,8.5026,8.2836,8.0094,8.0028,7.9272,7.794,7.794,7.794,7.794,7.8039,7.8039,7.7973,7.8104,8.0554,8.4292,8.5452,8.8493,9.2309,9.3411,9.3825,9.3899,9.3899,9.3899,9.3899,9.3899,9.3899,9.3899,9.3899,9.4408,9.4982,9.5047,9.6142,9.73,9.7348,9.791,9.8501,9.8557,9.8576,9.8576,9.8576,9.8576,9.8576,9.8576,9.9753,10.1304,10.3006,10.4689,10.6438,10.8272,10.7327,10.6523,10.6695,10.553,10.4653,10.4545,10.3315,10.2544,10.2545,10.0988,10.0039,10.0039,10.1482,10.2317,10.2317,10.395,10.5582,10.7215,10.7215,10.7329,10.7481,10.9113,10.9948,11.0024,11.0024,11.0024,4.8752,5.1764,5.4865,6.4211,6.4129,6.3518,7.0207,7.0556,7.0755,7.5459,7.7965,8.0005,8.2498,8.2561,8.2378,8.2864,8.2956,8.3408,8.4619,8.4792,8.5282,8.6527,8.6724,8.6724,8.6724,8.6724,8.6724,8.6724,8.6724,8.6724,8.6724,8.6724,8.6724,8.6724,8.5552,8.496,8.496,8.3513,8.1869,8.0094,7.8976,7.8302,7.794,7.794,7.794,7.8006,7.9074,7.891,7.8137,8.0276,8.2333,8.4299,8.5679,8.8647,9.215,9.2473,9.3143,9.3899,9.3899,9.3899,9.3899,9.3899,9.3899,9.3899,9.3899,9.4012,9.4303,9.4918,9.5332,9.5904,9.7093,9.7525,9.7845,9.8406,9.8576,9.8576,9.8576,9.8576,9.8576,9.8576,9.8875,9.9641,10.1229,10.2931,10.4617,10.6363,10.7281,10.7432,10.6546,10.6108,10.5457,10.4397,10.3937,10.3807,10.403,10.2483,10.1602,10.1786,10.1027,10.0571,10.0571,10.2203,10.3266,10.3722,10.3722,10.4975,10.7481,10.7936,10.8772,11.0024,11.0024,11.0024,4.8698,5.3498,5.8766,6.6305,6.6485,6.6601,7.3145,7.3116,7.2886,7.6851,7.7871,7.8556,8.0241,8.0562,8.0754,8.1512,8.1637,8.1947,8.2896,8.3048,8.3408,8.4381,8.4472,8.4472,8.4472,8.4472,8.4792,8.554,8.4907,8.476,8.554,8.5597,8.5304,8.4654,8.4473,8.4019,8.3447,8.2001,8.0883,8.0061,7.8664,7.794,7.794,7.794,7.794,7.8006,7.8779,7.9042,7.9009,8.062,8.2428,8.438,8.576,8.8349,9.1359,9.1941,9.2871,9.3899,9.3899,9.3899,9.3899,9.3899,9.3899,9.3899,9.3899,9.3899,9.3975,9.4408,9.4785,9.5332,9.653,9.7118,9.7571,9.8366,9.8576,9.8576,9.8576,9.8576,9.8576,9.8576,9.8576,9.9043,10.0594,10.1678,10.3118,10.5586,10.667,10.722,10.7187,10.7283,10.7058,10.625,10.5641,10.5361,10.55,10.3947,10.2746,10.212,10.1327,10.0511,9.9794,10.0759,10.1672,10.2431,10.231,10.3123,10.4941,10.5916,10.7213,10.8755,10.8846,10.9303,4.7809,5.4238,6.1604,6.6194,6.771,6.9194,7.3406,7.3784,7.4284,7.7981,7.7627,7.7065,7.8556,7.8793,7.9228,8.0754,8.0945,8.1071,8.1261,8.1324,8.1386,8.1637,8.1637,8.1637,8.1637,8.1637,8.2255,8.3736,8.247,8.2255,8.3736,8.3695,8.3025,8.1781,8.2886,8.2921,8.1643,8.0387,7.9798,7.9798,7.8565,7.794,7.7973,7.8335,7.8532,7.8532,7.8729,7.937,8.0423,8.0817,8.233,8.4507,8.5866,8.7841,9.0115,9.1402,9.2635,9.3676,9.3825,9.3899,9.3899,9.3899,9.3899,9.3899,9.3899,9.3899,9.3899,9.3899,9.4373,9.5112,9.5999,9.6726,9.7442,9.8347,9.8481,9.8406,9.852,9.8576,9.8576,9.8576,9.8576,9.8968,10.0352,10.0743,10.1865,10.4838,10.5661,10.6409,10.7792,10.8331,10.8611,10.8611,10.7593,10.6914,10.6959,10.5436,10.3747,10.2097,10.1977,10.1267,9.9578,9.9704,10.0526,10.2008,10.18,10.1679,10.1673,10.3583,10.5294,10.6791,10.7239,10.8239,4.8563,5.3006,5.8517,6.6646,7.1022,7.3261,7.3086,7.4541,7.6123,7.6908,7.6816,7.6676,7.6995,7.6995,7.7105,7.7382,7.7451,7.7939,7.936,7.9526,8.0047,8.1449,8.1637,8.1637,8.1637,8.1637,8.1761,8.2071,8.1823,8.1761,8.2071,8.1068,8.0349,8.0098,7.9395,7.8936,7.8678,7.8441,7.8335,7.8335,7.8071,7.794,7.8039,8.0357,8.1475,8.154,8.2757,8.2724,8.2034,8.4553,8.5058,8.4532,8.6071,8.7516,8.8896,9.0069,9.1359,9.2555,9.3562,9.3899,9.3899,9.3899,9.3899,9.3899,9.3899,9.3899,9.3899,9.3899,9.3975,9.4408,9.5852,9.6311,9.6778,9.8229,9.809,9.7742,9.8406,9.8576,9.8576,9.8576,9.8576,9.8651,9.8893,10.0053,10.108,10.1641,10.4165,10.6035,10.6296,10.75,10.8346,10.8346,10.8125,10.8104,10.8316,10.6847,10.533,10.3837,10.2486,10.1029,9.942,9.9415,9.9545,9.9856,9.9815,10.0424,10.1673,10.2066,10.3194,10.5041,10.6505,10.742,5.0336,5.3039,5.608,6.2387,6.6339,6.9742,7.3814,7.4657,7.4977,7.6274,7.546,7.4937,7.6303,7.6564,7.6564,7.6564,7.6564,7.6885,7.7666,7.7803,7.8113,7.8957,7.8993,7.8993,7.8993,7.8993,7.936,8.0241,7.9491,7.936,8.0306,7.9084,7.8043,7.7308,7.6917,7.6385,7.5604,7.6331,7.7151,7.7949,7.8708,7.9436,8.0243,8.1573,8.2198,8.2231,8.2954,8.3283,8.3447,8.4894,8.5519,8.565,8.6428,8.7416,8.8517,8.9058,9.0482,9.2192,9.2791,9.3373,9.3899,9.3899,9.3899,9.3899,9.3899,9.3899,9.3899,9.3899,9.3899,9.4159,9.5301,9.5611,9.6028,9.7571,9.7676,9.7502,9.7867,9.827,9.8576,9.8576,9.8576,9.8576,9.8576,9.9155,9.994,10.0781,10.2239,10.3941,10.5698,10.6596,10.7381,10.8203,10.8278,10.8306,10.8445,10.7769,10.632,10.3919,10.3165,10.1685,9.9244,9.9003,9.8929,9.8929,9.9044,9.9434,10.0049,10.0318,10.1295,10.2893,10.3985,10.5484,5.1141,5.2819,5.4493,5.9666,6.1657,6.4507,7.2708,7.3203,7.2825,7.5925,7.4977,7.4192,7.6187,7.6564,7.6564,7.6564,7.6564,7.6564,7.6564,7.6564,7.6564,7.6564,7.6564,7.6564,7.6564,7.6564,7.7105,7.8459,7.7352,7.7174,7.8459,7.7067,7.5686,7.4542,7.4647,7.4242,7.3412,7.4839,7.6494,7.8365,7.9475,8.0772,8.2231,8.2856,8.3151,8.3151,8.3151,8.3809,8.4894,8.4894,8.5585,8.6724,8.6724,8.7238,8.8095,8.8366,8.9823,9.1737,9.2025,9.2911,9.3899,9.3899,9.3899,9.3899,9.3899,9.3899,9.3899,9.3899,9.3899,9.4049,9.4852,9.5047,9.5364,9.6583,9.6881,9.6957,9.7324,9.7867,9.8366,9.852,9.8576,9.8576,9.8576,9.8576,9.8968,10.0202,10.0669,10.1977,10.4988,10.5698,10.6521,10.8091,10.8278,10.8278,10.8278,10.8278,10.6857,10.3642,10.3623,10.2283,9.8991,9.8664,9.8576,9.8576,9.8742,9.8779,9.8538,9.8948,9.9723,10.077,10.1559,10.3384,4.91,5.102,5.4213,6.3951,6.2965,6.1104,6.6691,6.8637,7.0731,7.5617,7.6361,7.6274,7.6576,7.6564,7.6564,7.6564,7.6564,7.6564,7.6564,7.6564,7.6564,7.6564,7.6564,7.6564,7.6564,7.6564,7.6606,7.6816,7.6676,7.6606,7.6786,7.4424,7.3024,7.2908,7.2006,7.2047,7.3134,7.4685,7.6811,7.9555,7.9697,8.0615,8.2297,8.5079,8.6296,8.6296,8.6296,8.6395,8.6494,8.6494,8.6592,8.6724,8.6724,8.6746,8.6983,8.8044,8.9252,9.0527,9.1737,9.2911,9.3899,9.3899,9.3899,9.3899,9.3899,9.3899,9.3899,9.3899,9.3899,9.4049,9.4852,9.5047,9.5112,9.5205,9.5269,9.5672,9.7093,9.7456,9.7698,9.8406,9.8576,9.8576,9.8576,9.8576,9.8613,9.8763,9.9978,10.1529,10.3418,10.4988,10.6521,10.8091,10.8278,10.8278,10.8278,10.8278,10.6857,10.3642,10.342,10.1999,9.8707,9.8557,9.8576,9.8576,9.8576,9.8576,9.8576,9.8575,9.8821,9.9184,10.0637,10.1775,4.6852,4.8321,5.0186,5.798,5.9592,6.0057,6.2907,6.4565,6.6979,7.2127,7.3755,7.3814,7.2301,7.4541,7.6041,7.4541,7.5588,7.6564,7.6564,7.6564,7.6564,7.6564,7.6564,7.6564,7.6564,7.6564,7.6564,7.6564,7.6564,7.6564,7.6564,7.4133,7.2708,7.2708,7.1609,7.1284,7.1785,7.4067,7.6722,7.9726,8.0627,8.1933,8.3452,8.5663,8.6724,8.6724,8.6724,8.6724,8.6724,8.6724,8.6724,8.6724,8.6724,8.6724,8.6746,8.7185,8.8146,8.93,9.0527,9.178,9.295,9.3676,9.3899,9.3899,9.3899,9.3899,9.3899,9.3899,9.3899,9.3974,9.4267,9.4374,9.4374,9.4374,9.4683,9.5241,9.5852,9.6726,9.7479,9.7801,9.8229,9.8576,9.8576,9.8576,9.8576,9.8576,9.908,10.0053,10.1678,10.338,10.5063,10.6708,10.7717,10.8278,10.8278,10.8278,10.7306,10.51,10.3978,10.2371,10.0053,9.994,9.9529,9.8576,9.8576,9.8576,9.8576,9.8576,9.8594,9.875,9.9495,10.049,4.4465,4.563,4.6819,5.268,5.5547,5.7922,6.1492,6.2184,6.3605,6.9218,7.1923,7.2621,7.0498,7.3057,7.4861,7.2999,7.425,7.5733,7.6448,7.6564,7.6564,7.6564,7.6564,7.6564,7.6564,7.6564,7.6564,7.6564,7.6564,7.6809,7.7187,7.4715,7.3465,7.3872,7.2301,7.1632,7.201,7.3981,7.6479,7.9526,8.1146,8.2722,8.418,8.5395,8.6219,8.6724,8.6724,8.6724,8.6724,8.6724,8.6724,8.6724,8.6724,8.6724,8.6724,8.6724,8.7416,8.8633,8.9789,9.1053,9.2351,9.3488,9.3899,9.3899,9.3899,9.3899,9.3899,9.3899,9.3899,9.3899,9.3899,9.3899,9.3899,9.3899,9.4303,9.4751,9.5014,9.5904,9.683,9.73,9.7845,9.827,9.8501,9.8576,9.8576,9.8576,9.8576,9.8931,10.0053,10.166,10.353,10.5698,10.6932,10.7755,10.8241,10.8278,10.7605,10.6035,10.4801,10.3642,10.2426,10.1416,10.0332,9.9267,9.88,9.8576,9.8576,9.8576,9.8576,9.8538,9.8763,9.9457,4.1734,4.3192,4.5211,5.0257,5.1554,5.3935,6.2832,6.1976,6.1162,6.7706,7.201,7.4221,7.2912,7.2708,7.2737,7.2708,7.2737,7.3668,7.6187,7.6564,7.6564,7.6564,7.6564,7.6564,7.6564,7.6564,7.6564,7.6564,7.6564,7.7187,7.8438,7.6024,7.521,7.6547,7.4046,7.3319,7.457,7.4667,7.6135,7.9132,8.085,8.25,8.418,8.418,8.5111,8.6724,8.6724,8.6724,8.6724,8.6724,8.6724,8.6724,8.6724,8.6724,8.6724,8.6724,8.7416,8.8633,8.9789,9.1053,9.2351,9.3488,9.3899,9.3899,9.3899,9.3899,9.3899,9.3899,9.3899,9.3899,9.3899,9.3899,9.3899,9.3899,9.3899,9.4086,9.4849,9.508,9.555,9.7093,9.7372,9.7653,9.8406,9.8576,9.8576,9.8576,9.8576,9.8576,9.8576,9.994,10.2201,10.5586,10.596,10.6558,10.8129,10.8278,10.7605,10.6035,10.5923,10.5885,10.5885,10.267,10.0893,10.0856,9.9342,9.8576,9.8576,9.8576,9.8576,9.8576,9.8538,9.8716,4.0496,4.2371,4.5575,5.2499,5.282,5.3333,6.0131,5.9874,6.0406,6.8637,6.7008,6.4565,6.5961,6.9771,7.2708,7.2708,7.4221,7.5675,7.6448,7.6564,7.6564,7.6564,7.6564,7.6564,7.6564,7.6564,7.6564,7.6564,7.7449,7.8118,7.8496,7.6925,7.6169,7.6535,7.4919,7.4221,7.4628,7.5529,7.7078,7.9096,7.9657,8.0146,8.0818,8.3108,8.4472,8.5022,8.6219,8.6724,8.6724,8.6724,8.6724,8.6724,8.6724,8.6724,8.6724,8.6724,8.6929,8.7416,8.8583,8.9789,9.1018,9.2274,9.3221,9.3899,9.3899,9.3899,9.3899,9.3899,9.3899,9.3899,9.3899,9.3899,9.3899,9.3899,9.3899,9.3938,9.4231,9.4685,9.5209,9.5702,9.6636,9.7479,9.7698,9.8209,9.8576,9.8576,9.8576,9.8576,9.8576,9.8968,10.009,10.2258,10.4577,10.6147,10.6633,10.7642,10.8054,10.7568,10.753,10.7044,10.596,10.4913,10.3791,10.2632,10.0987,10.0165,10.0165,9.908,9.8576,9.8576,9.8576,9.8575,3.939,4.1019,4.3951,4.9936,5.0354,5.118,5.8527,5.7242,5.6819,6.5153,6.3197,6.0716,6.3151,6.7444,7.1022,7.2476,7.4075,7.5431,7.6419,7.6564,7.6564,7.6564,7.6564,7.6564,7.6564,7.6564,7.6838,7.7304,7.8089,7.8961,7.9921,7.8292,7.7565,7.806,7.6315,7.5384,7.5384,7.6198,7.7105,7.8181,7.8181,7.8459,7.9228,8.1324,8.2956,8.4239,8.5282,8.6109,8.6724,8.6724,8.6724,8.6724,8.6724,8.6724,8.6724,8.6724,8.6724,8.6908,8.8044,8.8945,8.9789,9.1567,9.2635,9.3299,9.3751,9.3899,9.3899,9.3899,9.3899,9.3899,9.3899,9.3899,9.3899,9.3899,9.3899,9.3899,9.3899,9.4267,9.4719,9.4982,9.5815,9.6663,9.73,9.7801,9.8192,9.8501,9.8576,9.8576,9.8576,9.8576,9.8931,9.9903,10.2408,10.4539,10.581,10.682,10.7642,10.8241,10.8278,10.7829,10.6857,10.6259,10.5437,10.439,10.2707,10.1529,10.0893,9.9903,9.9118,9.8576,9.8576,9.8576,3.8485,3.9366,4.1027,4.4457,4.539,4.8065,5.786,5.4476,5.1439,5.8734,6.0208,6.0974,6.3433,6.5303,6.7818,7.1807,7.2767,7.3814,7.614,7.6402,7.6303,7.639,7.6402,7.6274,7.6274,7.6535,7.7245,7.8438,7.87,7.9834,8.2294,8.0008,7.9223,8.046,7.7972,7.6564,7.6564,7.6564,7.6419,7.6227,7.6419,7.7274,7.8542,7.8975,8.0818,8.3764,8.3711,8.4763,8.6495,8.6308,8.6428,8.6724,8.6724,8.6724,8.6724,8.6724,8.6724,8.6821,8.7923,8.8366,8.8798,9.1097,9.1983,9.2315,9.345,9.3825,9.3899,9.3899,9.3899,9.3899,9.3899,9.3899,9.3899,9.3899,9.3899,9.3899,9.3899,9.3899,9.4086,9.4852,9.5014,9.5519,9.6957,9.7324,9.7653,9.8366,9.8501,9.8576,9.8576,9.8576,9.8576,9.8576,9.9866,10.2014,10.5287,10.5586,10.6296,10.7979,10.8091,10.8166,10.8278,10.6857,10.611,10.611,10.4464,10.2819,10.1267,10.1005,10.0202,9.8912,9.88,9.88,3.8485,3.9366,4.1744,4.7963,4.7497,4.7697,5.615,5.3545,5.1439,5.8734,5.5897,5.3655,5.8795,6.0375,6.294,6.8883,7.3174,7.5559,7.5151,7.425,7.3988,7.4977,7.4221,7.3639,7.3639,7.6344,7.8205,7.8496,8.0328,8.177,8.2381,8.0926,8.0125,8.0518,7.7972,7.6564,7.6564,7.6564,7.5151,7.2301,7.5239,7.527,7.2995,7.7247,7.9526,8.025,7.9455,8.1219,8.4592,8.248,8.3612,8.6724,8.6724,8.6724,8.6724,8.6724,8.6724,8.6746,8.7004,8.7698,8.8533,8.914,9.0607,9.2192,9.2473,9.3182,9.3899,9.3899,9.3899,9.3899,9.3899,9.3899,9.3899,9.3899,9.3899,9.3899,9.3899,9.3899,9.3974,9.4122,9.4651,9.5177,9.555,9.6583,9.7456,9.7653,9.8151,9.8576,9.8576,9.8576,9.8576,9.8576,9.8856,9.9903,10.1902,10.2052,10.3343,10.6296,10.6483,10.7007,10.8203,10.7904,10.7717,10.7717,10.6147,10.5175,10.4764,10.2127,10.1379,10.2258,10.095,10.1062,3.9266,4.0123,4.2222,4.7638,4.6716,4.5999,5.1809,5.0157,4.9042,5.5047,5.3783,5.2581,5.5627,5.9695,6.2828,6.3238,6.7488,7.0548,6.9842,7.0825,7.1471,7.0983,7.3031,7.4046,7.2825,7.6257,7.8787,7.9368,8.1304,8.2672,8.3178,8.1433,8.0518,8.0518,7.7972,7.6564,7.6564,7.6564,7.4715,7.0963,7.4802,7.4628,7.1116,7.579,7.8421,7.9173,7.9363,8.1222,8.4137,8.3418,8.45,8.6724,8.6724,8.6724,8.6724,8.6724,8.6724,8.6724,8.6724,8.7111,8.775,8.8265,8.9382,9.0652,9.178,9.2595,9.3182,9.3714,9.3488,9.3182,9.3751,9.3899,9.3899,9.3899,9.3899,9.3899,9.3899,9.3899,9.3899,9.3899,9.4231,9.4616,9.4982,9.5763,9.6557,9.7276,9.7779,9.8151,9.8501,9.8576,9.8576,9.8576,9.8576,9.8893,9.9753,10.0482,10.1641,10.353,10.4352,10.581,10.8166,10.8278,10.8278,10.8278,10.7418,10.667,10.5923,10.4091,10.3268,10.3418,10.2463,10.2538,4.0465,4.1369,4.3024,4.6123,4.5245,4.4357,4.7477,4.6478,4.6063,5.0191,5.2233,5.3211,5.2852,5.9402,6.2956,5.7199,6.0235,6.3513,6.4027,6.7086,6.8675,6.7007,7.165,7.4499,7.3145,7.6547,7.9368,8.0693,8.2003,8.3091,8.409,8.1811,8.0518,8.0518,7.7972,7.6564,7.6564,7.6564,7.4715,7.0963,7.4802,7.4628,7.1051,7.489,7.7352,7.88,7.9854,8.163,8.3882,8.4849,8.5849,8.6724,8.6724,8.6724,8.6724,8.6724,8.6724,8.6724,8.6724,8.6724,8.6821,8.7872,8.8265,8.8831,9.092,9.1695,9.2067,9.3029,9.2716,9.2392,9.3373,9.3751,9.3899,9.3899,9.3899,9.3899,9.3899,9.3899,9.3899,9.3899,9.3899,9.4086,9.4751,9.4982,9.5519,9.683,9.7215,9.7593,9.829,9.8481,9.8576,9.8576,9.8576,9.8576,9.8576,9.9753,10.0519,10.0519,10.2109,10.439,10.7381,10.7755,10.8016,10.8278,10.8278,10.7605,10.6296,10.6035,10.5324,10.4165,10.3904,10.3941,4.1589,4.2975,4.4991,4.7355,4.6283,4.5283,4.7647,4.6478,4.5625,4.8222,4.89,4.9089,4.9026,5.2735,5.5591,5.4859,5.7767,6.1316,6.464,6.4742,6.5367,6.7818,6.8052,6.9695,7.391,7.7856,8.0751,8.2032,8.3237,8.3945,8.4148,8.1811,8.0518,8.0518,7.7972,7.6564,7.6564,7.6564,7.4715,7.0963,7.4802,7.4628,7.1051,7.489,7.6746,7.686,7.493,7.7123,8.1882,7.9785,8.1998,8.6724,8.6724,8.6724,8.6724,8.6724,8.6724,8.6724,8.6724,8.6724,8.6724,8.6875,8.7645,8.8517,8.8896,8.9729,9.0527,9.0707,9.1402,9.2192,9.2351,9.3143,9.3899,9.3899,9.3899,9.3899,9.3899,9.3899,9.3899,9.3899,9.3899,9.3937,9.4049,9.4616,9.5145,9.5364,9.653,9.7418,9.7548,9.8131,9.8576,9.8576,9.8576,9.8576,9.8576,9.8763,9.8893,9.8893,10.0389,10.2127,10.4091,10.5549,10.6895,10.8241,10.8278,10.8166,10.7904,10.6558,10.6483,10.7493,10.6184,10.6259,4.2634,4.3724,4.5161,4.6161,4.5673,4.5186,4.6185,4.5649,4.5527,4.7745,4.8184,4.8184,4.8184,5.1565,5.3978,5.3015,5.6116,5.9233,6.1053,6.2728,6.4262,6.5573,6.9028,7.2241,7.4433,7.8859,8.177,8.2381,8.3527,8.4148,8.4148,8.1811,8.0518,8.0518,7.7972,7.6564,7.6564,7.6564,7.4715,7.0963,7.4802,7.3523,6.7968,7.393,7.55,7.3619,7.5421,7.7732,8.0345,8.093,8.2818,8.5395,8.633,8.6724,8.6724,8.6724,8.6724,8.6724,8.6724,8.6724,8.6724,8.6724,8.7057,8.7593,8.8214,8.8366,8.8433,8.9092,8.9682,9.0471,9.178,9.2555,9.3104,9.3714,9.3899,9.3899,9.3899,9.3899,9.3899,9.3899,9.3899,9.3899,9.3899,9.4195,9.4547,9.4982,9.5636,9.6421,9.7276,9.7698,9.809,9.8501,9.8576,9.8576,9.8576,9.8576,9.8576,9.8576,10.0053,10.1641,10.3343,10.5063,10.667,10.8241,10.8278,10.8278,10.8278,10.753,10.7568,10.8241,10.753,10.7568,4.4891,0.0,4.773,4.773,4.7035,4.6334,0.0,4.5612,4.5381,4.7063,4.7818,4.8037,4.7526,5.098,5.3176,5.1095,5.4738,5.7739,5.7203,6.0353,6.2836,6.3157,6.9824,7.4689,7.5543,7.9288,8.1939,8.2771,8.3183,8.351,8.3712,8.1666,8.0373,8.0008,7.7798,7.6564,7.6564,7.6564,7.5151,7.2301,7.5239,7.3057,6.6717,7.3523,7.4541,7.1268,7.6287,7.8727,7.9329,8.1885,8.3228,8.3736,8.5022,8.5765,8.6076,8.6076,8.633,8.6724,8.6724,8.6724,8.6724,8.6724,8.6724,8.6908,8.7801,8.745,8.6908,8.7801,8.8214,8.8847,9.0787,9.1695,9.2392,9.326,9.3676,9.3899,9.3899,9.3899,9.3899,9.3899,9.3899,9.3899,9.3899,9.3899,9.4086,9.4683,9.4916,9.5488,9.6699,9.7019,9.7395,9.8209,9.827,9.8366,9.852,9.8386,9.8366,9.852,9.9679,10.1099,10.2745,10.4427,10.611,10.768,10.8054,10.8278,10.8278,10.8278,10.8278,10.8278,10.8278,10.8278,0.0,5.3202,5.6109,5.6109,5.3307,5.0519,5.0519,4.763,0.0,4.5113,4.677,4.7574,4.5527,4.8734,5.1021,4.8832,5.3786,5.7203,5.5153,5.6886,5.943,6.227,6.7675,7.3055,7.8101,7.8981,8.0498,8.3762,8.2227,8.1535,8.2539,8.1246,7.9892,7.87,7.7333,7.6564,7.6564,7.6564,7.6419,7.6227,7.6419,7.4482,7.0643,7.4744,7.4541,7.1138,7.5085,7.7666,7.9162,7.9395,8.0404,8.1823,8.1947,8.2956,8.4355,8.4355,8.5338,8.6724,8.6724,8.6724,8.6724,8.6724,8.6724,8.6691,8.68,8.6746,8.6691,8.68,8.7593,8.8483,8.8633,9.0425,9.215,9.2233,9.3104,9.3899,9.3899,9.3899,9.3899,9.3899,9.3899,9.3899,9.3899,9.3899,9.3899,9.3974,9.4582,9.5112,9.5241,9.5852,9.662,9.7372,9.7479,9.7742,9.8501,9.7888,9.7764,9.8501,9.8651,9.9417,10.1005,10.2707,10.439,10.6072,10.753,10.8278,10.8278,10.8278,10.8278,10.8278,10.8278,10.8278,4.9312,5.266,5.5761,5.5761,5.4327,5.2594,5.1267,4.887,4.6575,4.5186,4.5576,4.6112,4.605,4.7905,4.9833,5.1028,5.3835,5.6519,5.835,5.9326,6.0787,6.341,6.9177,7.4484,7.8559,7.7803,7.9037,8.3868,8.0198,7.919,8.2277,8.1188,7.9485,7.742,7.6797,7.6564,7.6564,7.6564,7.6564,7.6564,7.6564,7.4628,7.1051,7.489,7.4541,7.1138,7.4977,7.565,0.0,7.7708,7.8072,7.6788,8.027,8.2009,8.2714,8.3796,8.4562,8.5282,8.633,8.6724,8.6724,8.6724,8.6724,8.6724,8.6724,8.6724,8.6724,8.6724,8.7004,8.7522,8.8214,8.914,9.0242,9.1737,9.2473,9.299,9.3714,9.3899,9.3899,9.3899,9.3899,9.3899,9.3899,9.3899,9.3899,9.3899,9.4122,9.4514,9.4982,9.5301,9.5793,9.6557,9.6673,9.6778,9.7069,9.7276,9.7525,9.7823,9.827,9.923,10.0818,10.252,10.4203,10.5885,10.7456,10.8278,10.8278,10.8278,10.8278,10.8278,10.8278,10.8278,5.32,5.6353,5.9425,5.9425,5.7798,5.5542,5.3329,5.0457,4.7574,4.5356,4.4918,4.5259,4.644,4.7539,4.9296,5.2517,5.3932,5.5885,5.9521,6.0033,6.0961,6.3474,6.8126,7.2641,7.6526,7.5975,7.7259,8.1688,7.8622,7.7768,8.0553,8.0584,7.9281,7.6693,7.6564,7.6564,7.6564,7.6564,7.6564,7.6564,7.6564,7.4628,7.1051,7.489,7.4541,7.1138,7.4977,7.4453,7.1326,7.6243,7.6058,7.3085,7.8076,8.037,8.1008,8.2132,8.3228,8.4329,8.5484,8.6219,8.6724,8.6724,8.6724,8.6724,8.6724,8.6724,8.6724,8.6724,8.6724,8.6875,8.7698,8.8197,8.8881,9.0562,9.1229,9.1864,9.3065,9.3334,9.345,9.3825,9.3899,9.3899,9.3899,9.3899,9.3899,9.3899,9.3899,9.4085,9.4616,9.4685,9.4982,9.5763,9.5852,9.5852,9.5852,9.6339,9.6752,9.7019,9.7742,9.8694,9.9755,10.1598,10.3418,10.51,10.6708,10.7792,10.8278,10.8278,10.8278,10.8278,10.8278,10.8278,6.2235,6.5931,6.9015,6.9015,6.4637,5.9753,5.7469,5.2418,4.7636,4.5381,4.4918,4.5283,4.6465,4.7539,4.932,5.2517,5.3932,5.5397,5.7617,5.7959,5.9106,6.2254,6.3645,6.6516,7.1937,7.3357,7.4988,7.7334,7.7504,7.7313,7.7002,7.914,7.918,7.6623,7.6535,7.6535,7.6535,7.6564,7.6564,7.6564,7.6564,7.4628,7.1109,7.489,7.457,7.1196,7.4977,7.4424,7.1167,7.5035,7.4337,7.1254,7.5122,7.7627,7.9096,7.9096,8.1261,8.4122,8.418,8.5282,8.667,8.6724,8.6724,8.6724,8.6724,8.6724,8.6724,8.6724,8.6724,8.6724,8.6724,8.7574,8.8416,8.8467,8.9348,9.0527,9.1822,9.2109,9.2473,9.3638,9.3862,9.3899,9.3899,9.3899,9.3899,9.3899,9.3899,9.3899,9.3899,9.3899,9.4195,9.4949,9.5047,9.5047,9.5047,9.5047,9.5364,9.6142,9.6968,9.7409,9.7372,9.9601,10.1678,10.3343,10.5063,10.6708,10.8241,10.8278,10.8278,10.8278,10.8278,10.8278,5.9957,6.4523,6.9015,6.9015,6.7325,6.421,5.8286,5.4608,5.0967,4.5946,4.5551,4.6489,4.7563,4.8612,5.037,5.364,5.4421,5.5909,5.957,6.0107,6.101,6.3499,6.5427,6.6902,6.7923,6.9572,7.1594,7.396,7.2582,7.3205,7.6785,7.6212,7.4692,7.2318,7.2236,7.2236,7.2236,7.368,7.4393,7.4393,7.5871,7.6024,7.4977,7.6111,7.6024,7.5006,7.614,7.2883,6.7328,7.3901,7.2767,6.7473,7.4046,7.6856,7.749,7.866,7.9722,8.0914,8.3348,8.4504,8.5111,8.633,8.6724,8.6724,8.6724,8.6724,8.6724,8.6724,8.6724,8.6724,8.6724,8.6929,8.7416,8.8214,8.8732,8.9334,9.0527,9.1524,9.2233,9.2595,9.3334,9.3899,9.3899,9.3899,9.3899,9.3899,9.3899,9.3899,9.3899,9.3899,9.3975,9.4195,9.4267,9.4267,9.4267,9.4753,9.5177,9.5364,9.6142,9.6804,9.7348,9.9116,10.0559,10.1603,10.4464,10.6184,10.6633,10.7717,10.8278,10.8278,10.8278,10.8278,6.3291,6.6362,6.9131,6.9655,6.8877,6.6464,6.0264,5.72,5.4093,4.8659,4.7417,4.788,4.9808,5.0638,5.2127,5.5397,5.5201,5.5836,5.9301,5.9765,6.057,6.2742,6.4499,6.5788,6.654,6.7352,6.8972,7.176,7.147,7.2094,7.4309,7.323,7.1899,7.0443,7.0363,7.0363,7.0363,7.1635,7.2664,7.3459,7.4783,7.5771,7.6564,7.6564,7.6564,7.6564,7.6564,7.3116,6.791,7.4075,7.2999,6.8026,7.4221,7.6564,7.6676,7.7735,7.8526,7.9395,8.1449,8.3016,8.4355,8.5338,8.5653,8.5853,8.644,8.6724,8.6724,8.6724,8.6724,8.6724,8.6724,8.6724,8.6875,8.7574,8.775,8.8044,8.9252,9.015,9.0831,9.1272,9.2356,9.3182,9.3182,9.36,9.3899,9.3899,9.3899,9.3899,9.3899,9.3899,9.3899,9.3899,9.3899,9.3899,9.3899,9.4338,9.4582,9.4582,9.5337,9.597,9.6449,9.7663,9.8844,10.0007,10.2036,10.3694,10.4933,10.6235,10.7206,10.7839,10.8135,10.8278,6.9626,6.9887,6.948,7.0643,6.9666,6.724,6.2578,5.9699,5.6691,5.2124,4.9662,4.9271,5.22,5.281,5.3981,5.7373,5.6226,5.569,5.7886,5.8203,5.8886,6.079,6.1961,6.3792,6.6682,6.6256,6.7013,7.0106,7.2186,7.2522,7.0641,7.0361,7.0159,6.9852,6.985,6.985,6.985,7.0005,7.118,7.321,7.3386,7.4538,7.6564,7.6564,7.6564,7.6564,7.6564,7.4453,7.1225,7.5064,7.4366,7.1312,7.5122,7.6564,7.6564,7.6564,7.7559,7.8896,7.9096,8.1135,8.3736,8.4063,8.418,8.4472,8.5965,8.6582,8.6724,8.6724,8.6724,8.6724,8.6724,8.6724,8.6724,8.6724,8.6724,8.6983,8.8044,8.8366,8.8782,8.9836,9.1185,9.215,9.215,9.3104,9.3899,9.3899,9.3899,9.3899,9.3899,9.3899,9.3899,9.3899,9.3899,9.3899,9.3899,9.3899,9.3899,9.3899,9.4547,9.4982,9.5047,9.5733,9.6867,9.8485,9.8668,10.0246,10.3188,10.4159,10.5475,10.7005,10.7733,10.8076,6.754,6.9223,7.0585,7.0847,7.134,6.9514,6.1157,5.9577,5.7782,5.0432,4.9198,4.9637,5.0321,5.1241,5.3196,5.7251,5.752,5.7959,6.0058,6.0351,6.0522,6.0961,6.1961,6.2889,6.3596,6.4255,6.528,6.6818,6.7411,6.8559,7.0567,6.9063,6.7397,6.5664,6.5589,6.5589,6.5589,6.73,6.9047,7.1077,7.2664,7.4538,7.6564,7.6564,7.6564,7.6564,7.6564,7.4453,7.1225,7.5064,7.4366,7.1312,7.5122,7.6564,7.6564,7.6564,7.6816,7.7313,7.866,7.9592,8.0626,8.3288,8.418,8.4239,8.4619,8.5653,8.6724,8.6724,8.6724,8.6724,8.6724,8.6724,8.6724,8.6724,8.6724,8.6746,8.7004,8.7801,8.8517,8.8782,9.0607,9.215,9.215,9.3104,9.3899,9.3899,9.3899,9.3899,9.3899,9.3899,9.3899,9.3899,9.3899,9.3899,9.3899,9.3899,9.3899,9.3899,9.4049,9.4408,9.5014,9.5205,9.5794,9.6741,9.8053,9.9696,10.1611,10.2999,10.4528,10.6182,10.6396,10.679,6.7172,6.8462,7.0149,7.0789,7.1807,7.0916,6.4016,6.312,6.1641,5.4392,5.2468,5.2102,5.2102,5.2566,5.4054,5.7373,5.791,5.791,5.7959,5.9716,6.0644,5.9643,6.0912,6.2669,6.4743,6.4548,6.5463,6.7989,6.8184,6.9006,7.0692,6.8648,6.6525,6.4353,6.4388,6.4388,6.4388,6.5392,6.6978,6.902,7.1028,7.3035,7.5171,7.6154,7.6564,7.6564,7.6564,7.55,7.3814,7.5791,7.5442,7.3872,7.5849,7.6564,7.6564,7.6564,7.6564,7.6676,7.7598,7.8421,7.9395,8.1198,8.1761,8.1885,8.2714,8.418,8.5484,8.5484,8.6076,8.6724,8.6724,8.6724,8.6724,8.6724,8.6724,8.6724,8.6724,8.7164,8.7593,8.7593,8.9092,9.0562,9.1097,9.2233,9.3221,9.3825,9.3899,9.3899,9.3899,9.3899,9.3899,9.3899,9.3899,9.3899,9.3899,9.3899,9.3899,9.3899,9.3899,9.4049,9.4479,9.4514,9.4685,9.5116,9.5946,9.7211,9.8842,10.0798,10.2559,10.42,10.5391,10.6152,6.7532,6.8171,6.9277,7.0324,7.129,7.0875,6.6939,6.6279,6.4831,5.9081,5.647,5.5079,5.4713,5.464,5.5348,5.7544,5.791,5.7398,5.5934,5.8789,6.0375,5.8642,5.996,6.2645,6.6818,6.5793,6.6378,7.0203,7.0154,6.9861,6.9666,6.7721,6.6012,6.4621,6.4485,6.4388,6.4388,6.4388,6.5392,6.7461,6.9099,7.0952,7.2988,7.5071,7.5737,7.513,7.6105,7.6187,7.5675,7.6274,7.6564,7.6564,7.6564,7.6564,7.6564,7.6564,7.6564,7.6564,7.6564,7.749,7.866,7.866,7.8896,7.9395,8.0818,8.2378,8.3736,8.3736,8.4965,8.6275,8.6275,8.6473,8.6724,8.6724,8.6724,8.6724,8.6724,8.6724,8.6724,8.6724,8.7645,8.8782,8.9695,9.0965,9.2192,9.3411,9.36,9.3676,9.3862,9.3899,9.3899,9.3899,9.3899,9.3899,9.3899,9.3899,9.3899,9.3899,9.3899,9.3899,9.3899,9.3899,9.3899,9.3899,9.3899,9.472,9.6435,9.8362,10.0123,10.1714,10.4035,10.5158,6.8171,6.8869,6.9073,6.9218,6.896,6.7799,6.4568,6.3487,6.2225,5.8657,5.7691,5.6885,5.4982,5.464,5.5348,5.7544,5.791,5.8447,5.996,6.0644,6.0912,6.0644,6.0839,6.2376,6.5793,6.6696,6.7608,6.9095,6.7574,6.6134,6.5267,6.3962,6.4011,6.5646,6.4768,6.4388,6.4388,6.4388,6.5392,6.7461,6.7701,6.889,7.0849,7.2887,7.2084,6.9245,7.4361,7.4744,7.1952,7.5239,7.6564,7.6564,7.6564,7.6564,7.6564,7.6564,7.6564,7.6564,7.6564,7.6746,7.6926,7.6926,7.791,7.9162,7.9395,8.0626,8.1947,8.1947,8.3228,8.4504,8.4504,8.5597,8.6724,8.6724,8.6724,8.6724,8.6724,8.6724,8.6724,8.6724,8.7645,8.8517,8.8633,8.9682,9.0886,9.2192,9.2392,9.2751,9.3751,9.3899,9.3899,9.3899,9.3899,9.3899,9.3899,9.3899,9.3899,9.3899,9.3899,9.3899,9.3899,9.3899,9.3899,9.3899,9.3899,9.472,9.6435,9.673,9.7697,9.9232,10.0925,10.2106,6.2016,6.3815,6.5839,6.5839,6.6161,6.6002,6.4021,6.3929,6.3434,6.0304,5.874,5.7251,5.5031,5.3664,5.3957,5.7373,5.6885,5.7227,6.0546,6.0009,5.9716,6.0888,6.101,6.2303,6.5573,6.6867,6.7184,6.6452,6.7745,6.8111,6.7062,6.5964,6.5524,6.5866,6.4865,6.4388,6.4388,6.4388,6.4838,6.5696,6.6923,6.7914,6.8811,7.0799,7.0863,6.9368,7.2018,7.2189,7.0825,7.3685,7.4855,7.4927,7.6084,7.6564,7.6564,7.6564,7.6564,7.6564,7.6564,7.6564,7.6564,7.6564,7.7105,7.7666,7.7666,7.886,8.0241,8.0241,8.2132,8.418,8.418,8.5428,8.6724,8.6724,8.6724,8.6724,8.6724,8.6724,8.6724,8.6724,8.7111,8.7698,8.8315,8.8847,8.9635,9.0841,9.1652,9.2351,9.2831,9.2911,9.3143,9.3825,9.3899,9.3899,9.3899,9.3899,9.3899,9.3899,9.3899,9.3899,9.3899,9.3899,9.3899,9.3899,9.3899,9.4256,9.5005,9.5005,9.5826,9.7396,9.7181,9.8665,5.7548,5.9878,6.2699,6.3222,6.3961,6.4344,6.3914,6.4377,6.4355,6.2339,6.0619,5.8862,5.6666,5.4957,5.5004,5.8179,5.7349,5.7569,6.1327,6.0522,5.9911,6.0912,6.101,6.1766,6.367,6.5573,6.589,6.4011,6.6905,6.8282,6.7389,6.6427,6.5744,6.55,6.4719,6.4388,6.4388,6.4388,6.4388,6.4388,6.5917,6.6625,6.6681,6.8733,6.9063,6.8267,6.9757,6.9803,6.9128,7.1654,7.2664,7.2914,7.4999,7.5771,7.5842,7.6395,7.6564,7.6564,7.6564,7.6564,7.6564,7.6564,7.6564,7.6564,7.6564,7.749,7.8459,7.8459,8.0562,8.2896,8.2896,8.4148,8.5508,8.5965,8.6021,8.6164,8.6582,8.6724,8.6724,8.6724,8.6724,8.6983,8.782,8.7993,8.8416,8.9587,9.0607,9.122,9.122,9.148,9.199,9.2836,9.295,9.295,9.295,9.326,9.345,9.345,9.3714,9.3899,9.3899,9.3899,9.3721,9.3328,9.3721,9.3507,9.2722,9.3114,9.3721,9.4579,9.3685,9.5219,5.8878,6.0257,6.092,6.2888,6.2851,6.2659,6.3535,6.3253,6.3052,6.3997,6.406,6.3304,6.1107,6.0595,6.0595,6.0814,6.0766,6.1498,6.3792,6.4119,6.323,6.1254,6.101,6.0302,5.8496,6.2035,6.3962,6.2791,6.2913,6.3011,6.2962,6.1937,6.2279,6.4388,6.4329,6.4388,6.4388,6.4388,6.4388,6.4388,6.4447,6.453,6.4613,6.6625,6.5611,6.2364,6.7929,6.8361,6.5314,6.902,7.0516,7.0772,7.2812,7.3606,7.3854,7.5842,7.6564,7.6564,7.6564,7.6564,7.6564,7.6564,7.6564,7.6564,7.6564,7.6606,7.6746,7.6746,7.7978,7.9329,7.9329,8.0626,8.2317,8.3914,8.4297,8.4735,8.633,8.6724,8.6724,8.6724,8.6724,8.6691,8.68,8.68,8.7185,8.8366,8.8617,8.8633,8.8633,8.9635,9.0345,9.0391,9.0391,9.0391,9.0391,9.1489,9.2268,9.2268,9.326,9.3899,9.3899,9.3899,9.3184,9.1722,9.3113,9.2437,8.944,9.0938,9.0938,8.9618,9.1009,9.1794,5.2434,5.4542,5.6792,5.7578,5.8646,5.9728,6.0744,6.0771,6.0912,6.1986,6.1132,6.0155,6.0058,5.8911,5.8618,6.0692,5.9887,6.0253,6.3792,6.2017,6.0936,6.2889,6.0692,5.9814,6.1815,6.2742,6.2767,6.1668,6.4158,6.5768,6.5768,6.4743,6.4206,6.4388,6.4388,6.4388,6.4388,6.4388,6.4388,6.4388,6.4388,6.4388,6.4388,6.5145,6.4665,6.3462,6.5609,6.57,6.4715,6.7423,6.8522,6.8654,7.0723,7.1484,7.171,7.3826,7.461,7.461,7.461,7.5458,7.6564,7.6564,7.6564,7.6564,7.6564,7.6564,7.6564,7.6564,7.7803,7.9096,7.9096,8.037,8.1823,8.2409,8.3348,8.4329,8.494,8.5909,8.6724,8.6724,8.6724,8.6724,8.6724,8.6724,8.6854,8.7238,8.4921,8.4029,8.6734,8.6661,8.7331,8.9909,9.0208,9.0208,9.0208,9.0617,9.0886,9.0886,9.1281,9.1451,9.1265,9.1269,9.0873,9.0046,9.0617,9.0332,8.9226,8.8798,8.8798,8.919,8.7727,8.8691,4.9515,5.0858,5.2737,5.3835,5.547,5.7081,5.8154,5.8907,5.9692,6.0375,5.9692,5.9179,5.9887,5.8838,5.8642,6.1156,6.0399,6.0619,6.384,6.1864,6.0839,6.3019,6.0692,5.9521,6.0912,6.1668,6.2083,6.2108,6.4792,6.6427,6.6427,6.5744,6.5036,6.4388,6.4388,6.4388,6.4388,6.4388,6.4388,6.4388,6.4388,6.4388,6.4388,6.4388,6.4388,6.4388,6.4388,6.4388,6.4447,6.5835,6.6381,6.66,6.8575,6.9411,6.9618,7.1635,7.1991,7.1614,7.2988,7.4393,7.5543,7.5873,7.5937,7.5878,7.5442,7.5326,7.5326,7.5326,7.6097,7.6946,7.6946,7.7835,7.8769,7.9307,8.0329,8.1447,8.2566,8.3655,8.4638,8.5103,8.5211,8.5211,8.5211,8.5211,8.5211,8.5211,8.2658,8.1468,8.3243,8.2687,8.3124,8.5773,8.6512,8.7021,8.7449,8.791,8.8383,8.8862,8.8787,8.8692,8.8483,8.849,8.816,8.7316,8.781,8.7784,8.7124,8.6627,8.6805,8.7585,8.5515,8.6229,5.085,4.9906,4.9149,5.2249,5.3789,5.4886,5.591,5.7811,5.9322,5.9297,6.0155,6.0888,6.0912,6.0912,6.1278,6.2401,6.2571,6.2962,6.4084,6.4363,6.3499,6.1376,6.1058,5.9375,5.5201,5.8594,6.1937,6.4119,6.4231,6.4363,6.4353,6.4388,6.4388,6.4388,6.4388,6.4388,6.4388,6.4388,6.4388,6.4388,6.4388,6.4388,6.4388,6.4388,6.4388,6.4388,6.4388,6.4388,6.4388,6.4388,6.4388,6.453,6.6544,6.738,6.7621,6.9383,6.8915,6.789,7.1833,7.3274,7.3517,7.4229,7.457,7.4337,7.3086,7.2708,7.2708,7.2708,7.2708,7.2708,7.2708,7.2708,7.3143,7.4771,7.5213,7.6084,7.9241,7.9945,8.044,8.1807,8.2066,8.2066,8.2066,8.2066,8.2066,8.2066,8.2001,8.0967,7.8137,7.7841,7.794,7.794,7.9206,8.0587,8.1968,8.3228,8.4608,8.6057,8.5877,8.5755,8.5799,8.5799,8.5075,8.3525,8.5015,8.4864,8.2914,8.4497,8.495,8.4449,8.4483,8.4519,4.9174,5.0394,5.1931,5.281,5.328,5.398,5.5787,5.5505,5.5096,5.5836,5.6837,5.7813,5.8618,5.8764,5.935,6.118,6.1473,6.1839,6.2913,6.3767,6.4143,6.3557,6.1986,6.0277,5.835,6.0595,6.2108,6.1937,6.2645,6.3767,6.5378,6.4719,6.4388,6.4388,6.4388,6.4388,6.4388,6.4388,6.4388,6.4388,6.4388,6.4388,6.4388,6.4388,6.4388,6.4388,6.4388,6.4388,6.4388,6.4388,6.4388,6.4363,6.5004,6.5227,6.5029,6.4008,6.4245,6.5175,6.6297,6.8556,7.0974,7.1223,7.2131,7.3174,7.2825,7.2708,7.2708,7.2708,7.2708,7.2708,7.2708,7.2708,7.2841,7.3245,7.4354,7.5223,7.5164,7.6931,7.8399,7.7845,7.847,7.914,7.914,7.9107,7.9107,7.914,7.7365,7.5359,7.3531,7.5143,7.6806,7.7809,7.8302,7.8713,7.9124,7.9454,8.0295,8.1719,8.1733,8.2095,8.2948,8.2948,8.2606,8.1892,8.2313,8.2265,8.1756,8.2137,8.2298,8.2198,8.3029,8.3431,4.6028,4.6574,4.7699,4.8144,4.8535,4.9115,5.0464,5.0698,5.0707,5.0999,5.2825,5.4499,5.5218,5.6342,5.7764,5.9448,6.0448,6.14,6.2474,6.3596,6.4388,6.4388,6.2352,6.079,6.0204,6.1229,6.1522,6.0473,6.1766,6.2986,6.3816,6.4133,6.4388,6.4388,6.4388,6.4388,6.4388,6.4388,6.4388,6.4388,6.4388,6.4388,6.4388,6.4388,6.4388,6.4388,6.4388,6.4388,6.4388,6.4388,6.4011,6.3596,6.3596,6.3328,6.2767,6.1498,6.1774,6.2996,6.3817,6.6119,6.8758,6.9056,7.0436,7.1865,7.1341,7.1167,7.1167,7.1167,7.1167,7.1167,7.1167,7.1167,7.1167,7.1167,7.1506,7.1765,7.1626,7.2628,7.3511,7.3333,7.4374,7.5239,7.5239,7.5745,7.5721,7.4457,7.2847,7.1512,7.0657,7.2005,7.3386,7.4194,7.4293,7.4833,7.605,7.6181,7.6806,7.822,7.7759,7.7737,7.8381,7.8428,7.8596,7.8977,7.8977,7.9467,8.0522,8.0522,8.0778,8.1273,8.1957,8.1996,4.2393,4.1013,4.039,4.1524,4.2245,4.274,0.0,4.506,4.6412,4.5834,4.8504,5.0959,5.0959,5.3202,5.552,5.6856,5.8754,6.0455,6.1832,6.306,6.366,6.322,6.1703,6.0619,6.0522,6.076,6.0473,5.9594,6.1327,6.2083,6.1229,6.3157,6.4133,6.385,6.3834,6.3751,6.3386,6.3475,6.3585,6.3585,6.3837,6.3945,6.3921,6.4196,6.4388,6.4388,6.4388,6.4388,6.4363,6.4241,6.345,6.2449,6.2449,6.1717,6.0668,6.0668,6.0668,6.0983,6.2772,6.4663,6.6309,6.7183,6.8859,7.021,6.93,6.8811,6.8579,6.8579,6.8375,6.823,6.852,6.8579,6.8608,6.8753,6.7881,6.7318,6.8333,6.7834,6.7519,6.8684,7.0074,7.1022,7.1022,7.223,7.2301,6.9594,6.92,6.92,6.92,6.92,6.92,6.92,6.92,7.0251,7.2959,7.3189,7.3814,7.5228,7.4143,7.3518,7.3682,7.3682,7.4274,7.5524,7.5556,7.6651,7.8812,7.8812,7.9461,8.0623,8.0749,8.0198,0.0,0.0,0.0,0.0,0.0,0.0,0.0,4.3611,4.2894,4.355,4.5093,4.6216,4.6216,4.7205,4.893,5.1566,5.2861,5.4717,5.8292,5.9765,5.9245,5.5935,5.7329,5.8176,5.7229,5.878,5.9716,5.9521,6.0644,6.162,6.2279,6.3572,6.3108,6.0522,6.1001,6.0127,5.7653,5.8254,5.8579,5.8579,6.0433,6.1403,6.1403,6.3392,6.4388,6.4388,6.4388,6.4388,6.4231,6.3328,6.2303,6.1327,6.1327,6.018,5.852,5.852,5.852,5.8596,5.9027,6.0323,6.2114,6.3786,6.5513,6.7299,6.8571,6.7561,6.5874,6.5874,6.4391,6.3227,6.535,6.5874,6.6136,6.7215,6.7273,6.6577,6.4743,6.4981,6.5355,6.4704,6.6457,6.8089,6.8089,6.916,6.989,6.9299,6.92,6.92,6.92,6.92,6.92,6.92,6.92,6.943,7.0021,7.0054,7.0723,7.2281,7.2117,7.2466,7.3649,7.3682,7.3814,7.411,7.411,7.4302,7.4811,7.4811,7.5545,7.6884,7.7736,7.7558,0.0,0.0,0.0,0.0,0.0,0.0,0.0,0.0,0.0,0.0,0.0,4.2709,4.2709,0.0,4.6546,4.803,4.9891,5.1845,5.3964,5.5528,5.5292,5.2185,5.3522,5.4512,5.3891,5.4869,5.5917,5.6955,5.7089,5.7933,5.9969,5.8867,5.7712,5.6527,5.6878,5.6322,5.475,5.6331,5.7162,5.7162,5.8314,5.893,5.8907,6.0173,6.1427,6.2498,6.2498,6.2887,6.3401,6.284,6.1693,6.0126,5.8479,5.7896,5.7788,5.669,5.6959,5.7764,5.6666,5.818,6.0799,6.1702,6.3865,6.6275,6.7276,6.7307,6.7066,6.7066,6.6136,6.5292,6.5903,6.6048,6.6048,6.6048,6.5583,6.4769,6.3431,6.3186,6.3012,6.239,6.3965,6.5526,6.6163,6.6818,6.7274,6.7274,6.7274,6.7274,6.7274,6.7274,6.7771,6.9066,6.6858,6.6359,6.9018,6.6793,6.6226,6.825,6.9052,6.9699,7.0446,7.1097,7.1808,7.2564,7.2597,7.2959,7.3682,7.3682,7.4044,7.4734,7.4522,7.4543,0.0,0.0,0.0,0.0,0.0,0.0,0.0,0.0,0.0,0.0,0.0,0.0,0.0,0.0,0.0,4.4882,4.7107,4.9073,4.9827,5.0754,5.0652,4.8917,4.9967,5.0894,5.0894,5.1216,5.2176,5.3889,5.356,5.4334,5.6773,5.4472,5.3102,5.324,5.3395,5.3167,5.2604,5.4679,5.5729,5.5729,5.6269,0.0,5.6448,5.6895,5.7916,5.9302,6.0035,6.0641,6.121,6.1323,6.0324,5.8575,5.5755,5.5688,5.7116,5.5764,5.6397,5.7666,5.5885,5.7415,6.02,6.0537,6.2618,6.5088,6.545,6.6322,0.0,6.7163,6.6899,6.6486,6.597,6.5835,6.5699,6.4914,6.3954,6.3082,6.2821,6.1571,6.067,6.1135,6.1966,6.3128,6.4663,6.4494,6.4117,6.3883,6.3789,6.3789,6.3789,6.4256,6.5371,6.7455,6.4394,6.3865,6.8107,6.4145,6.2528,6.5172,6.585,6.6131,6.6131,6.7112,6.8083,6.8792,6.8824,6.9628,7.1311,7.1574,7.2092,7.2752,7.0078,6.9992,0.0,0.0,0.0,0.0,0.0,0.0,0.0,0.0,0.0,0.0,0.0,0.0,0.0,0.0,0.0,0.0,4.1905,4.3744,4.7137,4.5388,4.3651,4.3477,4.6473,4.8594,4.8594,5.0389,5.1617,5.1857,5.3299,5.4264,5.4626,5.5877,0.0,0.0,0.0,5.2264,4.9335,5.0246,5.0755,5.0829,5.2984,5.4067,5.4067,5.6179,5.6094,5.4411,5.7791,5.8108,5.6222,5.6673,5.6747,5.6444,5.5163,5.4769,5.5233,5.6892,5.7691,5.7886,5.7617,0.0,0.0,6.0128,6.0943,6.156,6.3175,6.2203,6.0531,6.0531,5.9293,5.8471,6.0605,6.1541,6.2152,6.3169,6.3314,6.285,6.1687,5.9621,5.8603,6.0787,6.0508,6.0693,6.3131,6.1712,5.9774,5.8565,5.844,5.844,5.844,6.0421,6.1983,6.2248,6.3851,0.0,6.5713,6.3121,6.2528,6.5172,6.3295,6.2092,6.2092,6.2231,6.1268,5.9157,5.9094,6.0332,6.2794,6.3963,6.637,6.9691,6.2497,6.1815,0.0,0.0,0.0,0.0,0.0,0.0,0.0,0.0,0.0,0.0,0.0,0.0,0.0,0.0,0.0,0.0,3.9022,4.0429,4.2021,4.1966,4.199,4.2484,4.4773,4.6264,4.6264,4.7081,4.8223,4.9495,4.9575,5.0365,5.2088,5.089,4.9705,4.8823,4.9139,4.8689,4.7334,4.9116,4.9944,4.9944,5.1017,5.1465,5.1559,5.2542,5.2871,5.2879,5.4424,5.4673,5.4049,5.4269,5.4009,5.329,0.0,0.0,0.0,0.0,5.683,5.7739,5.6446,5.6861,5.7938,5.8015,5.8828,5.9744,5.9882,5.9913,5.9931,5.9931,5.933,5.8991,6.0214,6.0716,6.1114,6.1837,6.2036,6.1891,6.1368,6.0409,5.9973,6.1048,6.0872,0.0,6.1931,6.1193,6.0336,5.9796,5.9667,5.9667,5.9667,6.0656,6.1892,6.3419,6.1884,6.1974,6.4946,6.1465,0.0,0.0,0.0,6.1708,6.2492,6.2542,0.0,0.0,0.0,6.0327,6.139,6.0439,0.0,0.0,5.9466,5.8744,0.0,0.0,0.0,0.0,0.0,0.0,0.0,0.0,0.0,0.0,0.0,0.0,0.0,0.0,0.0,0.0,3.7174,3.7951,3.7951,3.9826,4.1437,4.2123,4.3767,4.4885,4.4885,4.4885,4.5544,4.7145,4.6657,4.719,4.9418,4.7161,4.6071,4.6907,4.6926,4.7039,4.7286,4.9109,4.9944,4.9944,4.9944,4.9944,4.9925,4.9773,4.984,5.0322,5.1161,5.1289,5.1093,5.1528,5.1253,5.041,4.884,4.9168,5.0953,5.3655,5.5665,5.6769,5.5156,5.569,5.6788,5.5372,5.6075,5.7198,5.61,5.6933,5.8219,5.7903,5.8362,5.8894,5.8819,5.9133,5.9545,5.9851,5.9884,5.9999,6.0486,6.0025,5.985,6.0994,6.1252,6.0709,5.9143,5.9198,5.9277,5.8587,5.8472,5.8637,5.9076,5.9741,6.0959,6.282,6.0319,6.0057,6.3751,6.0028,5.8574,6.1077,6.0583,6.0963,6.2701,6.2152,6.2206,6.3143,6.0579,5.9615,0.0,0.0,0.0,0.0,0.0,0.0,0.0,0.0,0.0,0.0,0.0,0.0,0.0,0.0,0.0,0.0,0.0,0.0,0.0,0.0,0.0,0.0,0.0,0.0,3.6227,3.9106,4.121,4.1229,4.3407,4.4885,4.4885,4.4885,4.4885,4.497,4.5768,4.6348,4.6368,4.6982,4.778,4.8707,4.8745,4.9071,4.9811,4.9887,4.9944,4.9944,4.9944,4.9944,4.9906,4.9146,4.7528,4.552,4.8307,4.8121,4.601,4.7672,4.8368,4.8265,4.8265,4.8265,4.882,5.3082,5.4691,5.4722,5.4674,5.4689,5.4372,5.2341,5.2409,5.3069,5.1993,5.2452,5.3065,5.2078,5.3627,5.53,5.4287,5.5248,5.6526,5.6499,5.656,5.6988,5.8661,5.699,5.6401,6.0449,6.1252,5.9399,5.3752,5.411,5.4362,5.1799,5.1437,0.0,5.3656,5.6095,5.7725,5.7783,5.9795,6.1164,6.1339,5.901,5.8574,6.1077,5.8981,5.8719,6.1191,5.8977,5.7719,5.7772,5.5227,5.5139,5.7626,0.0,0.0,0.0,0.0,0.0,0.0,0.0,0.0,0.0,0.0,0.0,0.0,0.0,0.0,0.0,0.0,0.0,0.0,0.0,0.0,0.0,0.0,0.0,0.0,3.8083,3.9921,4.1058,4.193,4.2668,4.33,4.3357,4.3357,4.3357,4.516,4.6242,4.6242,4.702,4.759,4.7875,4.7894,4.8027,4.833,4.8239,4.8615,4.9165,4.9165,4.9165,4.9165,4.8954,4.7756,4.593,4.6872,4.6518,4.5215,4.5779,4.6031,4.5973,4.5409,4.6143,4.7567,4.8354,4.9618,5.0991,5.1489,5.1688,5.1475,5.0672,5.0565,5.0662,4.9637,4.9589,4.9784,4.9418,4.9989,5.0989,5.2458,5.2717,5.3059,5.4914,5.4756,5.4555,5.5868,5.6334,5.6765,5.7826,5.683,5.5191,5.3201,5.4591,5.507,5.2734,5.3655,5.4805,5.5382,5.6241,5.6738,5.6738,5.7483,5.8039,5.8039,5.7235,5.7124,5.7984,5.7207,5.7124,5.8012,5.7179,5.7289,5.8434,5.6733,5.4769,5.265,0.0,0.0,0.0,0.0,0.0,0.0,0.0,0.0,0.0,0.0,0.0,0.0,0.0,0.0,0.0,0.0,0.0,0.0,0.0,0.0,0.0,0.0,0.0,0.0,0.0,0.0,4.0642,4.161,0.0,4.2085,4.237,4.2294,4.1746,4.3191,4.4268,4.4894,4.5426,4.6109,4.7001,4.7039,4.7153,4.7457,4.7457,4.759,4.7946,4.7946,4.7946,4.7837,4.7623,4.6982,4.6223,4.5919,4.5483,4.4847,4.426,4.4033,4.4002,4.2863,4.3327,4.4469,4.4082,4.5592,4.7996,4.8487,4.9294,4.9889,4.937,4.8686,4.7658,4.5738,4.5775,4.6295,4.5425,4.6331,4.7982,4.9311,4.9742,5.0274,5.2062,5.1861,5.1804,5.3526,5.4082,5.4289,5.4552,5.3786,5.2663,5.1549,5.3022,5.3593,5.1381,5.2937,5.4571,5.5087,5.59,5.6376,5.6376,5.6376,5.6376,5.6376,5.6376,5.6376,5.6376,5.6376,5.6376,5.6376,5.6376,5.671,5.7404,5.5832,5.3368,0.0,0.0,0.0,0.0,0.0,0.0,0.0,0.0,0.0,0.0,0.0,0.0,0.0,0.0,0.0,0.0,0.0,0.0,0.0,0.0,0.0,0.0,0.0,0.0,0.0,0.0,0.0,3.9882,4.199,0.0,0.0,0.0,0.0,4.0053,4.0015,4.0757,4.2332,4.2408,4.349,4.5843,4.5976,4.6375,4.7153,4.7191,4.685,4.6109,4.6109,4.6109,4.609,4.5398,4.5369,4.6014,4.5113,4.4772,4.4639,4.301,4.2327,4.2157,4.0413,3.9694,3.9803,4.0067,4.2453,4.5537,4.5577,4.7137,4.9023,4.8078,4.6308,4.3966,4.0671,4.1227,0.0,0.0,4.2856,4.6112,4.5161,4.6429,4.7964,4.8086,4.8111,4.8881,5.1505,5.0435,4.9428,5.1032,5.2073,5.1665,4.8463,0.0,4.9665,4.7466,4.9132,5.1127,5.2633,5.4753,5.613,5.613,5.613,5.613,5.613,5.613,5.613,5.613,5.613,5.6103,5.6049,5.6049,5.5556,5.4449,5.2337,0.0,0.0,0.0,0.0,0.0,0.0,0.0,0.0,0.0,0.0,0.0,0.0,0.0,0.0,0.0,0.0,0.0,0.0,0.0,0.0,0.0,0.0,0.0,0.0,0.0,0.0,3.6036,3.8117,3.8934,3.9067,3.8915,0.0,0.0,0.0,0.0,0.0,0.0,4.0681,4.07,4.1004,4.1632,4.2199,4.2574,4.2782,4.349,4.4002,4.4401,4.4401,4.4401,4.4401,4.4192,4.3869,4.3471,4.3262,4.3167,4.2953,3.9718,3.8635,3.87,3.5994,3.5141,3.5325,3.4861,3.6043,3.7891,3.8514,3.9529,4.0792,4.1779,4.1295,4.0244,4.0009,0.0,0.0,0.0,0.0,4.2018,4.432,4.4723,4.4967,4.666,4.7051,4.7466,4.8957,4.9085,4.897,4.9026,4.7918,4.6212,4.3853,4.508,0.0,4.3543,4.6433,4.9007,4.9389,5.1355,5.2734,5.2734,5.2734,5.2734,5.2734,5.2734,5.2734,5.2734,5.2734,5.2358,5.1481,5.1456,5.0746,4.9367,0.0,0.0,0.0,0.0,0.0,0.0,0.0,0.0,0.0,0.0,0.0,0.0,0.0,0.0,0.0,0.0,0.0,0.0,0.0,0.0,0.0,0.0,0.0,0.0,0.0,0.0,0.0,3.1918,3.4073,3.4933,3.4951,3.461,0.0,0.0,0.0,0.0,0.0,0.0,0.0,0.0,0.0,3.6898,3.7291,3.7923,3.8546,3.9788,4.0812,4.1553,4.2313,4.2593,4.2593,4.2593,4.2635,4.2503,4.1822,4.0518,3.8831,3.6993,3.5757,3.4874,0.0,0.0,0.0,0.0,3.2445,3.5168,3.5129,3.6472,3.8258,3.8793,0.0,0.0,0.0,0.0,0.0,0.0,0.0,4.0801,4.2751,4.4386,4.583,4.7051,4.6611,4.6465,4.849,4.6283,4.4086,4.4338,4.2613,4.069,3.9518,4.0292,0.0,0.0,0.0,4.584,4.584,4.9169,5.151,5.151,5.151,5.1151,5.0294,5.1017,5.1151,5.0294,5.0557,4.9784,4.7697,4.789,4.6326,0.0,0.0,0.0,0.0,0.0,0.0,0.0,0.0,0.0,0.0,0.0,0.0,0.0,0.0,0.0,0.0,0.0,0.0,0.0,0.0,0.0,0.0,0.0,0.0,0.0,0.0,0.0,0.0,0.0,2.8928,2.9984,0.0,0.0,0.0,0.0,0.0,0.0,0.0,0.0,0.0,0.0,0.0,0.0,0.0,3.2999,3.447,3.5942,3.7044,3.7561,3.911,3.9725,3.9725,3.9725,4.0291,4.1164,3.9559,0.0,3.448,3.4126,0.0,0.0,0.0,0.0,0.0,0.0,0.0,0.0,0.0,0.0,0.0,0.0,0.0,0.0,0.0,0.0,0.0,0.0,0.0,0.0,0.0,0.0,4.6828,4.6787,4.5605,4.5181,4.7936,4.2642,3.7678,3.8787,3.7398,3.5935,0.0,0.0,0.0,0.0,0.0,0.0,4.2744,4.769,5.1078,5.0933,5.0829,5.0019,4.8213,4.9723,4.9951,4.8213,4.8445,4.7371,4.4262,4.469,0.0,0.0,0.0,0.0,0.0,0.0,0.0,0.0,0.0,0.0,0.0,0.0,0.0,0.0,0.0,0.0,0.0,0.0,0.0,0.0,0.0,0.0,0.0,0.0,0.0,0.0,0.0,0.0,0.0,0.0,0.0,0.0,0.0,0.0,0.0,0.0,0.0,0.0,0.0,0.0,0.0,0.0,0.0,0.0,0.0,0.0,0.0,0.0,0.0,0.0,3.2036,3.2242,3.2242,3.2242,3.3029,3.4325,3.3159,3.3575,3.4682,2.9828,0.0,0.0,0.0,0.0,0.0,0.0,0.0,0.0,0.0,0.0,0.0,0.0,0.0,0.0,0.0,0.0,0.0,0.0,0.0,0.0,0.0,0.0,3.9779,3.9465,4.0675,4.192,4.2183,0.0,0.0,0.0,0.0,0.0,0.0,0.0,0.0,0.0,0.0,0.0,4.2744,4.6477,4.8828,4.805,4.7203,4.6318,4.5334,4.6115,4.6318,4.5334,4.4028,4.2358,0.0,0.0,0.0,0.0,0.0,0.0,0.0,0.0,0.0,0.0,0.0,0.0,0.0,0.0,0.0,0.0,0.0,0.0,0.0,0.0,0.0,0.0,0.0,0.0,0.0,0.0,0.0,0.0,0.0,0.0,0.0,0.0,0.0,0.0,0.0,0.0,0.0,0.0,0.0,0.0,0.0,0.0,0.0,0.0,0.0,0.0,0.0,0.0,0.0,0.0,0.0,0.0,0.0,0.0,0.0,0.0,0.0,0.0,3.0139,2.879,0.0,0.0,0.0,0.0,0.0,0.0,0.0,0.0,0.0,0.0,0.0,0.0,0.0,0.0,0.0,0.0,0.0,0.0,0.0,0.0,0.0,0.0,0.0,0.0,0.0,0.0,0.0,0.0,0.0,0.0,0.0,0.0,0.0,0.0,0.0,0.0,0.0,0.0,0.0,0.0,4.0332,4.514,4.7845,4.6046,4.5331,4.4319,4.2566,4.4029,4.3886,4.1253,4.1158,0.0,0.0,0.0,0.0,0.0,0.0,0.0,0.0,0.0,0.0,0.0,0.0,0.0,0.0,0.0,0.0,0.0,0.0,0.0,0.0,0.0,0.0,0.0,0.0,0.0,0.0,0.0,0.0,0.0,0.0,0.0,0.0,0.0,0.0,0.0,0.0,0.0,0.0,0.0,0.0,0.0,0.0,0.0,0.0,0.0,0.0,0.0,0.0,0.0,0.0,0.0,0.0,0.0,0.0,0.0,0.0,0.0,0.0,0.0,2.7974,2.5025,0.0,0.0,0.0,0.0,0.0,0.0,0.0,0.0,0.0,0.0,0.0,0.0,0.0,0.0,0.0,0.0,0.0,0.0,0.0,0.0,0.0,0.0,0.0,0.0,0.0,0.0,0.0,0.0,0.0,0.0,0.0,0.0,0.0,0.0,0.0,0.0,0.0,0.0,0.0,0.0,3.7676,4.3033,4.5972,4.3609,4.3145,4.2146,3.9991,4.1813,4.1417,3.7524,3.8053,0.0,0.0,0.0,0.0,0.0,0.0,0.0,0.0,0.0,0.0,0.0,0.0,0.0,0.0,0.0,0.0,0.0,0.0,0.0,0.0,0.0,0.0,0.0,0.0,0.0,0.0,0.0,0.0,0.0,0.0,0.0,0.0,0.0,0.0,0.0,0.0,0.0,0.0,0.0,0.0,0.0,0.0,0.0,0.0,0.0,0.0,0.0,0.0,0.0,0.0,0.0,0.0,0.0,0.0,0.0,0.0,0.0,0.0,0.0,0.0,0.0,0.0,0.0,0.0,0.0,0.0,0.0,0.0,0.0,0.0,0.0,0.0,0.0,0.0,0.0,0.0,0.0,0.0,0.0,0.0,0.0,0.0,0.0,0.0,0.0,0.0,0.0,0.0,0.0,0.0,0.0,0.0,0.0,0.0,0.0,0.0,0.0,0.0,0.0,0.0,0.0,3.6599,3.9291,4.0789,3.9722,3.8692,3.8043,3.7774,3.8043,3.7332,3.5364,0.0,0.0,0.0,0.0,0.0,0.0,0.0,0.0,0.0,0.0,0.0,0.0,0.0,0.0,0.0,0.0,0.0,0.0,0.0,0.0,0.0,0.0,0.0,0.0,0.0,0.0,0.0,0.0,0.0,0.0,0.0,0.0,0.0,0.0,0.0,0.0,0.0,0.0,0.0,0.0,0.0,0.0,0.0,0.0,0.0,0.0,0.0,0.0,0.0,0.0,0.0,0.0,0.0,0.0,0.0,0.0,0.0,0.0,0.0,0.0,0.0,0.0,0.0,0.0,0.0,0.0,0.0,0.0,0.0,0.0,0.0,0.0,0.0,0.0,0.0,0.0,0.0,0.0,0.0,0.0,0.0,0.0,0.0,0.0,0.0,0.0,0.0,0.0,0.0,0.0,0.0,0.0,0.0,0.0,0.0,0.0,0.0,0.0,0.0,0.0,0.0,0.0,3.4907,3.8157,3.9655,3.7503,3.6917,3.6732,3.6732,3.6732,3.5593,3.2897,0.0,0.0,0.0,0.0,0.0,0.0,0.0,0.0,0.0,0.0,0.0,0.0,0.0,0.0,0.0,0.0,0.0,0.0,0.0,0.0,0.0,0.0,0.0,0.0,0.0,0.0,0.0,0.0,0.0,0.0,0.0,0.0,0.0,0.0,0.0,0.0,0.0,0.0,0.0,0.0,0.0,0.0,0.0,0.0,0.0,0.0,0.0,0.0,0.0,0.0,0.0,0.0,0.0,0.0,0.0,0.0,0.0,0.0,0.0,0.0,0.0,0.0,0.0,0.0,0.0,0.0,0.0,0.0,0.0,0.0,0.0,0.0,0.0,0.0,0.0,0.0,0.0,0.0,0.0,0.0,0.0,0.0,0.0,0.0,0.0,0.0,0.0,0.0,0.0,0.0,0.0,0.0,0.0,0.0,0.0,0.0,0.0,0.0,0.0,0.0,0.0,0.0,3.3752,3.6981,3.8366,3.6364,3.6378,3.6599,3.6599,3.6302,3.4692,3.1277,0.0,0.0,0.0,0.0,0.0,0.0,0.0,0.0,0.0,0.0,0.0,0.0,0.0,0.0,0.0,0.0,0.0,0.0,0.0,0.0,0.0,0.0,0.0,0.0,0.0,0.0,0.0,0.0,0.0,0.0,0.0,0.0,0.0,0.0,0.0,0.0,0.0,0.0,0.0,0.0,0.0,0.0,0.0,0.0,0.0,0.0,0.0,0.0,0.0,0.0,0.0,0.0,0.0,0.0,0.0,0.0,0.0,0.0,0.0,0.0,0.0,0.0,0.0,0.0,0.0,0.0,0.0,0.0,0.0,0.0,0.0,0.0,0.0,0.0,0.0,0.0,0.0,0.0,0.0,0.0,0.0,0.0,0.0,0.0,0.0,0.0,0.0,0.0,0.0,0.0,0.0,0.0,0.0,0.0,0.0,0.0,0.0,0.0,0.0,0.0,0.0,0.0,3.3625,3.5232,3.617,3.6151,3.6979,3.7472,3.7472,3.6713,3.4519,0.0,0.0,0.0,0.0,0.0,0.0,0.0,0.0,0.0,0.0,0.0,0.0,0.0,0.0,0.0,0.0,0.0,0.0,0.0,0.0,0.0,0.0,0.0,0.0,0.0,0.0,0.0,0.0,0.0,0.0,0.0,0.0,0.0,0.0,0.0,0.0,0.0,0.0,0.0,0.0,0.0,0.0,0.0,0.0,0.0,0.0,0.0,0.0,0.0,0.0,0.0,0.0,0.0,0.0,0.0,0.0,0.0,0.0,0.0,0.0,0.0,0.0,0.0,0.0,0.0,0.0,0.0,0.0,0.0,0.0,0.0,0.0,0.0,0.0,0.0,0.0,0.0,0.0,0.0,0.0,0.0,0.0,0.0,0.0,0.0,0.0,0.0,0.0,0.0,0.0,0.0,0.0,0.0,0.0,0.0,0.0,0.0,0.0,0.0,0.0,0.0,0.0,0.0,3.2783,3.4313,3.5336,3.5336,3.5631,3.5802,3.5802,3.3952,3.1719,2.8981,0.0,0.0,0.0,0.0,0.0,0.0,0.0,0.0,0.0,0.0,0.0,0.0,0.0,0.0,0.0,0.0,0.0,0.0,0.0,0.0,0.0,0.0,0.0,0.0,0.0,0.0,0.0,0.0,0.0,0.0,0.0,0.0,0.0,0.0,0.0,0.0,0.0,0.0,0.0,0.0,0.0,0.0,0.0,0.0,0.0,0.0,0.0,0.0,0.0,0.0,0.0,0.0,0.0,0.0,0.0,0.0,0.0,0.0,0.0,0.0,0.0,0.0,0.0,0.0,0.0,0.0,0.0,0.0,0.0,0.0,0.0,0.0,0.0,0.0,0.0,0.0,0.0,0.0,0.0,0.0,0.0,0.0,0.0,0.0,0.0,0.0,0.0,0.0,0.0,0.0,0.0,0.0,0.0,0.0,0.0,0.0,0.0,0.0,0.0,0.0,0.0,0.0,0.0,3.4169,3.5137,3.5422,3.5116,3.4721,3.4178,3.2049,2.9533,2.6581,0.0,0.0,0.0,0.0,0.0,0.0,0.0,0.0,0.0,0.0,0.0,0.0,0.0,0.0,0.0,0.0,0.0,0.0,0.0,0.0,0.0,0.0,0.0,0.0,0.0,0.0,0.0,0.0,0.0,0.0,0.0,0.0,0.0,0.0,0.0,0.0,0.0,0.0,0.0,0.0,0.0,0.0,0.0,0.0,0.0,0.0,0.0,0.0,0.0,0.0,0.0,0.0,0.0,0.0,0.0,0.0,0.0,0.0,0.0,0.0,0.0,0.0,0.0,0.0,0.0,0.0,0.0,0.0,0.0,0.0,0.0,0.0,0.0,0.0,0.0,0.0,0.0,0.0,0.0,0.0,0.0,0.0,0.0,0.0,0.0,0.0,0.0,0.0,0.0,0.0,0.0,0.0,0.0,0.0,0.0,0.0,0.0,0.0,0.0,0.0,0.0,0.0,0.0,3.4473,3.5222,3.5999,3.5197,3.4064,3.2576,3.078,2.7979,2.3784,2.2739,0.0,0.0,0.0,0.0,0.0,0.0,0.0,0.0,0.0,0.0,0.0,0.0,0.0,0.0,0.0,0.0,0.0,0.0,0.0,0.0,0.0,0.0,0.0,0.0,0.0,0.0,0.0,0.0,0.0,0.0,0.0,0.0,0.0,0.0,0.0,0.0,0.0,0.0,0.0,0.0,0.0,0.0,0.0,0.0,0.0,0.0,0.0,0.0,0.0,0.0,0.0,0.0,0.0,0.0,0.0,0.0,0.0,0.0,0.0,0.0,0.0,0.0,0.0,0.0,0.0,0.0,0.0,0.0,0.0,0.0,0.0,0.0,0.0,0.0,0.0,0.0,0.0,0.0,0.0,0.0,0.0,0.0,0.0,0.0,0.0,0.0,0.0,0.0,0.0,0.0,0.0,0.0,0.0,0.0,0.0,0.0,0.0,0.0,0.0,0.0,0.0,0.0,3.4112,3.508,3.527,3.3835,3.2268,3.0847,2.9038,2.6229,2.2029,2.155,0.0,0.0,0.0,0.0,0.0,0.0,0.0,0.0,0.0,0.0,0.0,0.0,0.0,0.0,0.0,0.0,0.0,0.0,0.0,0.0,0.0,0.0,0.0,0.0,0.0,0.0,0.0,0.0,0.0,0.0,0.0,0.0,0.0,0.0,0.0,0.0,0.0,0.0,0.0,0.0,0.0,0.0,0.0,0.0,0.0,0.0,0.0,0.0,0.0,0.0,0.0,0.0,0.0,0.0,0.0,0.0,0.0,0.0,0.0,0.0,0.0,0.0,0.0,0.0,0.0,0.0,0.0,0.0,0.0,0.0,0.0,0.0,0.0,0.0,0.0,0.0,0.0,0.0,0.0,0.0,0.0,0.0,0.0,0.0,0.0,0.0,0.0,0.0,0.0,0.0,0.0,0.0,0.0,0.0,0.0,0.0,0.0,0.0,0.0,0.0,0.0,0.0,3.1268,3.2992,3.3661,3.1821,3.0137,2.9002,2.6306,2.3638,2.1347,2.1186,0.0,0.0,0.0,0.0,0.0,0.0,0.0,0.0,0.0,0.0,0.0,0.0,0.0,0.0,0.0,0.0,0.0,0.0,0.0,0.0,0.0,0.0,0.0,0.0,0.0,0.0,0.0,0.0,0.0,0.0,0.0,0.0,0.0,0.0,0.0,0.0,0.0,0.0,0.0,0.0,0.0,0.0,0.0,0.0,0.0,0.0,0.0,0.0,0.0,0.0,0.0,0.0,0.0,0.0,0.0,0.0,0.0,0.0,0.0,0.0,0.0,0.0,0.0,0.0,0.0,0.0,0.0,0.0,0.0,0.0,0.0,0.0,0.0,0.0,0.0,0.0,0.0,0.0,0.0,0.0,0.0,0.0,0.0,0.0,0.0,0.0,0.0,0.0,0.0,0.0,0.0,0.0,0.0,0.0,0.0,0.0,0.0,0.0,0.0,0.0,0.0,0.0,0.0,3.0772,3.1986,2.9974,2.8127,2.7116,2.3772,2.1469,2.0888,0.0,0.0,0.0,0.0,0.0,0.0,0.0,0.0,0.0,0.0,0.0,0.0,0.0,0.0,0.0,0.0,0.0,0.0,0.0,0.0,0.0,0.0,0.0,0.0,0.0,0.0,0.0,0.0,0.0,0.0,0.0,0.0,0.0,0.0,0.0,0.0,0.0,0.0,0.0,0.0,0.0,0.0,0.0,0.0,0.0,0.0,0.0,0.0,0.0,0.0,0.0,0.0,0.0,0.0,0.0,0.0,0.0,0.0,0.0,0.0,0.0,0.0,0.0,0.0,0.0,0.0,0.0,0.0,0.0,0.0,0.0,0.0,0.0,0.0,0.0,0.0,0.0,0.0,0.0,0.0,0.0,0.0,0.0,0.0,0.0,0.0,0.0,0.0,0.0,0.0,0.0,0.0,0.0,0.0,0.0,0.0,0.0,0.0,0.0,0.0,0.0,0.0,0.0,0.0,3.1216,3.1454,2.9723,2.7747,2.5592,2.4141,2.2176,1.9359,0.0,0.0,0.0,0.0,0.0,0.0,0.0,0.0,0.0,0.0,0.0,0.0,0.0,0.0]}]]]